<?xml version="1.0" encoding="UTF-8" standalone="no" ?>
<gpx xmlns="http://www.topografix.com/GPX/1/1" xmlns:xsi="http://www.w3.org/2001/XMLSchema-instance" xsi:schemaLocation="http://www.topografix.com/GPX/1/1 http://www.topografix.com/GPX/1/1/gpx.xsd" version="1.1" creator="VisuGPX - https://www.visugpx.com">
  <metadata>
    <name>Les Ordons</name>
  </metadata>
  <trk>
    <name><![CDATA[Les Ordons_1]]></name>
    <trkseg>
      <trkpt lat="47.36642" lon="7.15675">
        <ele>446</ele>
        <time>2023-04-04T05:50:49.000Z</time>
      </trkpt>
      <trkpt lat="47.36642" lon="7.15675">
        <ele>445.8</ele>
        <time>2023-04-04T05:50:50.000Z</time>
      </trkpt>
      <trkpt lat="47.3664" lon="7.15671">
        <ele>445.8</ele>
        <time>2023-04-04T05:51:11.000Z</time>
      </trkpt>
      <trkpt lat="47.36644" lon="7.15657">
        <ele>446.8</ele>
        <time>2023-04-04T05:51:28.000Z</time>
      </trkpt>
      <trkpt lat="47.36653" lon="7.15658">
        <ele>449</ele>
        <time>2023-04-04T05:51:39.000Z</time>
      </trkpt>
      <trkpt lat="47.36654" lon="7.15659">
        <ele>449</ele>
        <time>2023-04-04T05:51:40.000Z</time>
      </trkpt>
      <trkpt lat="47.36666" lon="7.1568">
        <ele>450.6</ele>
        <time>2023-04-04T05:51:56.000Z</time>
      </trkpt>
      <trkpt lat="47.36674" lon="7.15698">
        <ele>451.6</ele>
        <time>2023-04-04T05:52:11.000Z</time>
      </trkpt>
      <trkpt lat="47.36676" lon="7.15704">
        <ele>452.2</ele>
        <time>2023-04-04T05:52:17.000Z</time>
      </trkpt>
      <trkpt lat="47.36677" lon="7.15705">
        <ele>452.4</ele>
        <time>2023-04-04T05:52:18.000Z</time>
      </trkpt>
      <trkpt lat="47.36677" lon="7.15707">
        <ele>452.6</ele>
        <time>2023-04-04T05:52:19.000Z</time>
      </trkpt>
      <trkpt lat="47.36678" lon="7.15709">
        <ele>452.8</ele>
        <time>2023-04-04T05:52:20.000Z</time>
      </trkpt>
      <trkpt lat="47.36679" lon="7.15711">
        <ele>453</ele>
        <time>2023-04-04T05:52:21.000Z</time>
      </trkpt>
      <trkpt lat="47.3668" lon="7.15712">
        <ele>453.2</ele>
        <time>2023-04-04T05:52:22.000Z</time>
      </trkpt>
      <trkpt lat="47.3668" lon="7.15714">
        <ele>453.2</ele>
        <time>2023-04-04T05:52:23.000Z</time>
      </trkpt>
      <trkpt lat="47.36681" lon="7.15716">
        <ele>453.2</ele>
        <time>2023-04-04T05:52:24.000Z</time>
      </trkpt>
      <trkpt lat="47.36682" lon="7.15718">
        <ele>453.2</ele>
        <time>2023-04-04T05:52:25.000Z</time>
      </trkpt>
      <trkpt lat="47.36689" lon="7.15752">
        <ele>455.2</ele>
        <time>2023-04-04T05:52:44.000Z</time>
      </trkpt>
      <trkpt lat="47.36689" lon="7.15765">
        <ele>456.2</ele>
        <time>2023-04-04T05:52:53.000Z</time>
      </trkpt>
      <trkpt lat="47.36689" lon="7.15766">
        <ele>456.4</ele>
        <time>2023-04-04T05:52:54.000Z</time>
      </trkpt>
      <trkpt lat="47.3669" lon="7.15768">
        <ele>456.4</ele>
        <time>2023-04-04T05:52:55.000Z</time>
      </trkpt>
      <trkpt lat="47.3669" lon="7.1577">
        <ele>456.6</ele>
        <time>2023-04-04T05:52:56.000Z</time>
      </trkpt>
      <trkpt lat="47.36691" lon="7.15771">
        <ele>456.6</ele>
        <time>2023-04-04T05:52:57.000Z</time>
      </trkpt>
      <trkpt lat="47.36691" lon="7.15773">
        <ele>456.8</ele>
        <time>2023-04-04T05:52:58.000Z</time>
      </trkpt>
      <trkpt lat="47.36691" lon="7.15775">
        <ele>456.8</ele>
        <time>2023-04-04T05:52:59.000Z</time>
      </trkpt>
      <trkpt lat="47.36691" lon="7.15778">
        <ele>457</ele>
        <time>2023-04-04T05:53:00.000Z</time>
      </trkpt>
      <trkpt lat="47.36691" lon="7.15782">
        <ele>457.4</ele>
        <time>2023-04-04T05:53:02.000Z</time>
      </trkpt>
      <trkpt lat="47.36691" lon="7.15783">
        <ele>457.4</ele>
        <time>2023-04-04T05:53:03.000Z</time>
      </trkpt>
      <trkpt lat="47.36691" lon="7.15788">
        <ele>457.8</ele>
        <time>2023-04-04T05:53:05.000Z</time>
      </trkpt>
      <trkpt lat="47.36692" lon="7.15789">
        <ele>457.8</ele>
        <time>2023-04-04T05:53:06.000Z</time>
      </trkpt>
      <trkpt lat="47.36694" lon="7.15791">
        <ele>458</ele>
        <time>2023-04-04T05:53:07.000Z</time>
      </trkpt>
      <trkpt lat="47.36694" lon="7.15793">
        <ele>458</ele>
        <time>2023-04-04T05:53:08.000Z</time>
      </trkpt>
      <trkpt lat="47.36695" lon="7.15795">
        <ele>458.2</ele>
        <time>2023-04-04T05:53:09.000Z</time>
      </trkpt>
      <trkpt lat="47.36695" lon="7.15797">
        <ele>458.4</ele>
        <time>2023-04-04T05:53:10.000Z</time>
      </trkpt>
      <trkpt lat="47.36696" lon="7.15799">
        <ele>458.6</ele>
        <time>2023-04-04T05:53:11.000Z</time>
      </trkpt>
      <trkpt lat="47.36696" lon="7.15801">
        <ele>458.6</ele>
        <time>2023-04-04T05:53:12.000Z</time>
      </trkpt>
      <trkpt lat="47.36697" lon="7.15802">
        <ele>458.8</ele>
        <time>2023-04-04T05:53:13.000Z</time>
      </trkpt>
      <trkpt lat="47.36699" lon="7.15807">
        <ele>459.2</ele>
        <time>2023-04-04T05:53:16.000Z</time>
      </trkpt>
      <trkpt lat="47.367" lon="7.15809">
        <ele>459.2</ele>
        <time>2023-04-04T05:53:17.000Z</time>
      </trkpt>
      <trkpt lat="47.367" lon="7.15811">
        <ele>459.4</ele>
        <time>2023-04-04T05:53:18.000Z</time>
      </trkpt>
      <trkpt lat="47.36701" lon="7.15825">
        <ele>459.8</ele>
        <time>2023-04-04T05:53:25.000Z</time>
      </trkpt>
      <trkpt lat="47.36702" lon="7.15827">
        <ele>460</ele>
        <time>2023-04-04T05:53:26.000Z</time>
      </trkpt>
      <trkpt lat="47.36702" lon="7.15829">
        <ele>460</ele>
        <time>2023-04-04T05:53:27.000Z</time>
      </trkpt>
      <trkpt lat="47.36706" lon="7.15849">
        <ele>460.6</ele>
        <time>2023-04-04T05:53:36.000Z</time>
      </trkpt>
      <trkpt lat="47.36707" lon="7.1585">
        <ele>460.6</ele>
        <time>2023-04-04T05:53:37.000Z</time>
      </trkpt>
      <trkpt lat="47.36709" lon="7.15856">
        <ele>461.2</ele>
        <time>2023-04-04T05:53:41.000Z</time>
      </trkpt>
      <trkpt lat="47.36709" lon="7.15865">
        <ele>461.8</ele>
        <time>2023-04-04T05:53:46.000Z</time>
      </trkpt>
      <trkpt lat="47.3671" lon="7.15867">
        <ele>462</ele>
        <time>2023-04-04T05:53:47.000Z</time>
      </trkpt>
      <trkpt lat="47.3671" lon="7.15868">
        <ele>462.2</ele>
        <time>2023-04-04T05:53:48.000Z</time>
      </trkpt>
      <trkpt lat="47.3671" lon="7.1587">
        <ele>462.2</ele>
        <time>2023-04-04T05:53:49.000Z</time>
      </trkpt>
      <trkpt lat="47.36709" lon="7.15872">
        <ele>462.4</ele>
        <time>2023-04-04T05:53:50.000Z</time>
      </trkpt>
      <trkpt lat="47.36708" lon="7.15874">
        <ele>462.6</ele>
        <time>2023-04-04T05:53:51.000Z</time>
      </trkpt>
      <trkpt lat="47.36706" lon="7.15897">
        <ele>463.8</ele>
        <time>2023-04-04T05:54:05.000Z</time>
      </trkpt>
      <trkpt lat="47.36706" lon="7.15913">
        <ele>464.6</ele>
        <time>2023-04-04T05:54:12.000Z</time>
      </trkpt>
      <trkpt lat="47.36707" lon="7.15915">
        <ele>464.6</ele>
        <time>2023-04-04T05:54:13.000Z</time>
      </trkpt>
      <trkpt lat="47.36708" lon="7.15916">
        <ele>464.8</ele>
        <time>2023-04-04T05:54:14.000Z</time>
      </trkpt>
      <trkpt lat="47.36708" lon="7.15918">
        <ele>464.8</ele>
        <time>2023-04-04T05:54:15.000Z</time>
      </trkpt>
      <trkpt lat="47.36709" lon="7.1592">
        <ele>464.8</ele>
        <time>2023-04-04T05:54:16.000Z</time>
      </trkpt>
      <trkpt lat="47.3671" lon="7.15922">
        <ele>465</ele>
        <time>2023-04-04T05:54:17.000Z</time>
      </trkpt>
      <trkpt lat="47.36711" lon="7.15924">
        <ele>465</ele>
        <time>2023-04-04T05:54:18.000Z</time>
      </trkpt>
      <trkpt lat="47.36711" lon="7.15926">
        <ele>465.2</ele>
        <time>2023-04-04T05:54:19.000Z</time>
      </trkpt>
      <trkpt lat="47.36711" lon="7.15928">
        <ele>465.4</ele>
        <time>2023-04-04T05:54:20.000Z</time>
      </trkpt>
      <trkpt lat="47.36712" lon="7.1593">
        <ele>465.6</ele>
        <time>2023-04-04T05:54:21.000Z</time>
      </trkpt>
      <trkpt lat="47.36717" lon="7.15953">
        <ele>466.6</ele>
        <time>2023-04-04T05:54:35.000Z</time>
      </trkpt>
      <trkpt lat="47.36718" lon="7.15957">
        <ele>467</ele>
        <time>2023-04-04T05:54:37.000Z</time>
      </trkpt>
      <trkpt lat="47.3672" lon="7.15962">
        <ele>467.4</ele>
        <time>2023-04-04T05:54:40.000Z</time>
      </trkpt>
      <trkpt lat="47.3672" lon="7.15964">
        <ele>467.4</ele>
        <time>2023-04-04T05:54:41.000Z</time>
      </trkpt>
      <trkpt lat="47.36721" lon="7.15966">
        <ele>467.4</ele>
        <time>2023-04-04T05:54:42.000Z</time>
      </trkpt>
      <trkpt lat="47.36721" lon="7.15968">
        <ele>467.4</ele>
        <time>2023-04-04T05:54:43.000Z</time>
      </trkpt>
      <trkpt lat="47.36722" lon="7.1597">
        <ele>467.4</ele>
        <time>2023-04-04T05:54:44.000Z</time>
      </trkpt>
      <trkpt lat="47.36723" lon="7.15972">
        <ele>467.4</ele>
        <time>2023-04-04T05:54:45.000Z</time>
      </trkpt>
      <trkpt lat="47.36723" lon="7.15974">
        <ele>467.6</ele>
        <time>2023-04-04T05:54:46.000Z</time>
      </trkpt>
      <trkpt lat="47.36724" lon="7.15976">
        <ele>467.8</ele>
        <time>2023-04-04T05:54:47.000Z</time>
      </trkpt>
      <trkpt lat="47.36724" lon="7.15978">
        <ele>467.8</ele>
        <time>2023-04-04T05:54:48.000Z</time>
      </trkpt>
      <trkpt lat="47.36725" lon="7.1598">
        <ele>467.8</ele>
        <time>2023-04-04T05:54:49.000Z</time>
      </trkpt>
      <trkpt lat="47.36726" lon="7.15982">
        <ele>468</ele>
        <time>2023-04-04T05:54:50.000Z</time>
      </trkpt>
      <trkpt lat="47.36727" lon="7.15983">
        <ele>468</ele>
        <time>2023-04-04T05:54:51.000Z</time>
      </trkpt>
      <trkpt lat="47.36728" lon="7.15985">
        <ele>468</ele>
        <time>2023-04-04T05:54:52.000Z</time>
      </trkpt>
      <trkpt lat="47.3673" lon="7.16009">
        <ele>469.2</ele>
        <time>2023-04-04T05:55:05.000Z</time>
      </trkpt>
      <trkpt lat="47.3673" lon="7.16011">
        <ele>469.4</ele>
        <time>2023-04-04T05:55:06.000Z</time>
      </trkpt>
      <trkpt lat="47.3673" lon="7.16013">
        <ele>469.8</ele>
        <time>2023-04-04T05:55:07.000Z</time>
      </trkpt>
      <trkpt lat="47.36729" lon="7.16015">
        <ele>469.8</ele>
        <time>2023-04-04T05:55:08.000Z</time>
      </trkpt>
      <trkpt lat="47.36729" lon="7.16017">
        <ele>470</ele>
        <time>2023-04-04T05:55:09.000Z</time>
      </trkpt>
      <trkpt lat="47.36729" lon="7.1602">
        <ele>470.2</ele>
        <time>2023-04-04T05:55:11.000Z</time>
      </trkpt>
      <trkpt lat="47.3673" lon="7.16022">
        <ele>470.4</ele>
        <time>2023-04-04T05:55:12.000Z</time>
      </trkpt>
      <trkpt lat="47.36728" lon="7.16052">
        <ele>471.6</ele>
        <time>2023-04-04T05:55:27.000Z</time>
      </trkpt>
      <trkpt lat="47.36725" lon="7.16071">
        <ele>472.6</ele>
        <time>2023-04-04T05:55:35.000Z</time>
      </trkpt>
      <trkpt lat="47.36726" lon="7.16084">
        <ele>473.2</ele>
        <time>2023-04-04T05:55:42.000Z</time>
      </trkpt>
      <trkpt lat="47.36726" lon="7.16086">
        <ele>473.4</ele>
        <time>2023-04-04T05:55:43.000Z</time>
      </trkpt>
      <trkpt lat="47.36728" lon="7.16094">
        <ele>474</ele>
        <time>2023-04-04T05:55:51.000Z</time>
      </trkpt>
      <trkpt lat="47.36728" lon="7.16096">
        <ele>474.2</ele>
        <time>2023-04-04T05:55:52.000Z</time>
      </trkpt>
      <trkpt lat="47.36728" lon="7.16098">
        <ele>474.2</ele>
        <time>2023-04-04T05:55:53.000Z</time>
      </trkpt>
      <trkpt lat="47.36728" lon="7.161">
        <ele>474.4</ele>
        <time>2023-04-04T05:55:54.000Z</time>
      </trkpt>
      <trkpt lat="47.36728" lon="7.16102">
        <ele>474.4</ele>
        <time>2023-04-04T05:55:55.000Z</time>
      </trkpt>
      <trkpt lat="47.36737" lon="7.16126">
        <ele>475</ele>
        <time>2023-04-04T05:56:09.000Z</time>
      </trkpt>
      <trkpt lat="47.36738" lon="7.16131">
        <ele>475.2</ele>
        <time>2023-04-04T05:56:12.000Z</time>
      </trkpt>
      <trkpt lat="47.36739" lon="7.16132">
        <ele>475.4</ele>
        <time>2023-04-04T05:56:13.000Z</time>
      </trkpt>
      <trkpt lat="47.36744" lon="7.16149">
        <ele>476.8</ele>
        <time>2023-04-04T05:56:25.000Z</time>
      </trkpt>
      <trkpt lat="47.36744" lon="7.16151">
        <ele>476.8</ele>
        <time>2023-04-04T05:56:26.000Z</time>
      </trkpt>
      <trkpt lat="47.36738" lon="7.16182">
        <ele>478.4</ele>
        <time>2023-04-04T05:56:43.000Z</time>
      </trkpt>
      <trkpt lat="47.3674" lon="7.16188">
        <ele>479.4</ele>
        <time>2023-04-04T05:56:52.000Z</time>
      </trkpt>
      <trkpt lat="47.36743" lon="7.16193">
        <ele>479.6</ele>
        <time>2023-04-04T05:56:55.000Z</time>
      </trkpt>
      <trkpt lat="47.36743" lon="7.16195">
        <ele>479.6</ele>
        <time>2023-04-04T05:56:56.000Z</time>
      </trkpt>
      <trkpt lat="47.36744" lon="7.16197">
        <ele>479.6</ele>
        <time>2023-04-04T05:56:57.000Z</time>
      </trkpt>
      <trkpt lat="47.36745" lon="7.16199">
        <ele>479.6</ele>
        <time>2023-04-04T05:56:58.000Z</time>
      </trkpt>
      <trkpt lat="47.36746" lon="7.16201">
        <ele>479.8</ele>
        <time>2023-04-04T05:56:59.000Z</time>
      </trkpt>
      <trkpt lat="47.36746" lon="7.16202">
        <ele>479.8</ele>
        <time>2023-04-04T05:57:00.000Z</time>
      </trkpt>
      <trkpt lat="47.36747" lon="7.16203">
        <ele>480</ele>
        <time>2023-04-04T05:57:01.000Z</time>
      </trkpt>
      <trkpt lat="47.36748" lon="7.16205">
        <ele>480</ele>
        <time>2023-04-04T05:57:02.000Z</time>
      </trkpt>
      <trkpt lat="47.36749" lon="7.16207">
        <ele>480.2</ele>
        <time>2023-04-04T05:57:03.000Z</time>
      </trkpt>
      <trkpt lat="47.36749" lon="7.16209">
        <ele>480.4</ele>
        <time>2023-04-04T05:57:04.000Z</time>
      </trkpt>
      <trkpt lat="47.36749" lon="7.16211">
        <ele>480.4</ele>
        <time>2023-04-04T05:57:05.000Z</time>
      </trkpt>
      <trkpt lat="47.36749" lon="7.16212">
        <ele>480.6</ele>
        <time>2023-04-04T05:57:06.000Z</time>
      </trkpt>
      <trkpt lat="47.3675" lon="7.16214">
        <ele>480.6</ele>
        <time>2023-04-04T05:57:07.000Z</time>
      </trkpt>
      <trkpt lat="47.3675" lon="7.16216">
        <ele>480.8</ele>
        <time>2023-04-04T05:57:08.000Z</time>
      </trkpt>
      <trkpt lat="47.36751" lon="7.16218">
        <ele>480.8</ele>
        <time>2023-04-04T05:57:09.000Z</time>
      </trkpt>
      <trkpt lat="47.36752" lon="7.16222">
        <ele>481</ele>
        <time>2023-04-04T05:57:11.000Z</time>
      </trkpt>
      <trkpt lat="47.36753" lon="7.16224">
        <ele>481</ele>
        <time>2023-04-04T05:57:12.000Z</time>
      </trkpt>
      <trkpt lat="47.36754" lon="7.16225">
        <ele>481.2</ele>
        <time>2023-04-04T05:57:13.000Z</time>
      </trkpt>
      <trkpt lat="47.36755" lon="7.16226">
        <ele>481.2</ele>
        <time>2023-04-04T05:57:14.000Z</time>
      </trkpt>
      <trkpt lat="47.36756" lon="7.16227">
        <ele>481.4</ele>
        <time>2023-04-04T05:57:15.000Z</time>
      </trkpt>
      <trkpt lat="47.36756" lon="7.16229">
        <ele>481.6</ele>
        <time>2023-04-04T05:57:16.000Z</time>
      </trkpt>
      <trkpt lat="47.36757" lon="7.16231">
        <ele>481.6</ele>
        <time>2023-04-04T05:57:17.000Z</time>
      </trkpt>
      <trkpt lat="47.36759" lon="7.16236">
        <ele>481.8</ele>
        <time>2023-04-04T05:57:20.000Z</time>
      </trkpt>
      <trkpt lat="47.36759" lon="7.16238">
        <ele>482</ele>
        <time>2023-04-04T05:57:21.000Z</time>
      </trkpt>
      <trkpt lat="47.3676" lon="7.16239">
        <ele>482</ele>
        <time>2023-04-04T05:57:22.000Z</time>
      </trkpt>
      <trkpt lat="47.3676" lon="7.16243">
        <ele>482.2</ele>
        <time>2023-04-04T05:57:25.000Z</time>
      </trkpt>
      <trkpt lat="47.3676" lon="7.16244">
        <ele>482.2</ele>
        <time>2023-04-04T05:57:26.000Z</time>
      </trkpt>
      <trkpt lat="47.36761" lon="7.16246">
        <ele>482.4</ele>
        <time>2023-04-04T05:57:27.000Z</time>
      </trkpt>
      <trkpt lat="47.36761" lon="7.16248">
        <ele>482.4</ele>
        <time>2023-04-04T05:57:28.000Z</time>
      </trkpt>
      <trkpt lat="47.36762" lon="7.16251">
        <ele>482.4</ele>
        <time>2023-04-04T05:57:29.000Z</time>
      </trkpt>
      <trkpt lat="47.36763" lon="7.16253">
        <ele>482.6</ele>
        <time>2023-04-04T05:57:30.000Z</time>
      </trkpt>
      <trkpt lat="47.36764" lon="7.16254">
        <ele>482.6</ele>
        <time>2023-04-04T05:57:31.000Z</time>
      </trkpt>
      <trkpt lat="47.36765" lon="7.16256">
        <ele>482.6</ele>
        <time>2023-04-04T05:57:32.000Z</time>
      </trkpt>
      <trkpt lat="47.36765" lon="7.16258">
        <ele>482.8</ele>
        <time>2023-04-04T05:57:33.000Z</time>
      </trkpt>
      <trkpt lat="47.36766" lon="7.1626">
        <ele>483</ele>
        <time>2023-04-04T05:57:34.000Z</time>
      </trkpt>
      <trkpt lat="47.36767" lon="7.16262">
        <ele>483</ele>
        <time>2023-04-04T05:57:35.000Z</time>
      </trkpt>
      <trkpt lat="47.36767" lon="7.16264">
        <ele>483.2</ele>
        <time>2023-04-04T05:57:36.000Z</time>
      </trkpt>
      <trkpt lat="47.36768" lon="7.16265">
        <ele>483.4</ele>
        <time>2023-04-04T05:57:37.000Z</time>
      </trkpt>
      <trkpt lat="47.36768" lon="7.16267">
        <ele>483.4</ele>
        <time>2023-04-04T05:57:38.000Z</time>
      </trkpt>
      <trkpt lat="47.36769" lon="7.16269">
        <ele>483.8</ele>
        <time>2023-04-04T05:57:39.000Z</time>
      </trkpt>
      <trkpt lat="47.36772" lon="7.16277">
        <ele>484.2</ele>
        <time>2023-04-04T05:57:43.000Z</time>
      </trkpt>
      <trkpt lat="47.36773" lon="7.16278">
        <ele>484.4</ele>
        <time>2023-04-04T05:57:44.000Z</time>
      </trkpt>
      <trkpt lat="47.36773" lon="7.1628">
        <ele>484.4</ele>
        <time>2023-04-04T05:57:45.000Z</time>
      </trkpt>
      <trkpt lat="47.36776" lon="7.16289">
        <ele>485</ele>
        <time>2023-04-04T05:57:51.000Z</time>
      </trkpt>
      <trkpt lat="47.36776" lon="7.16291">
        <ele>485</ele>
        <time>2023-04-04T05:57:52.000Z</time>
      </trkpt>
      <trkpt lat="47.36776" lon="7.16293">
        <ele>485.2</ele>
        <time>2023-04-04T05:57:53.000Z</time>
      </trkpt>
      <trkpt lat="47.36777" lon="7.16297">
        <ele>485.4</ele>
        <time>2023-04-04T05:57:55.000Z</time>
      </trkpt>
      <trkpt lat="47.36777" lon="7.16299">
        <ele>485.4</ele>
        <time>2023-04-04T05:57:56.000Z</time>
      </trkpt>
      <trkpt lat="47.36776" lon="7.16301">
        <ele>485.6</ele>
        <time>2023-04-04T05:57:57.000Z</time>
      </trkpt>
      <trkpt lat="47.36777" lon="7.16303">
        <ele>485.8</ele>
        <time>2023-04-04T05:57:58.000Z</time>
      </trkpt>
      <trkpt lat="47.36777" lon="7.16305">
        <ele>485.8</ele>
        <time>2023-04-04T05:57:59.000Z</time>
      </trkpt>
      <trkpt lat="47.36777" lon="7.16307">
        <ele>485.8</ele>
        <time>2023-04-04T05:58:00.000Z</time>
      </trkpt>
      <trkpt lat="47.36778" lon="7.16343">
        <ele>487.8</ele>
        <time>2023-04-04T05:58:18.000Z</time>
      </trkpt>
      <trkpt lat="47.36777" lon="7.16369">
        <ele>489.2</ele>
        <time>2023-04-04T05:58:32.000Z</time>
      </trkpt>
      <trkpt lat="47.36775" lon="7.16405">
        <ele>490.8</ele>
        <time>2023-04-04T05:58:50.000Z</time>
      </trkpt>
      <trkpt lat="47.36773" lon="7.16435">
        <ele>493</ele>
        <time>2023-04-04T05:59:09.000Z</time>
      </trkpt>
      <trkpt lat="47.36773" lon="7.16437">
        <ele>493.4</ele>
        <time>2023-04-04T05:59:23.000Z</time>
      </trkpt>
      <trkpt lat="47.36773" lon="7.16438">
        <ele>493.4</ele>
        <time>2023-04-04T05:59:24.000Z</time>
      </trkpt>
      <trkpt lat="47.36774" lon="7.1644">
        <ele>493.4</ele>
        <time>2023-04-04T05:59:25.000Z</time>
      </trkpt>
      <trkpt lat="47.36774" lon="7.16442">
        <ele>493.4</ele>
        <time>2023-04-04T05:59:26.000Z</time>
      </trkpt>
      <trkpt lat="47.36774" lon="7.16443">
        <ele>493.6</ele>
        <time>2023-04-04T05:59:27.000Z</time>
      </trkpt>
      <trkpt lat="47.36775" lon="7.16445">
        <ele>493.6</ele>
        <time>2023-04-04T05:59:28.000Z</time>
      </trkpt>
      <trkpt lat="47.36782" lon="7.16481">
        <ele>495.8</ele>
        <time>2023-04-04T05:59:48.000Z</time>
      </trkpt>
      <trkpt lat="47.36785" lon="7.16487">
        <ele>496.4</ele>
        <time>2023-04-04T05:59:52.000Z</time>
      </trkpt>
      <trkpt lat="47.36785" lon="7.16489">
        <ele>496.4</ele>
        <time>2023-04-04T05:59:53.000Z</time>
      </trkpt>
      <trkpt lat="47.36794" lon="7.16517">
        <ele>498.2</ele>
        <time>2023-04-04T06:00:13.000Z</time>
      </trkpt>
      <trkpt lat="47.36793" lon="7.16528">
        <ele>498.6</ele>
        <time>2023-04-04T06:00:26.000Z</time>
      </trkpt>
      <trkpt lat="47.36792" lon="7.1653">
        <ele>498.6</ele>
        <time>2023-04-04T06:00:27.000Z</time>
      </trkpt>
      <trkpt lat="47.36791" lon="7.16532">
        <ele>498.6</ele>
        <time>2023-04-04T06:00:28.000Z</time>
      </trkpt>
      <trkpt lat="47.3679" lon="7.16534">
        <ele>498.8</ele>
        <time>2023-04-04T06:00:29.000Z</time>
      </trkpt>
      <trkpt lat="47.36789" lon="7.16536">
        <ele>498.8</ele>
        <time>2023-04-04T06:00:30.000Z</time>
      </trkpt>
      <trkpt lat="47.36783" lon="7.16569">
        <ele>501</ele>
        <time>2023-04-04T06:00:47.000Z</time>
      </trkpt>
      <trkpt lat="47.36784" lon="7.16572">
        <ele>501.4</ele>
        <time>2023-04-04T06:01:07.000Z</time>
      </trkpt>
      <trkpt lat="47.36783" lon="7.16574">
        <ele>501.6</ele>
        <time>2023-04-04T06:01:22.000Z</time>
      </trkpt>
      <trkpt lat="47.36782" lon="7.16576">
        <ele>501.4</ele>
        <time>2023-04-04T06:01:34.000Z</time>
      </trkpt>
      <trkpt lat="47.36776" lon="7.16583">
        <ele>501.4</ele>
        <time>2023-04-04T06:01:43.000Z</time>
      </trkpt>
      <trkpt lat="47.36776" lon="7.16585">
        <ele>501.4</ele>
        <time>2023-04-04T06:01:44.000Z</time>
      </trkpt>
      <trkpt lat="47.36776" lon="7.16586">
        <ele>501.4</ele>
        <time>2023-04-04T06:01:45.000Z</time>
      </trkpt>
      <trkpt lat="47.36778" lon="7.16595">
        <ele>501.4</ele>
        <time>2023-04-04T06:01:49.000Z</time>
      </trkpt>
      <trkpt lat="47.36778" lon="7.16597">
        <ele>501.6</ele>
        <time>2023-04-04T06:01:50.000Z</time>
      </trkpt>
      <trkpt lat="47.36778" lon="7.16599">
        <ele>501.6</ele>
        <time>2023-04-04T06:01:51.000Z</time>
      </trkpt>
      <trkpt lat="47.36778" lon="7.16601">
        <ele>501.6</ele>
        <time>2023-04-04T06:01:52.000Z</time>
      </trkpt>
      <trkpt lat="47.36777" lon="7.16604">
        <ele>501.8</ele>
        <time>2023-04-04T06:01:53.000Z</time>
      </trkpt>
      <trkpt lat="47.36777" lon="7.1661">
        <ele>501.8</ele>
        <time>2023-04-04T06:01:56.000Z</time>
      </trkpt>
      <trkpt lat="47.36777" lon="7.16612">
        <ele>501.8</ele>
        <time>2023-04-04T06:01:57.000Z</time>
      </trkpt>
      <trkpt lat="47.36777" lon="7.16614">
        <ele>501.8</ele>
        <time>2023-04-04T06:01:58.000Z</time>
      </trkpt>
      <trkpt lat="47.36777" lon="7.16617">
        <ele>501.8</ele>
        <time>2023-04-04T06:01:59.000Z</time>
      </trkpt>
      <trkpt lat="47.36777" lon="7.16619">
        <ele>501.8</ele>
        <time>2023-04-04T06:02:00.000Z</time>
      </trkpt>
      <trkpt lat="47.36773" lon="7.16635">
        <ele>501.6</ele>
        <time>2023-04-04T06:02:08.000Z</time>
      </trkpt>
      <trkpt lat="47.36773" lon="7.16636">
        <ele>501.6</ele>
        <time>2023-04-04T06:02:09.000Z</time>
      </trkpt>
      <trkpt lat="47.36774" lon="7.16638">
        <ele>501.6</ele>
        <time>2023-04-04T06:02:10.000Z</time>
      </trkpt>
      <trkpt lat="47.36773" lon="7.1664">
        <ele>501.6</ele>
        <time>2023-04-04T06:02:11.000Z</time>
      </trkpt>
      <trkpt lat="47.36772" lon="7.16642">
        <ele>501.6</ele>
        <time>2023-04-04T06:02:12.000Z</time>
      </trkpt>
      <trkpt lat="47.36767" lon="7.16657">
        <ele>501.6</ele>
        <time>2023-04-04T06:02:20.000Z</time>
      </trkpt>
      <trkpt lat="47.36767" lon="7.16659">
        <ele>501.6</ele>
        <time>2023-04-04T06:02:21.000Z</time>
      </trkpt>
      <trkpt lat="47.36767" lon="7.16661">
        <ele>501.6</ele>
        <time>2023-04-04T06:02:22.000Z</time>
      </trkpt>
      <trkpt lat="47.36767" lon="7.16662">
        <ele>501.6</ele>
        <time>2023-04-04T06:02:23.000Z</time>
      </trkpt>
      <trkpt lat="47.36766" lon="7.16664">
        <ele>501.6</ele>
        <time>2023-04-04T06:02:24.000Z</time>
      </trkpt>
      <trkpt lat="47.36765" lon="7.16666">
        <ele>501.6</ele>
        <time>2023-04-04T06:02:25.000Z</time>
      </trkpt>
      <trkpt lat="47.36765" lon="7.16667">
        <ele>501.4</ele>
        <time>2023-04-04T06:02:26.000Z</time>
      </trkpt>
      <trkpt lat="47.36764" lon="7.16669">
        <ele>501.4</ele>
        <time>2023-04-04T06:02:27.000Z</time>
      </trkpt>
      <trkpt lat="47.36764" lon="7.1667">
        <ele>501.4</ele>
        <time>2023-04-04T06:02:28.000Z</time>
      </trkpt>
      <trkpt lat="47.36763" lon="7.16672">
        <ele>501.4</ele>
        <time>2023-04-04T06:02:29.000Z</time>
      </trkpt>
      <trkpt lat="47.36763" lon="7.16674">
        <ele>501.4</ele>
        <time>2023-04-04T06:02:30.000Z</time>
      </trkpt>
      <trkpt lat="47.36757" lon="7.16709">
        <ele>501.6</ele>
        <time>2023-04-04T06:02:46.000Z</time>
      </trkpt>
      <trkpt lat="47.36749" lon="7.16745">
        <ele>502.2</ele>
        <time>2023-04-04T06:03:03.000Z</time>
      </trkpt>
      <trkpt lat="47.36737" lon="7.16778">
        <ele>502.4</ele>
        <time>2023-04-04T06:03:19.000Z</time>
      </trkpt>
      <trkpt lat="47.36727" lon="7.16813">
        <ele>502.6</ele>
        <time>2023-04-04T06:03:37.000Z</time>
      </trkpt>
      <trkpt lat="47.3672" lon="7.16847">
        <ele>502.4</ele>
        <time>2023-04-04T06:03:53.000Z</time>
      </trkpt>
      <trkpt lat="47.36724" lon="7.16875">
        <ele>502</ele>
        <time>2023-04-04T06:04:08.000Z</time>
      </trkpt>
      <trkpt lat="47.36722" lon="7.16866">
        <ele>502.4</ele>
        <time>2023-04-04T06:04:27.000Z</time>
      </trkpt>
      <trkpt lat="47.36718" lon="7.16854">
        <ele>502.4</ele>
        <time>2023-04-04T06:04:37.000Z</time>
      </trkpt>
      <trkpt lat="47.36717" lon="7.16851">
        <ele>501.6</ele>
        <time>2023-04-04T06:04:40.000Z</time>
      </trkpt>
      <trkpt lat="47.36716" lon="7.16849">
        <ele>499.8</ele>
        <time>2023-04-04T06:04:41.000Z</time>
      </trkpt>
      <trkpt lat="47.36716" lon="7.16848">
        <ele>497.8</ele>
        <time>2023-04-04T06:04:42.000Z</time>
      </trkpt>
      <trkpt lat="47.36713" lon="7.16844">
        <ele>494.8</ele>
        <time>2023-04-04T06:04:46.000Z</time>
      </trkpt>
      <trkpt lat="47.36713" lon="7.16843">
        <ele>494.4</ele>
        <time>2023-04-04T06:04:47.000Z</time>
      </trkpt>
      <trkpt lat="47.36709" lon="7.16841">
        <ele>494.2</ele>
        <time>2023-04-04T06:04:50.000Z</time>
      </trkpt>
      <trkpt lat="47.36706" lon="7.16828">
        <ele>491</ele>
        <time>2023-04-04T06:05:05.000Z</time>
      </trkpt>
      <trkpt lat="47.36702" lon="7.16816">
        <ele>487.8</ele>
        <time>2023-04-04T06:05:14.000Z</time>
      </trkpt>
      <trkpt lat="47.36697" lon="7.16807">
        <ele>484.6</ele>
        <time>2023-04-04T06:05:22.000Z</time>
      </trkpt>
      <trkpt lat="47.36695" lon="7.16802">
        <ele>483.6</ele>
        <time>2023-04-04T06:05:26.000Z</time>
      </trkpt>
      <trkpt lat="47.36695" lon="7.168">
        <ele>483.2</ele>
        <time>2023-04-04T06:05:27.000Z</time>
      </trkpt>
      <trkpt lat="47.36694" lon="7.16798">
        <ele>482.4</ele>
        <time>2023-04-04T06:05:29.000Z</time>
      </trkpt>
      <trkpt lat="47.36694" lon="7.16796">
        <ele>482.2</ele>
        <time>2023-04-04T06:05:30.000Z</time>
      </trkpt>
      <trkpt lat="47.36693" lon="7.16784">
        <ele>479</ele>
        <time>2023-04-04T06:05:42.000Z</time>
      </trkpt>
      <trkpt lat="47.36686" lon="7.1679">
        <ele>477</ele>
        <time>2023-04-04T06:06:00.000Z</time>
      </trkpt>
      <trkpt lat="47.36678" lon="7.16805">
        <ele>473.8</ele>
        <time>2023-04-04T06:06:15.000Z</time>
      </trkpt>
      <trkpt lat="47.36678" lon="7.16821">
        <ele>470.8</ele>
        <time>2023-04-04T06:06:30.000Z</time>
      </trkpt>
      <trkpt lat="47.36677" lon="7.16826">
        <ele>470.4</ele>
        <time>2023-04-04T06:06:37.000Z</time>
      </trkpt>
      <trkpt lat="47.36675" lon="7.16822">
        <ele>467.4</ele>
        <time>2023-04-04T06:06:51.000Z</time>
      </trkpt>
      <trkpt lat="47.36673" lon="7.16835">
        <ele>464.2</ele>
        <time>2023-04-04T06:07:04.000Z</time>
      </trkpt>
      <trkpt lat="47.3667" lon="7.16845">
        <ele>461</ele>
        <time>2023-04-04T06:07:15.000Z</time>
      </trkpt>
      <trkpt lat="47.36669" lon="7.16846">
        <ele>458.4</ele>
        <time>2023-04-04T06:07:21.000Z</time>
      </trkpt>
      <trkpt lat="47.36668" lon="7.16854">
        <ele>455.6</ele>
        <time>2023-04-04T06:07:34.000Z</time>
      </trkpt>
      <trkpt lat="47.36668" lon="7.16857">
        <ele>455.6</ele>
        <time>2023-04-04T06:07:35.000Z</time>
      </trkpt>
      <trkpt lat="47.36669" lon="7.16859">
        <ele>455.4</ele>
        <time>2023-04-04T06:07:36.000Z</time>
      </trkpt>
      <trkpt lat="47.36669" lon="7.16861">
        <ele>455.4</ele>
        <time>2023-04-04T06:07:37.000Z</time>
      </trkpt>
      <trkpt lat="47.36669" lon="7.16864">
        <ele>455.2</ele>
        <time>2023-04-04T06:07:38.000Z</time>
      </trkpt>
      <trkpt lat="47.36667" lon="7.16867">
        <ele>455</ele>
        <time>2023-04-04T06:07:40.000Z</time>
      </trkpt>
      <trkpt lat="47.36666" lon="7.16868">
        <ele>454.8</ele>
        <time>2023-04-04T06:07:41.000Z</time>
      </trkpt>
      <trkpt lat="47.36663" lon="7.16869">
        <ele>454.6</ele>
        <time>2023-04-04T06:07:43.000Z</time>
      </trkpt>
      <trkpt lat="47.36659" lon="7.16874">
        <ele>453.8</ele>
        <time>2023-04-04T06:07:47.000Z</time>
      </trkpt>
      <trkpt lat="47.3666" lon="7.16877">
        <ele>453.8</ele>
        <time>2023-04-04T06:07:49.000Z</time>
      </trkpt>
      <trkpt lat="47.3666" lon="7.16879">
        <ele>453.6</ele>
        <time>2023-04-04T06:07:50.000Z</time>
      </trkpt>
      <trkpt lat="47.36661" lon="7.16881">
        <ele>453.6</ele>
        <time>2023-04-04T06:07:51.000Z</time>
      </trkpt>
      <trkpt lat="47.36661" lon="7.16906">
        <ele>452</ele>
        <time>2023-04-04T06:08:06.000Z</time>
      </trkpt>
      <trkpt lat="47.36646" lon="7.16953">
        <ele>452.4</ele>
        <time>2023-04-04T06:08:33.000Z</time>
      </trkpt>
      <trkpt lat="47.36627" lon="7.16972">
        <ele>451.4</ele>
        <time>2023-04-04T06:08:49.000Z</time>
      </trkpt>
      <trkpt lat="47.36626" lon="7.16973">
        <ele>451.2</ele>
        <time>2023-04-04T06:08:50.000Z</time>
      </trkpt>
      <trkpt lat="47.36611" lon="7.16993">
        <ele>450.8</ele>
        <time>2023-04-04T06:09:06.000Z</time>
      </trkpt>
      <trkpt lat="47.36611" lon="7.17013">
        <ele>452.8</ele>
        <time>2023-04-04T06:09:20.000Z</time>
      </trkpt>
      <trkpt lat="47.36614" lon="7.17031">
        <ele>456</ele>
        <time>2023-04-04T06:09:34.000Z</time>
      </trkpt>
      <trkpt lat="47.36614" lon="7.17048">
        <ele>459</ele>
        <time>2023-04-04T06:09:47.000Z</time>
      </trkpt>
      <trkpt lat="47.36617" lon="7.17053">
        <ele>462</ele>
        <time>2023-04-04T06:10:01.000Z</time>
      </trkpt>
      <trkpt lat="47.36618" lon="7.17056">
        <ele>465.2</ele>
        <time>2023-04-04T06:10:14.000Z</time>
      </trkpt>
      <trkpt lat="47.36623" lon="7.17065">
        <ele>468.2</ele>
        <time>2023-04-04T06:10:30.000Z</time>
      </trkpt>
      <trkpt lat="47.36631" lon="7.17076">
        <ele>471.2</ele>
        <time>2023-04-04T06:10:48.000Z</time>
      </trkpt>
      <trkpt lat="47.36652" lon="7.17113">
        <ele>475.4</ele>
        <time>2023-04-04T06:11:14.000Z</time>
      </trkpt>
      <trkpt lat="47.36668" lon="7.17133">
        <ele>478.4</ele>
        <time>2023-04-04T06:11:34.000Z</time>
      </trkpt>
      <trkpt lat="47.36675" lon="7.17141">
        <ele>480.6</ele>
        <time>2023-04-04T06:11:47.000Z</time>
      </trkpt>
      <trkpt lat="47.36681" lon="7.17149">
        <ele>483.8</ele>
        <time>2023-04-04T06:12:00.000Z</time>
      </trkpt>
      <trkpt lat="47.36689" lon="7.1716">
        <ele>486.8</ele>
        <time>2023-04-04T06:12:16.000Z</time>
      </trkpt>
      <trkpt lat="47.36692" lon="7.17167">
        <ele>490</ele>
        <time>2023-04-04T06:12:29.000Z</time>
      </trkpt>
      <trkpt lat="47.36696" lon="7.17178">
        <ele>492.2</ele>
        <time>2023-04-04T06:12:49.000Z</time>
      </trkpt>
      <trkpt lat="47.36708" lon="7.17193">
        <ele>495.4</ele>
        <time>2023-04-04T06:13:03.000Z</time>
      </trkpt>
      <trkpt lat="47.36712" lon="7.17217">
        <ele>498.6</ele>
        <time>2023-04-04T06:13:21.000Z</time>
      </trkpt>
      <trkpt lat="47.36718" lon="7.17229">
        <ele>499.6</ele>
        <time>2023-04-04T06:13:29.000Z</time>
      </trkpt>
      <trkpt lat="47.36723" lon="7.17233">
        <ele>499.6</ele>
        <time>2023-04-04T06:13:33.000Z</time>
      </trkpt>
      <trkpt lat="47.36731" lon="7.17241">
        <ele>499.4</ele>
        <time>2023-04-04T06:13:41.000Z</time>
      </trkpt>
      <trkpt lat="47.36733" lon="7.17242">
        <ele>499.4</ele>
        <time>2023-04-04T06:13:42.000Z</time>
      </trkpt>
      <trkpt lat="47.36746" lon="7.17266">
        <ele>499.4</ele>
        <time>2023-04-04T06:13:58.000Z</time>
      </trkpt>
      <trkpt lat="47.36747" lon="7.17269">
        <ele>499.6</ele>
        <time>2023-04-04T06:14:00.000Z</time>
      </trkpt>
      <trkpt lat="47.36748" lon="7.17271">
        <ele>499.6</ele>
        <time>2023-04-04T06:14:01.000Z</time>
      </trkpt>
      <trkpt lat="47.36749" lon="7.17272">
        <ele>499.6</ele>
        <time>2023-04-04T06:14:02.000Z</time>
      </trkpt>
      <trkpt lat="47.3675" lon="7.17273">
        <ele>499.6</ele>
        <time>2023-04-04T06:14:03.000Z</time>
      </trkpt>
      <trkpt lat="47.36752" lon="7.17273">
        <ele>499.6</ele>
        <time>2023-04-04T06:14:04.000Z</time>
      </trkpt>
      <trkpt lat="47.36753" lon="7.17274">
        <ele>499.6</ele>
        <time>2023-04-04T06:14:05.000Z</time>
      </trkpt>
      <trkpt lat="47.36753" lon="7.17276">
        <ele>499.4</ele>
        <time>2023-04-04T06:14:06.000Z</time>
      </trkpt>
      <trkpt lat="47.36753" lon="7.17278">
        <ele>499.4</ele>
        <time>2023-04-04T06:14:07.000Z</time>
      </trkpt>
      <trkpt lat="47.36754" lon="7.1728">
        <ele>499.4</ele>
        <time>2023-04-04T06:14:08.000Z</time>
      </trkpt>
      <trkpt lat="47.36754" lon="7.17282">
        <ele>499.4</ele>
        <time>2023-04-04T06:14:09.000Z</time>
      </trkpt>
      <trkpt lat="47.36755" lon="7.17283">
        <ele>499.4</ele>
        <time>2023-04-04T06:14:10.000Z</time>
      </trkpt>
      <trkpt lat="47.36755" lon="7.17285">
        <ele>499.4</ele>
        <time>2023-04-04T06:14:11.000Z</time>
      </trkpt>
      <trkpt lat="47.36755" lon="7.17287">
        <ele>499.4</ele>
        <time>2023-04-04T06:14:12.000Z</time>
      </trkpt>
      <trkpt lat="47.36756" lon="7.17289">
        <ele>499.4</ele>
        <time>2023-04-04T06:14:13.000Z</time>
      </trkpt>
      <trkpt lat="47.36757" lon="7.1729">
        <ele>499.2</ele>
        <time>2023-04-04T06:14:14.000Z</time>
      </trkpt>
      <trkpt lat="47.36759" lon="7.17293">
        <ele>499.2</ele>
        <time>2023-04-04T06:14:16.000Z</time>
      </trkpt>
      <trkpt lat="47.3676" lon="7.17295">
        <ele>499.2</ele>
        <time>2023-04-04T06:14:17.000Z</time>
      </trkpt>
      <trkpt lat="47.36761" lon="7.17297">
        <ele>499.2</ele>
        <time>2023-04-04T06:14:18.000Z</time>
      </trkpt>
      <trkpt lat="47.36762" lon="7.17299">
        <ele>499.2</ele>
        <time>2023-04-04T06:14:19.000Z</time>
      </trkpt>
      <trkpt lat="47.36763" lon="7.17301">
        <ele>499.2</ele>
        <time>2023-04-04T06:14:20.000Z</time>
      </trkpt>
      <trkpt lat="47.36763" lon="7.17303">
        <ele>499.2</ele>
        <time>2023-04-04T06:14:21.000Z</time>
      </trkpt>
      <trkpt lat="47.36778" lon="7.17329">
        <ele>499.4</ele>
        <time>2023-04-04T06:14:39.000Z</time>
      </trkpt>
      <trkpt lat="47.36783" lon="7.1734">
        <ele>499.4</ele>
        <time>2023-04-04T06:14:46.000Z</time>
      </trkpt>
      <trkpt lat="47.36784" lon="7.17343">
        <ele>499.4</ele>
        <time>2023-04-04T06:14:48.000Z</time>
      </trkpt>
      <trkpt lat="47.36785" lon="7.17344">
        <ele>499.4</ele>
        <time>2023-04-04T06:14:49.000Z</time>
      </trkpt>
      <trkpt lat="47.36786" lon="7.17346">
        <ele>499.4</ele>
        <time>2023-04-04T06:14:50.000Z</time>
      </trkpt>
      <trkpt lat="47.36786" lon="7.17349">
        <ele>499.4</ele>
        <time>2023-04-04T06:14:51.000Z</time>
      </trkpt>
      <trkpt lat="47.36787" lon="7.1735">
        <ele>499.4</ele>
        <time>2023-04-04T06:14:52.000Z</time>
      </trkpt>
      <trkpt lat="47.36788" lon="7.17352">
        <ele>499.6</ele>
        <time>2023-04-04T06:14:53.000Z</time>
      </trkpt>
      <trkpt lat="47.36789" lon="7.17353">
        <ele>499.6</ele>
        <time>2023-04-04T06:14:54.000Z</time>
      </trkpt>
      <trkpt lat="47.36801" lon="7.1737">
        <ele>499.6</ele>
        <time>2023-04-04T06:15:07.000Z</time>
      </trkpt>
      <trkpt lat="47.36816" lon="7.17394">
        <ele>499.4</ele>
        <time>2023-04-04T06:15:24.000Z</time>
      </trkpt>
      <trkpt lat="47.36829" lon="7.17415">
        <ele>499.4</ele>
        <time>2023-04-04T06:15:37.000Z</time>
      </trkpt>
      <trkpt lat="47.36829" lon="7.17418">
        <ele>499.4</ele>
        <time>2023-04-04T06:15:38.000Z</time>
      </trkpt>
      <trkpt lat="47.36829" lon="7.1742">
        <ele>499.4</ele>
        <time>2023-04-04T06:15:39.000Z</time>
      </trkpt>
      <trkpt lat="47.3683" lon="7.17422">
        <ele>499.4</ele>
        <time>2023-04-04T06:15:40.000Z</time>
      </trkpt>
      <trkpt lat="47.36831" lon="7.17424">
        <ele>499.4</ele>
        <time>2023-04-04T06:15:41.000Z</time>
      </trkpt>
      <trkpt lat="47.36831" lon="7.17426">
        <ele>499.6</ele>
        <time>2023-04-04T06:15:42.000Z</time>
      </trkpt>
      <trkpt lat="47.36832" lon="7.17428">
        <ele>499.6</ele>
        <time>2023-04-04T06:15:43.000Z</time>
      </trkpt>
      <trkpt lat="47.36832" lon="7.1743">
        <ele>499.6</ele>
        <time>2023-04-04T06:15:44.000Z</time>
      </trkpt>
      <trkpt lat="47.36833" lon="7.17432">
        <ele>499.6</ele>
        <time>2023-04-04T06:15:45.000Z</time>
      </trkpt>
      <trkpt lat="47.36846" lon="7.17461">
        <ele>499.4</ele>
        <time>2023-04-04T06:16:02.000Z</time>
      </trkpt>
      <trkpt lat="47.3686" lon="7.17487">
        <ele>499.4</ele>
        <time>2023-04-04T06:16:19.000Z</time>
      </trkpt>
      <trkpt lat="47.36862" lon="7.17492">
        <ele>499.4</ele>
        <time>2023-04-04T06:16:23.000Z</time>
      </trkpt>
      <trkpt lat="47.36863" lon="7.17493">
        <ele>499.4</ele>
        <time>2023-04-04T06:16:24.000Z</time>
      </trkpt>
      <trkpt lat="47.36864" lon="7.17494">
        <ele>499.4</ele>
        <time>2023-04-04T06:16:25.000Z</time>
      </trkpt>
      <trkpt lat="47.36864" lon="7.17496">
        <ele>499.4</ele>
        <time>2023-04-04T06:16:26.000Z</time>
      </trkpt>
      <trkpt lat="47.36865" lon="7.17498">
        <ele>499.4</ele>
        <time>2023-04-04T06:16:27.000Z</time>
      </trkpt>
      <trkpt lat="47.36865" lon="7.175">
        <ele>499.4</ele>
        <time>2023-04-04T06:16:28.000Z</time>
      </trkpt>
      <trkpt lat="47.36866" lon="7.17501">
        <ele>499.2</ele>
        <time>2023-04-04T06:16:29.000Z</time>
      </trkpt>
      <trkpt lat="47.36867" lon="7.17503">
        <ele>499.2</ele>
        <time>2023-04-04T06:16:30.000Z</time>
      </trkpt>
      <trkpt lat="47.36868" lon="7.17505">
        <ele>499.2</ele>
        <time>2023-04-04T06:16:31.000Z</time>
      </trkpt>
      <trkpt lat="47.36876" lon="7.17517">
        <ele>499.4</ele>
        <time>2023-04-04T06:16:42.000Z</time>
      </trkpt>
      <trkpt lat="47.36877" lon="7.17518">
        <ele>499.4</ele>
        <time>2023-04-04T06:16:43.000Z</time>
      </trkpt>
      <trkpt lat="47.36878" lon="7.1752">
        <ele>499.4</ele>
        <time>2023-04-04T06:16:44.000Z</time>
      </trkpt>
      <trkpt lat="47.36879" lon="7.17522">
        <ele>499.4</ele>
        <time>2023-04-04T06:16:45.000Z</time>
      </trkpt>
      <trkpt lat="47.36879" lon="7.17523">
        <ele>499.4</ele>
        <time>2023-04-04T06:16:46.000Z</time>
      </trkpt>
      <trkpt lat="47.3688" lon="7.17525">
        <ele>499.4</ele>
        <time>2023-04-04T06:16:47.000Z</time>
      </trkpt>
      <trkpt lat="47.3688" lon="7.17527">
        <ele>499.4</ele>
        <time>2023-04-04T06:16:48.000Z</time>
      </trkpt>
      <trkpt lat="47.36889" lon="7.17556">
        <ele>499.2</ele>
        <time>2023-04-04T06:17:04.000Z</time>
      </trkpt>
      <trkpt lat="47.36893" lon="7.17569">
        <ele>499.2</ele>
        <time>2023-04-04T06:17:09.000Z</time>
      </trkpt>
      <trkpt lat="47.36893" lon="7.17574">
        <ele>499.4</ele>
        <time>2023-04-04T06:17:12.000Z</time>
      </trkpt>
      <trkpt lat="47.36894" lon="7.17576">
        <ele>499.4</ele>
        <time>2023-04-04T06:17:13.000Z</time>
      </trkpt>
      <trkpt lat="47.36894" lon="7.17577">
        <ele>499.4</ele>
        <time>2023-04-04T06:17:14.000Z</time>
      </trkpt>
      <trkpt lat="47.36899" lon="7.1759">
        <ele>499.6</ele>
        <time>2023-04-04T06:17:21.000Z</time>
      </trkpt>
      <trkpt lat="47.36899" lon="7.17592">
        <ele>499.6</ele>
        <time>2023-04-04T06:17:22.000Z</time>
      </trkpt>
      <trkpt lat="47.36899" lon="7.17594">
        <ele>499.4</ele>
        <time>2023-04-04T06:17:23.000Z</time>
      </trkpt>
      <trkpt lat="47.369" lon="7.17596">
        <ele>499.4</ele>
        <time>2023-04-04T06:17:24.000Z</time>
      </trkpt>
      <trkpt lat="47.36901" lon="7.176">
        <ele>499.6</ele>
        <time>2023-04-04T06:17:27.000Z</time>
      </trkpt>
      <trkpt lat="47.36902" lon="7.17604">
        <ele>499.6</ele>
        <time>2023-04-04T06:17:29.000Z</time>
      </trkpt>
      <trkpt lat="47.36902" lon="7.17606">
        <ele>499.6</ele>
        <time>2023-04-04T06:17:30.000Z</time>
      </trkpt>
      <trkpt lat="47.36903" lon="7.17607">
        <ele>499.6</ele>
        <time>2023-04-04T06:17:31.000Z</time>
      </trkpt>
      <trkpt lat="47.36903" lon="7.17609">
        <ele>499.6</ele>
        <time>2023-04-04T06:17:32.000Z</time>
      </trkpt>
      <trkpt lat="47.36903" lon="7.17611">
        <ele>499.6</ele>
        <time>2023-04-04T06:17:33.000Z</time>
      </trkpt>
      <trkpt lat="47.36905" lon="7.1763">
        <ele>499.8</ele>
        <time>2023-04-04T06:17:41.000Z</time>
      </trkpt>
      <trkpt lat="47.36913" lon="7.17659">
        <ele>499.8</ele>
        <time>2023-04-04T06:17:57.000Z</time>
      </trkpt>
      <trkpt lat="47.36913" lon="7.17682">
        <ele>501.8</ele>
        <time>2023-04-04T06:18:11.000Z</time>
      </trkpt>
      <trkpt lat="47.36912" lon="7.17687">
        <ele>502.4</ele>
        <time>2023-04-04T06:18:14.000Z</time>
      </trkpt>
      <trkpt lat="47.36912" lon="7.17688">
        <ele>502.6</ele>
        <time>2023-04-04T06:18:15.000Z</time>
      </trkpt>
      <trkpt lat="47.36913" lon="7.1769">
        <ele>502.8</ele>
        <time>2023-04-04T06:18:16.000Z</time>
      </trkpt>
      <trkpt lat="47.36913" lon="7.17692">
        <ele>503</ele>
        <time>2023-04-04T06:18:17.000Z</time>
      </trkpt>
      <trkpt lat="47.36914" lon="7.17695">
        <ele>503</ele>
        <time>2023-04-04T06:18:18.000Z</time>
      </trkpt>
      <trkpt lat="47.36915" lon="7.17697">
        <ele>503.2</ele>
        <time>2023-04-04T06:18:19.000Z</time>
      </trkpt>
      <trkpt lat="47.36915" lon="7.17698">
        <ele>503.4</ele>
        <time>2023-04-04T06:18:20.000Z</time>
      </trkpt>
      <trkpt lat="47.36916" lon="7.177">
        <ele>503.6</ele>
        <time>2023-04-04T06:18:21.000Z</time>
      </trkpt>
      <trkpt lat="47.36917" lon="7.17729">
        <ele>505.8</ele>
        <time>2023-04-04T06:18:36.000Z</time>
      </trkpt>
      <trkpt lat="47.36919" lon="7.17759">
        <ele>506.2</ele>
        <time>2023-04-04T06:18:51.000Z</time>
      </trkpt>
      <trkpt lat="47.36913" lon="7.17782">
        <ele>506.8</ele>
        <time>2023-04-04T06:19:04.000Z</time>
      </trkpt>
      <trkpt lat="47.36906" lon="7.17816">
        <ele>507.6</ele>
        <time>2023-04-04T06:19:22.000Z</time>
      </trkpt>
      <trkpt lat="47.36899" lon="7.17839">
        <ele>508.2</ele>
        <time>2023-04-04T06:19:34.000Z</time>
      </trkpt>
      <trkpt lat="47.36899" lon="7.17841">
        <ele>508.2</ele>
        <time>2023-04-04T06:19:35.000Z</time>
      </trkpt>
      <trkpt lat="47.36898" lon="7.17843">
        <ele>508.2</ele>
        <time>2023-04-04T06:19:36.000Z</time>
      </trkpt>
      <trkpt lat="47.36898" lon="7.17845">
        <ele>508.2</ele>
        <time>2023-04-04T06:19:37.000Z</time>
      </trkpt>
      <trkpt lat="47.36898" lon="7.17846">
        <ele>508.2</ele>
        <time>2023-04-04T06:19:38.000Z</time>
      </trkpt>
      <trkpt lat="47.36898" lon="7.17848">
        <ele>508.2</ele>
        <time>2023-04-04T06:19:39.000Z</time>
      </trkpt>
      <trkpt lat="47.36897" lon="7.17849">
        <ele>508.2</ele>
        <time>2023-04-04T06:19:40.000Z</time>
      </trkpt>
      <trkpt lat="47.36897" lon="7.17851">
        <ele>508.2</ele>
        <time>2023-04-04T06:19:41.000Z</time>
      </trkpt>
      <trkpt lat="47.36897" lon="7.17853">
        <ele>508.2</ele>
        <time>2023-04-04T06:19:42.000Z</time>
      </trkpt>
      <trkpt lat="47.36897" lon="7.17857">
        <ele>508.2</ele>
        <time>2023-04-04T06:19:44.000Z</time>
      </trkpt>
      <trkpt lat="47.36897" lon="7.17859">
        <ele>508.2</ele>
        <time>2023-04-04T06:19:45.000Z</time>
      </trkpt>
      <trkpt lat="47.36889" lon="7.17891">
        <ele>508.8</ele>
        <time>2023-04-04T06:20:03.000Z</time>
      </trkpt>
      <trkpt lat="47.36891" lon="7.1793">
        <ele>509.6</ele>
        <time>2023-04-04T06:20:22.000Z</time>
      </trkpt>
      <trkpt lat="47.36885" lon="7.17961">
        <ele>509.6</ele>
        <time>2023-04-04T06:20:39.000Z</time>
      </trkpt>
      <trkpt lat="47.3687" lon="7.17991">
        <ele>508</ele>
        <time>2023-04-04T06:20:59.000Z</time>
      </trkpt>
      <trkpt lat="47.36867" lon="7.18001">
        <ele>507.8</ele>
        <time>2023-04-04T06:21:05.000Z</time>
      </trkpt>
      <trkpt lat="47.36866" lon="7.18002">
        <ele>507.6</ele>
        <time>2023-04-04T06:21:06.000Z</time>
      </trkpt>
      <trkpt lat="47.36866" lon="7.18004">
        <ele>507.4</ele>
        <time>2023-04-04T06:21:07.000Z</time>
      </trkpt>
      <trkpt lat="47.36866" lon="7.18006">
        <ele>507.4</ele>
        <time>2023-04-04T06:21:08.000Z</time>
      </trkpt>
      <trkpt lat="47.36866" lon="7.18008">
        <ele>507.4</ele>
        <time>2023-04-04T06:21:09.000Z</time>
      </trkpt>
      <trkpt lat="47.36866" lon="7.18011">
        <ele>507.2</ele>
        <time>2023-04-04T06:21:10.000Z</time>
      </trkpt>
      <trkpt lat="47.36867" lon="7.18012">
        <ele>507.2</ele>
        <time>2023-04-04T06:21:11.000Z</time>
      </trkpt>
      <trkpt lat="47.36868" lon="7.18013">
        <ele>507.2</ele>
        <time>2023-04-04T06:21:12.000Z</time>
      </trkpt>
      <trkpt lat="47.36869" lon="7.18014">
        <ele>507</ele>
        <time>2023-04-04T06:21:13.000Z</time>
      </trkpt>
      <trkpt lat="47.3687" lon="7.18015">
        <ele>506.8</ele>
        <time>2023-04-04T06:21:14.000Z</time>
      </trkpt>
      <trkpt lat="47.36872" lon="7.18017">
        <ele>506.8</ele>
        <time>2023-04-04T06:21:16.000Z</time>
      </trkpt>
      <trkpt lat="47.36881" lon="7.18015">
        <ele>506.2</ele>
        <time>2023-04-04T06:21:35.000Z</time>
      </trkpt>
      <trkpt lat="47.36894" lon="7.18019">
        <ele>506.2</ele>
        <time>2023-04-04T06:21:49.000Z</time>
      </trkpt>
      <trkpt lat="47.3691" lon="7.18033">
        <ele>506.6</ele>
        <time>2023-04-04T06:22:07.000Z</time>
      </trkpt>
      <trkpt lat="47.36915" lon="7.18041">
        <ele>506.4</ele>
        <time>2023-04-04T06:22:17.000Z</time>
      </trkpt>
      <trkpt lat="47.36917" lon="7.18043">
        <ele>506.4</ele>
        <time>2023-04-04T06:22:18.000Z</time>
      </trkpt>
      <trkpt lat="47.36934" lon="7.18058">
        <ele>506.2</ele>
        <time>2023-04-04T06:22:31.000Z</time>
      </trkpt>
      <trkpt lat="47.36938" lon="7.18065">
        <ele>506.2</ele>
        <time>2023-04-04T06:22:37.000Z</time>
      </trkpt>
      <trkpt lat="47.36939" lon="7.18069">
        <ele>506.2</ele>
        <time>2023-04-04T06:22:40.000Z</time>
      </trkpt>
      <trkpt lat="47.36939" lon="7.18079">
        <ele>506.4</ele>
        <time>2023-04-04T06:22:47.000Z</time>
      </trkpt>
      <trkpt lat="47.36938" lon="7.18077">
        <ele>506.8</ele>
        <time>2023-04-04T06:23:04.000Z</time>
      </trkpt>
      <trkpt lat="47.36936" lon="7.18064">
        <ele>506.8</ele>
        <time>2023-04-04T06:23:39.000Z</time>
      </trkpt>
      <trkpt lat="47.36941" lon="7.18081">
        <ele>506.8</ele>
        <time>2023-04-04T06:24:04.000Z</time>
      </trkpt>
      <trkpt lat="47.36941" lon="7.18084">
        <ele>506.8</ele>
        <time>2023-04-04T06:24:05.000Z</time>
      </trkpt>
      <trkpt lat="47.36942" lon="7.18086">
        <ele>506.8</ele>
        <time>2023-04-04T06:24:06.000Z</time>
      </trkpt>
      <trkpt lat="47.36943" lon="7.18088">
        <ele>506.8</ele>
        <time>2023-04-04T06:24:07.000Z</time>
      </trkpt>
      <trkpt lat="47.36943" lon="7.1809">
        <ele>506.6</ele>
        <time>2023-04-04T06:24:08.000Z</time>
      </trkpt>
      <trkpt lat="47.36944" lon="7.18092">
        <ele>506.4</ele>
        <time>2023-04-04T06:24:09.000Z</time>
      </trkpt>
      <trkpt lat="47.36945" lon="7.18094">
        <ele>506</ele>
        <time>2023-04-04T06:24:10.000Z</time>
      </trkpt>
      <trkpt lat="47.36945" lon="7.18096">
        <ele>505.8</ele>
        <time>2023-04-04T06:24:11.000Z</time>
      </trkpt>
      <trkpt lat="47.36946" lon="7.18098">
        <ele>505.8</ele>
        <time>2023-04-04T06:24:12.000Z</time>
      </trkpt>
      <trkpt lat="47.36947" lon="7.181">
        <ele>505.8</ele>
        <time>2023-04-04T06:24:13.000Z</time>
      </trkpt>
      <trkpt lat="47.36947" lon="7.18102">
        <ele>505.8</ele>
        <time>2023-04-04T06:24:14.000Z</time>
      </trkpt>
      <trkpt lat="47.36947" lon="7.18104">
        <ele>505.8</ele>
        <time>2023-04-04T06:24:15.000Z</time>
      </trkpt>
      <trkpt lat="47.36947" lon="7.18106">
        <ele>505.8</ele>
        <time>2023-04-04T06:24:16.000Z</time>
      </trkpt>
      <trkpt lat="47.36947" lon="7.18108">
        <ele>505.8</ele>
        <time>2023-04-04T06:24:17.000Z</time>
      </trkpt>
      <trkpt lat="47.36947" lon="7.1811">
        <ele>505.8</ele>
        <time>2023-04-04T06:24:18.000Z</time>
      </trkpt>
      <trkpt lat="47.36947" lon="7.18111">
        <ele>505.8</ele>
        <time>2023-04-04T06:24:19.000Z</time>
      </trkpt>
      <trkpt lat="47.36948" lon="7.1813">
        <ele>506.2</ele>
        <time>2023-04-04T06:24:32.000Z</time>
      </trkpt>
      <trkpt lat="47.36949" lon="7.18132">
        <ele>506.4</ele>
        <time>2023-04-04T06:24:33.000Z</time>
      </trkpt>
      <trkpt lat="47.36948" lon="7.18133">
        <ele>506.4</ele>
        <time>2023-04-04T06:24:34.000Z</time>
      </trkpt>
      <trkpt lat="47.36945" lon="7.18149">
        <ele>507.4</ele>
        <time>2023-04-04T06:24:42.000Z</time>
      </trkpt>
      <trkpt lat="47.36945" lon="7.18153">
        <ele>507.8</ele>
        <time>2023-04-04T06:24:44.000Z</time>
      </trkpt>
      <trkpt lat="47.36947" lon="7.18178">
        <ele>509.2</ele>
        <time>2023-04-04T06:24:56.000Z</time>
      </trkpt>
      <trkpt lat="47.36946" lon="7.18194">
        <ele>510.2</ele>
        <time>2023-04-04T06:25:04.000Z</time>
      </trkpt>
      <trkpt lat="47.36945" lon="7.18215">
        <ele>512.4</ele>
        <time>2023-04-04T06:25:17.000Z</time>
      </trkpt>
      <trkpt lat="47.36951" lon="7.18235">
        <ele>514.8</ele>
        <time>2023-04-04T06:25:30.000Z</time>
      </trkpt>
      <trkpt lat="47.36953" lon="7.18241">
        <ele>515.6</ele>
        <time>2023-04-04T06:25:33.000Z</time>
      </trkpt>
      <trkpt lat="47.36961" lon="7.18253">
        <ele>517.6</ele>
        <time>2023-04-04T06:25:45.000Z</time>
      </trkpt>
      <trkpt lat="47.36966" lon="7.18275">
        <ele>520.8</ele>
        <time>2023-04-04T06:26:03.000Z</time>
      </trkpt>
      <trkpt lat="47.36974" lon="7.18283">
        <ele>522.2</ele>
        <time>2023-04-04T06:26:20.000Z</time>
      </trkpt>
      <trkpt lat="47.36982" lon="7.18301">
        <ele>525.4</ele>
        <time>2023-04-04T06:26:40.000Z</time>
      </trkpt>
      <trkpt lat="47.36989" lon="7.18307">
        <ele>528.4</ele>
        <time>2023-04-04T06:26:55.000Z</time>
      </trkpt>
      <trkpt lat="47.36999" lon="7.1831">
        <ele>530.6</ele>
        <time>2023-04-04T06:27:04.000Z</time>
      </trkpt>
      <trkpt lat="47.37011" lon="7.18316">
        <ele>533.8</ele>
        <time>2023-04-04T06:27:19.000Z</time>
      </trkpt>
      <trkpt lat="47.3702" lon="7.18328">
        <ele>536.8</ele>
        <time>2023-04-04T06:27:39.000Z</time>
      </trkpt>
      <trkpt lat="47.37025" lon="7.18342">
        <ele>539.2</ele>
        <time>2023-04-04T06:27:58.000Z</time>
      </trkpt>
      <trkpt lat="47.37029" lon="7.18356">
        <ele>542.4</ele>
        <time>2023-04-04T06:28:16.000Z</time>
      </trkpt>
      <trkpt lat="47.37044" lon="7.18374">
        <ele>545.4</ele>
        <time>2023-04-04T06:28:36.000Z</time>
      </trkpt>
      <trkpt lat="47.37046" lon="7.18389">
        <ele>548.4</ele>
        <time>2023-04-04T06:28:52.000Z</time>
      </trkpt>
      <trkpt lat="47.37048" lon="7.18403">
        <ele>551.6</ele>
        <time>2023-04-04T06:29:10.000Z</time>
      </trkpt>
      <trkpt lat="47.37049" lon="7.18412">
        <ele>554.6</ele>
        <time>2023-04-04T06:29:26.000Z</time>
      </trkpt>
      <trkpt lat="47.37056" lon="7.18429">
        <ele>557.6</ele>
        <time>2023-04-04T06:29:45.000Z</time>
      </trkpt>
      <trkpt lat="47.3706" lon="7.1844">
        <ele>560.6</ele>
        <time>2023-04-04T06:30:05.000Z</time>
      </trkpt>
      <trkpt lat="47.37054" lon="7.18459">
        <ele>563.6</ele>
        <time>2023-04-04T06:30:26.000Z</time>
      </trkpt>
      <trkpt lat="47.37057" lon="7.18474">
        <ele>566.8</ele>
        <time>2023-04-04T06:30:42.000Z</time>
      </trkpt>
      <trkpt lat="47.37062" lon="7.18489">
        <ele>569.8</ele>
        <time>2023-04-04T06:30:58.000Z</time>
      </trkpt>
      <trkpt lat="47.37061" lon="7.18499">
        <ele>572.4</ele>
        <time>2023-04-04T06:31:13.000Z</time>
      </trkpt>
      <trkpt lat="47.37057" lon="7.18509">
        <ele>575.4</ele>
        <time>2023-04-04T06:31:29.000Z</time>
      </trkpt>
      <trkpt lat="47.37056" lon="7.18524">
        <ele>578.4</ele>
        <time>2023-04-04T06:31:46.000Z</time>
      </trkpt>
      <trkpt lat="47.37061" lon="7.1854">
        <ele>581.4</ele>
        <time>2023-04-04T06:32:06.000Z</time>
      </trkpt>
      <trkpt lat="47.37058" lon="7.18552">
        <ele>584.8</ele>
        <time>2023-04-04T06:32:22.000Z</time>
      </trkpt>
      <trkpt lat="47.37055" lon="7.18565">
        <ele>587.8</ele>
        <time>2023-04-04T06:32:43.000Z</time>
      </trkpt>
      <trkpt lat="47.37063" lon="7.18583">
        <ele>590.8</ele>
        <time>2023-04-04T06:33:02.000Z</time>
      </trkpt>
      <trkpt lat="47.37075" lon="7.18592">
        <ele>594</ele>
        <time>2023-04-04T06:33:18.000Z</time>
      </trkpt>
      <trkpt lat="47.37089" lon="7.18587">
        <ele>597.6</ele>
        <time>2023-04-04T06:33:36.000Z</time>
      </trkpt>
      <trkpt lat="47.37097" lon="7.18575">
        <ele>600</ele>
        <time>2023-04-04T06:33:50.000Z</time>
      </trkpt>
      <trkpt lat="47.37106" lon="7.18567">
        <ele>603.2</ele>
        <time>2023-04-04T06:34:10.000Z</time>
      </trkpt>
      <trkpt lat="47.3711" lon="7.1857">
        <ele>606.2</ele>
        <time>2023-04-04T06:34:29.000Z</time>
      </trkpt>
      <trkpt lat="47.37109" lon="7.18579">
        <ele>609.2</ele>
        <time>2023-04-04T06:34:46.000Z</time>
      </trkpt>
      <trkpt lat="47.37109" lon="7.18592">
        <ele>612.4</ele>
        <time>2023-04-04T06:35:06.000Z</time>
      </trkpt>
      <trkpt lat="47.37108" lon="7.18605">
        <ele>615.4</ele>
        <time>2023-04-04T06:35:24.000Z</time>
      </trkpt>
      <trkpt lat="47.37107" lon="7.18613">
        <ele>618.4</ele>
        <time>2023-04-04T06:35:41.000Z</time>
      </trkpt>
      <trkpt lat="47.37106" lon="7.18636">
        <ele>622</ele>
        <time>2023-04-04T06:36:00.000Z</time>
      </trkpt>
      <trkpt lat="47.37109" lon="7.18655">
        <ele>625</ele>
        <time>2023-04-04T06:36:18.000Z</time>
      </trkpt>
      <trkpt lat="47.37115" lon="7.18668">
        <ele>628</ele>
        <time>2023-04-04T06:36:32.000Z</time>
      </trkpt>
      <trkpt lat="47.37125" lon="7.18671">
        <ele>630.2</ele>
        <time>2023-04-04T06:36:51.000Z</time>
      </trkpt>
      <trkpt lat="47.37138" lon="7.18673">
        <ele>633.6</ele>
        <time>2023-04-04T06:37:10.000Z</time>
      </trkpt>
      <trkpt lat="47.37148" lon="7.18675">
        <ele>636.6</ele>
        <time>2023-04-04T06:37:25.000Z</time>
      </trkpt>
      <trkpt lat="47.37157" lon="7.18673">
        <ele>639.8</ele>
        <time>2023-04-04T06:37:39.000Z</time>
      </trkpt>
      <trkpt lat="47.3717" lon="7.18677">
        <ele>642.6</ele>
        <time>2023-04-04T06:37:58.000Z</time>
      </trkpt>
      <trkpt lat="47.37182" lon="7.1868">
        <ele>645.2</ele>
        <time>2023-04-04T06:38:17.000Z</time>
      </trkpt>
      <trkpt lat="47.3719" lon="7.18681">
        <ele>648</ele>
        <time>2023-04-04T06:38:39.000Z</time>
      </trkpt>
      <trkpt lat="47.37194" lon="7.18676">
        <ele>648.2</ele>
        <time>2023-04-04T06:39:05.000Z</time>
      </trkpt>
      <trkpt lat="47.37205" lon="7.18683">
        <ele>648.8</ele>
        <time>2023-04-04T06:39:28.000Z</time>
      </trkpt>
      <trkpt lat="47.37212" lon="7.18686">
        <ele>648.6</ele>
        <time>2023-04-04T06:39:55.000Z</time>
      </trkpt>
      <trkpt lat="47.37215" lon="7.18688">
        <ele>650</ele>
        <time>2023-04-04T06:40:14.000Z</time>
      </trkpt>
      <trkpt lat="47.37227" lon="7.18721">
        <ele>650.6</ele>
        <time>2023-04-04T06:40:41.000Z</time>
      </trkpt>
      <trkpt lat="47.37228" lon="7.18733">
        <ele>652</ele>
        <time>2023-04-04T06:40:56.000Z</time>
      </trkpt>
      <trkpt lat="47.37231" lon="7.18735">
        <ele>651.8</ele>
        <time>2023-04-04T06:41:18.000Z</time>
      </trkpt>
      <trkpt lat="47.37226" lon="7.18739">
        <ele>652.6</ele>
        <time>2023-04-04T06:41:26.000Z</time>
      </trkpt>
      <trkpt lat="47.3723" lon="7.18766">
        <ele>656.2</ele>
        <time>2023-04-04T06:41:52.000Z</time>
      </trkpt>
      <trkpt lat="47.37231" lon="7.18782">
        <ele>658</ele>
        <time>2023-04-04T06:42:09.000Z</time>
      </trkpt>
      <trkpt lat="47.37225" lon="7.18785">
        <ele>660</ele>
        <time>2023-04-04T06:42:31.000Z</time>
      </trkpt>
      <trkpt lat="47.37221" lon="7.18798">
        <ele>660.8</ele>
        <time>2023-04-04T06:42:45.000Z</time>
      </trkpt>
      <trkpt lat="47.37221" lon="7.18802">
        <ele>661.2</ele>
        <time>2023-04-04T06:42:48.000Z</time>
      </trkpt>
      <trkpt lat="47.37221" lon="7.18817">
        <ele>664</ele>
        <time>2023-04-04T06:43:05.000Z</time>
      </trkpt>
      <trkpt lat="47.37221" lon="7.18817">
        <ele>664.6</ele>
        <time>2023-04-04T06:43:26.000Z</time>
      </trkpt>
      <trkpt lat="47.37223" lon="7.18818">
        <ele>664.4</ele>
        <time>2023-04-04T06:43:55.000Z</time>
      </trkpt>
      <trkpt lat="47.37224" lon="7.1882">
        <ele>664.4</ele>
        <time>2023-04-04T06:43:57.000Z</time>
      </trkpt>
      <trkpt lat="47.37223" lon="7.1884">
        <ele>667.4</ele>
        <time>2023-04-04T06:44:12.000Z</time>
      </trkpt>
      <trkpt lat="47.37226" lon="7.18863">
        <ele>670.6</ele>
        <time>2023-04-04T06:44:30.000Z</time>
      </trkpt>
      <trkpt lat="47.37227" lon="7.1887">
        <ele>671.4</ele>
        <time>2023-04-04T06:44:36.000Z</time>
      </trkpt>
      <trkpt lat="47.37228" lon="7.18871">
        <ele>671.6</ele>
        <time>2023-04-04T06:44:37.000Z</time>
      </trkpt>
      <trkpt lat="47.37228" lon="7.18873">
        <ele>671.6</ele>
        <time>2023-04-04T06:44:38.000Z</time>
      </trkpt>
      <trkpt lat="47.37233" lon="7.18894">
        <ele>674.2</ele>
        <time>2023-04-04T06:44:54.000Z</time>
      </trkpt>
      <trkpt lat="47.37236" lon="7.18904">
        <ele>675.6</ele>
        <time>2023-04-04T06:45:02.000Z</time>
      </trkpt>
      <trkpt lat="47.37239" lon="7.18918">
        <ele>678</ele>
        <time>2023-04-04T06:45:14.000Z</time>
      </trkpt>
      <trkpt lat="47.37243" lon="7.18932">
        <ele>681.2</ele>
        <time>2023-04-04T06:45:30.000Z</time>
      </trkpt>
      <trkpt lat="47.37252" lon="7.18945">
        <ele>683.2</ele>
        <time>2023-04-04T06:45:49.000Z</time>
      </trkpt>
      <trkpt lat="47.37262" lon="7.18964">
        <ele>686.2</ele>
        <time>2023-04-04T06:46:08.000Z</time>
      </trkpt>
      <trkpt lat="47.3727" lon="7.18984">
        <ele>689.4</ele>
        <time>2023-04-04T06:46:24.000Z</time>
      </trkpt>
      <trkpt lat="47.37275" lon="7.19003">
        <ele>692.4</ele>
        <time>2023-04-04T06:46:41.000Z</time>
      </trkpt>
      <trkpt lat="47.37279" lon="7.19018">
        <ele>695.6</ele>
        <time>2023-04-04T06:46:58.000Z</time>
      </trkpt>
      <trkpt lat="47.37286" lon="7.19039">
        <ele>698.8</ele>
        <time>2023-04-04T06:47:17.000Z</time>
      </trkpt>
      <trkpt lat="47.37293" lon="7.19056">
        <ele>701.8</ele>
        <time>2023-04-04T06:47:30.000Z</time>
      </trkpt>
      <trkpt lat="47.37299" lon="7.19074">
        <ele>704</ele>
        <time>2023-04-04T06:47:47.000Z</time>
      </trkpt>
      <trkpt lat="47.37306" lon="7.19093">
        <ele>707.2</ele>
        <time>2023-04-04T06:48:04.000Z</time>
      </trkpt>
      <trkpt lat="47.3731" lon="7.19117">
        <ele>710.2</ele>
        <time>2023-04-04T06:48:24.000Z</time>
      </trkpt>
      <trkpt lat="47.37314" lon="7.19136">
        <ele>713.2</ele>
        <time>2023-04-04T06:48:42.000Z</time>
      </trkpt>
      <trkpt lat="47.37316" lon="7.19163">
        <ele>716.2</ele>
        <time>2023-04-04T06:49:03.000Z</time>
      </trkpt>
      <trkpt lat="47.37316" lon="7.19175">
        <ele>717.2</ele>
        <time>2023-04-04T06:49:12.000Z</time>
      </trkpt>
      <trkpt lat="47.3732" lon="7.19195">
        <ele>720</ele>
        <time>2023-04-04T06:49:28.000Z</time>
      </trkpt>
      <trkpt lat="47.37323" lon="7.19216">
        <ele>723.4</ele>
        <time>2023-04-04T06:49:45.000Z</time>
      </trkpt>
      <trkpt lat="47.37327" lon="7.19236">
        <ele>726.4</ele>
        <time>2023-04-04T06:50:03.000Z</time>
      </trkpt>
      <trkpt lat="47.37332" lon="7.19257">
        <ele>729</ele>
        <time>2023-04-04T06:50:20.000Z</time>
      </trkpt>
      <trkpt lat="47.37333" lon="7.19259">
        <ele>729</ele>
        <time>2023-04-04T06:50:21.000Z</time>
      </trkpt>
      <trkpt lat="47.37337" lon="7.19277">
        <ele>732.2</ele>
        <time>2023-04-04T06:50:37.000Z</time>
      </trkpt>
      <trkpt lat="47.37346" lon="7.193">
        <ele>734.4</ele>
        <time>2023-04-04T06:50:55.000Z</time>
      </trkpt>
      <trkpt lat="47.37356" lon="7.19318">
        <ele>736.4</ele>
        <time>2023-04-04T06:51:10.000Z</time>
      </trkpt>
      <trkpt lat="47.37357" lon="7.19319">
        <ele>736.6</ele>
        <time>2023-04-04T06:51:11.000Z</time>
      </trkpt>
      <trkpt lat="47.37358" lon="7.19321">
        <ele>736.6</ele>
        <time>2023-04-04T06:51:12.000Z</time>
      </trkpt>
      <trkpt lat="47.37359" lon="7.19322">
        <ele>736.6</ele>
        <time>2023-04-04T06:51:13.000Z</time>
      </trkpt>
      <trkpt lat="47.3736" lon="7.19323">
        <ele>736.8</ele>
        <time>2023-04-04T06:51:14.000Z</time>
      </trkpt>
      <trkpt lat="47.3736" lon="7.19325">
        <ele>737</ele>
        <time>2023-04-04T06:51:15.000Z</time>
      </trkpt>
      <trkpt lat="47.37371" lon="7.19343">
        <ele>737.8</ele>
        <time>2023-04-04T06:51:28.000Z</time>
      </trkpt>
      <trkpt lat="47.37382" lon="7.19365">
        <ele>738</ele>
        <time>2023-04-04T06:51:44.000Z</time>
      </trkpt>
      <trkpt lat="47.37392" lon="7.19386">
        <ele>740.8</ele>
        <time>2023-04-04T06:52:01.000Z</time>
      </trkpt>
      <trkpt lat="47.37395" lon="7.19393">
        <ele>741.4</ele>
        <time>2023-04-04T06:52:07.000Z</time>
      </trkpt>
      <trkpt lat="47.374" lon="7.19401">
        <ele>742.2</ele>
        <time>2023-04-04T06:52:14.000Z</time>
      </trkpt>
      <trkpt lat="47.37404" lon="7.19411">
        <ele>743</ele>
        <time>2023-04-04T06:52:21.000Z</time>
      </trkpt>
      <trkpt lat="47.37407" lon="7.19419">
        <ele>744.6</ele>
        <time>2023-04-04T06:52:28.000Z</time>
      </trkpt>
      <trkpt lat="47.37407" lon="7.19421">
        <ele>744.6</ele>
        <time>2023-04-04T06:52:29.000Z</time>
      </trkpt>
      <trkpt lat="47.37412" lon="7.19436">
        <ele>746</ele>
        <time>2023-04-04T06:52:43.000Z</time>
      </trkpt>
      <trkpt lat="47.37414" lon="7.19438">
        <ele>746.4</ele>
        <time>2023-04-04T06:52:50.000Z</time>
      </trkpt>
      <trkpt lat="47.37416" lon="7.19448">
        <ele>746.4</ele>
        <time>2023-04-04T06:52:58.000Z</time>
      </trkpt>
      <trkpt lat="47.37416" lon="7.1945">
        <ele>746.4</ele>
        <time>2023-04-04T06:52:59.000Z</time>
      </trkpt>
      <trkpt lat="47.3742" lon="7.19465">
        <ele>748.6</ele>
        <time>2023-04-04T06:53:13.000Z</time>
      </trkpt>
      <trkpt lat="47.37427" lon="7.19478">
        <ele>750.2</ele>
        <time>2023-04-04T06:53:30.000Z</time>
      </trkpt>
      <trkpt lat="47.37443" lon="7.19492">
        <ele>751.8</ele>
        <time>2023-04-04T06:53:49.000Z</time>
      </trkpt>
      <trkpt lat="47.37447" lon="7.19488">
        <ele>752</ele>
        <time>2023-04-04T06:54:12.000Z</time>
      </trkpt>
      <trkpt lat="47.3745" lon="7.19491">
        <ele>752.4</ele>
        <time>2023-04-04T06:54:16.000Z</time>
      </trkpt>
      <trkpt lat="47.37451" lon="7.19493">
        <ele>752.8</ele>
        <time>2023-04-04T06:54:18.000Z</time>
      </trkpt>
      <trkpt lat="47.37452" lon="7.19494">
        <ele>753</ele>
        <time>2023-04-04T06:54:19.000Z</time>
      </trkpt>
      <trkpt lat="47.3746" lon="7.19508">
        <ele>754.8</ele>
        <time>2023-04-04T06:54:35.000Z</time>
      </trkpt>
      <trkpt lat="47.37465" lon="7.19511">
        <ele>755.8</ele>
        <time>2023-04-04T06:54:40.000Z</time>
      </trkpt>
      <trkpt lat="47.37466" lon="7.19513">
        <ele>755.8</ele>
        <time>2023-04-04T06:54:42.000Z</time>
      </trkpt>
      <trkpt lat="47.37467" lon="7.19515">
        <ele>756</ele>
        <time>2023-04-04T06:54:43.000Z</time>
      </trkpt>
      <trkpt lat="47.37468" lon="7.19517">
        <ele>756</ele>
        <time>2023-04-04T06:54:44.000Z</time>
      </trkpt>
      <trkpt lat="47.37476" lon="7.19539">
        <ele>755.4</ele>
        <time>2023-04-04T06:55:00.000Z</time>
      </trkpt>
      <trkpt lat="47.37485" lon="7.19562">
        <ele>756.4</ele>
        <time>2023-04-04T06:55:15.000Z</time>
      </trkpt>
      <trkpt lat="47.37495" lon="7.19581">
        <ele>757.8</ele>
        <time>2023-04-04T06:55:30.000Z</time>
      </trkpt>
      <trkpt lat="47.37504" lon="7.19602">
        <ele>759.6</ele>
        <time>2023-04-04T06:55:45.000Z</time>
      </trkpt>
      <trkpt lat="47.37515" lon="7.19628">
        <ele>762.6</ele>
        <time>2023-04-04T06:56:05.000Z</time>
      </trkpt>
      <trkpt lat="47.37516" lon="7.19635">
        <ele>763.6</ele>
        <time>2023-04-04T06:56:14.000Z</time>
      </trkpt>
      <trkpt lat="47.3752" lon="7.19644">
        <ele>764.8</ele>
        <time>2023-04-04T06:56:22.000Z</time>
      </trkpt>
      <trkpt lat="47.37526" lon="7.19657">
        <ele>767.2</ele>
        <time>2023-04-04T06:56:41.000Z</time>
      </trkpt>
      <trkpt lat="47.37528" lon="7.1966">
        <ele>767</ele>
        <time>2023-04-04T06:56:55.000Z</time>
      </trkpt>
      <trkpt lat="47.3753" lon="7.19662">
        <ele>766.6</ele>
        <time>2023-04-04T06:56:57.000Z</time>
      </trkpt>
      <trkpt lat="47.37536" lon="7.19683">
        <ele>769.8</ele>
        <time>2023-04-04T06:57:13.000Z</time>
      </trkpt>
      <trkpt lat="47.37545" lon="7.19704">
        <ele>772.8</ele>
        <time>2023-04-04T06:57:29.000Z</time>
      </trkpt>
      <trkpt lat="47.37554" lon="7.19727">
        <ele>775.8</ele>
        <time>2023-04-04T06:57:46.000Z</time>
      </trkpt>
      <trkpt lat="47.37561" lon="7.19753">
        <ele>778.6</ele>
        <time>2023-04-04T06:58:05.000Z</time>
      </trkpt>
      <trkpt lat="47.37567" lon="7.19777">
        <ele>781</ele>
        <time>2023-04-04T06:58:23.000Z</time>
      </trkpt>
      <trkpt lat="47.37569" lon="7.19791">
        <ele>782.8</ele>
        <time>2023-04-04T06:58:38.000Z</time>
      </trkpt>
      <trkpt lat="47.37571" lon="7.19796">
        <ele>783</ele>
        <time>2023-04-04T06:58:49.000Z</time>
      </trkpt>
      <trkpt lat="47.37572" lon="7.19798">
        <ele>783</ele>
        <time>2023-04-04T06:58:50.000Z</time>
      </trkpt>
      <trkpt lat="47.37572" lon="7.19799">
        <ele>783</ele>
        <time>2023-04-04T06:58:51.000Z</time>
      </trkpt>
      <trkpt lat="47.37577" lon="7.19824">
        <ele>783.8</ele>
        <time>2023-04-04T06:59:07.000Z</time>
      </trkpt>
      <trkpt lat="47.37579" lon="7.19829">
        <ele>784.8</ele>
        <time>2023-04-04T06:59:11.000Z</time>
      </trkpt>
      <trkpt lat="47.37579" lon="7.19831">
        <ele>785</ele>
        <time>2023-04-04T06:59:12.000Z</time>
      </trkpt>
      <trkpt lat="47.37582" lon="7.19855">
        <ele>788</ele>
        <time>2023-04-04T06:59:28.000Z</time>
      </trkpt>
      <trkpt lat="47.37583" lon="7.19861">
        <ele>788</ele>
        <time>2023-04-04T06:59:32.000Z</time>
      </trkpt>
      <trkpt lat="47.37583" lon="7.19863">
        <ele>788.2</ele>
        <time>2023-04-04T06:59:33.000Z</time>
      </trkpt>
      <trkpt lat="47.37583" lon="7.19869">
        <ele>789.8</ele>
        <time>2023-04-04T06:59:37.000Z</time>
      </trkpt>
      <trkpt lat="47.37583" lon="7.19878">
        <ele>789.8</ele>
        <time>2023-04-04T06:59:42.000Z</time>
      </trkpt>
      <trkpt lat="47.37583" lon="7.19879">
        <ele>789.8</ele>
        <time>2023-04-04T06:59:43.000Z</time>
      </trkpt>
      <trkpt lat="47.37583" lon="7.19881">
        <ele>790</ele>
        <time>2023-04-04T06:59:44.000Z</time>
      </trkpt>
      <trkpt lat="47.37584" lon="7.1991">
        <ele>792.2</ele>
        <time>2023-04-04T07:00:03.000Z</time>
      </trkpt>
      <trkpt lat="47.37586" lon="7.19938">
        <ele>794.6</ele>
        <time>2023-04-04T07:00:21.000Z</time>
      </trkpt>
      <trkpt lat="47.37588" lon="7.19964">
        <ele>797.6</ele>
        <time>2023-04-04T07:00:38.000Z</time>
      </trkpt>
      <trkpt lat="47.37587" lon="7.19992">
        <ele>800.6</ele>
        <time>2023-04-04T07:00:57.000Z</time>
      </trkpt>
      <trkpt lat="47.37588" lon="7.20021">
        <ele>803.2</ele>
        <time>2023-04-04T07:01:15.000Z</time>
      </trkpt>
      <trkpt lat="47.37589" lon="7.2005">
        <ele>805.4</ele>
        <time>2023-04-04T07:01:34.000Z</time>
      </trkpt>
      <trkpt lat="47.37591" lon="7.20062">
        <ele>806.2</ele>
        <time>2023-04-04T07:01:43.000Z</time>
      </trkpt>
      <trkpt lat="47.37592" lon="7.20064">
        <ele>806.2</ele>
        <time>2023-04-04T07:01:44.000Z</time>
      </trkpt>
      <trkpt lat="47.37594" lon="7.20094">
        <ele>808.6</ele>
        <time>2023-04-04T07:02:02.000Z</time>
      </trkpt>
      <trkpt lat="47.37596" lon="7.2012">
        <ele>811.2</ele>
        <time>2023-04-04T07:02:20.000Z</time>
      </trkpt>
      <trkpt lat="47.37596" lon="7.20123">
        <ele>811.4</ele>
        <time>2023-04-04T07:02:22.000Z</time>
      </trkpt>
      <trkpt lat="47.37594" lon="7.20141">
        <ele>814.4</ele>
        <time>2023-04-04T07:02:39.000Z</time>
      </trkpt>
      <trkpt lat="47.37597" lon="7.20152">
        <ele>815</ele>
        <time>2023-04-04T07:02:54.000Z</time>
      </trkpt>
      <trkpt lat="47.37597" lon="7.20155">
        <ele>815</ele>
        <time>2023-04-04T07:02:56.000Z</time>
      </trkpt>
      <trkpt lat="47.37597" lon="7.20157">
        <ele>815</ele>
        <time>2023-04-04T07:02:57.000Z</time>
      </trkpt>
      <trkpt lat="47.37598" lon="7.20177">
        <ele>817.2</ele>
        <time>2023-04-04T07:03:15.000Z</time>
      </trkpt>
      <trkpt lat="47.37603" lon="7.202">
        <ele>819.4</ele>
        <time>2023-04-04T07:03:32.000Z</time>
      </trkpt>
      <trkpt lat="47.37607" lon="7.20227">
        <ele>819.8</ele>
        <time>2023-04-04T07:03:48.000Z</time>
      </trkpt>
      <trkpt lat="47.37613" lon="7.20257">
        <ele>818.8</ele>
        <time>2023-04-04T07:04:03.000Z</time>
      </trkpt>
      <trkpt lat="47.37613" lon="7.20261">
        <ele>818.4</ele>
        <time>2023-04-04T07:04:06.000Z</time>
      </trkpt>
      <trkpt lat="47.37618" lon="7.20275">
        <ele>819.4</ele>
        <time>2023-04-04T07:04:21.000Z</time>
      </trkpt>
      <trkpt lat="47.37618" lon="7.20277">
        <ele>820</ele>
        <time>2023-04-04T07:04:43.000Z</time>
      </trkpt>
      <trkpt lat="47.3762" lon="7.20277">
        <ele>820</ele>
        <time>2023-04-04T07:05:10.000Z</time>
      </trkpt>
      <trkpt lat="47.37622" lon="7.2028">
        <ele>819.6</ele>
        <time>2023-04-04T07:05:23.000Z</time>
      </trkpt>
      <trkpt lat="47.37625" lon="7.20284">
        <ele>819.6</ele>
        <time>2023-04-04T07:05:26.000Z</time>
      </trkpt>
      <trkpt lat="47.37625" lon="7.20285">
        <ele>819.6</ele>
        <time>2023-04-04T07:05:27.000Z</time>
      </trkpt>
      <trkpt lat="47.37625" lon="7.20287">
        <ele>819.8</ele>
        <time>2023-04-04T07:05:28.000Z</time>
      </trkpt>
      <trkpt lat="47.37635" lon="7.20314">
        <ele>821.6</ele>
        <time>2023-04-04T07:05:46.000Z</time>
      </trkpt>
      <trkpt lat="47.37642" lon="7.20344">
        <ele>822.4</ele>
        <time>2023-04-04T07:06:04.000Z</time>
      </trkpt>
      <trkpt lat="47.37649" lon="7.20371">
        <ele>823.6</ele>
        <time>2023-04-04T07:06:21.000Z</time>
      </trkpt>
      <trkpt lat="47.37658" lon="7.20396">
        <ele>825.4</ele>
        <time>2023-04-04T07:06:39.000Z</time>
      </trkpt>
      <trkpt lat="47.37668" lon="7.20418">
        <ele>828.2</ele>
        <time>2023-04-04T07:06:55.000Z</time>
      </trkpt>
      <trkpt lat="47.37679" lon="7.20439">
        <ele>831</ele>
        <time>2023-04-04T07:07:11.000Z</time>
      </trkpt>
      <trkpt lat="47.37686" lon="7.20461">
        <ele>834.2</ele>
        <time>2023-04-04T07:07:27.000Z</time>
      </trkpt>
      <trkpt lat="47.37692" lon="7.20482">
        <ele>837</ele>
        <time>2023-04-04T07:07:44.000Z</time>
      </trkpt>
      <trkpt lat="47.37701" lon="7.20507">
        <ele>840.2</ele>
        <time>2023-04-04T07:08:01.000Z</time>
      </trkpt>
      <trkpt lat="47.37709" lon="7.20534">
        <ele>843.2</ele>
        <time>2023-04-04T07:08:20.000Z</time>
      </trkpt>
      <trkpt lat="47.37712" lon="7.20538">
        <ele>843.6</ele>
        <time>2023-04-04T07:08:24.000Z</time>
      </trkpt>
      <trkpt lat="47.37712" lon="7.20539">
        <ele>843.8</ele>
        <time>2023-04-04T07:08:25.000Z</time>
      </trkpt>
      <trkpt lat="47.37723" lon="7.20568">
        <ele>846.4</ele>
        <time>2023-04-04T07:08:44.000Z</time>
      </trkpt>
      <trkpt lat="47.37731" lon="7.20597">
        <ele>849.4</ele>
        <time>2023-04-04T07:09:04.000Z</time>
      </trkpt>
      <trkpt lat="47.3774" lon="7.20627">
        <ele>851.6</ele>
        <time>2023-04-04T07:09:24.000Z</time>
      </trkpt>
      <trkpt lat="47.37749" lon="7.2066">
        <ele>854.6</ele>
        <time>2023-04-04T07:09:45.000Z</time>
      </trkpt>
      <trkpt lat="47.37759" lon="7.20691">
        <ele>857.4</ele>
        <time>2023-04-04T07:10:06.000Z</time>
      </trkpt>
      <trkpt lat="47.3777" lon="7.20719">
        <ele>859.2</ele>
        <time>2023-04-04T07:10:23.000Z</time>
      </trkpt>
      <trkpt lat="47.37781" lon="7.20752">
        <ele>861</ele>
        <time>2023-04-04T07:10:44.000Z</time>
      </trkpt>
      <trkpt lat="47.37792" lon="7.20787">
        <ele>862.4</ele>
        <time>2023-04-04T07:11:04.000Z</time>
      </trkpt>
      <trkpt lat="47.37803" lon="7.20821">
        <ele>863.6</ele>
        <time>2023-04-04T07:11:25.000Z</time>
      </trkpt>
      <trkpt lat="47.37815" lon="7.20851">
        <ele>864.6</ele>
        <time>2023-04-04T07:11:43.000Z</time>
      </trkpt>
      <trkpt lat="47.37823" lon="7.20894">
        <ele>864.4</ele>
        <time>2023-04-04T07:12:06.000Z</time>
      </trkpt>
      <trkpt lat="47.37827" lon="7.20931">
        <ele>863.4</ele>
        <time>2023-04-04T07:12:25.000Z</time>
      </trkpt>
      <trkpt lat="47.37834" lon="7.20972">
        <ele>861.4</ele>
        <time>2023-04-04T07:12:46.000Z</time>
      </trkpt>
      <trkpt lat="47.37838" lon="7.21013">
        <ele>860.8</ele>
        <time>2023-04-04T07:13:07.000Z</time>
      </trkpt>
      <trkpt lat="47.37838" lon="7.21018">
        <ele>860.4</ele>
        <time>2023-04-04T07:13:12.000Z</time>
      </trkpt>
      <trkpt lat="47.37838" lon="7.2102">
        <ele>859.8</ele>
        <time>2023-04-04T07:13:13.000Z</time>
      </trkpt>
      <trkpt lat="47.37838" lon="7.21022">
        <ele>859.4</ele>
        <time>2023-04-04T07:13:14.000Z</time>
      </trkpt>
      <trkpt lat="47.37838" lon="7.21024">
        <ele>859</ele>
        <time>2023-04-04T07:13:15.000Z</time>
      </trkpt>
      <trkpt lat="47.37838" lon="7.21026">
        <ele>858.6</ele>
        <time>2023-04-04T07:13:16.000Z</time>
      </trkpt>
      <trkpt lat="47.37829" lon="7.2106">
        <ele>859.6</ele>
        <time>2023-04-04T07:13:34.000Z</time>
      </trkpt>
      <trkpt lat="47.37815" lon="7.21087">
        <ele>858.6</ele>
        <time>2023-04-04T07:13:51.000Z</time>
      </trkpt>
      <trkpt lat="47.37813" lon="7.21121">
        <ele>857.2</ele>
        <time>2023-04-04T07:14:10.000Z</time>
      </trkpt>
      <trkpt lat="47.37814" lon="7.21126">
        <ele>857.2</ele>
        <time>2023-04-04T07:14:20.000Z</time>
      </trkpt>
      <trkpt lat="47.37814" lon="7.21127">
        <ele>856.8</ele>
        <time>2023-04-04T07:14:21.000Z</time>
      </trkpt>
      <trkpt lat="47.37814" lon="7.21129">
        <ele>856.8</ele>
        <time>2023-04-04T07:14:22.000Z</time>
      </trkpt>
      <trkpt lat="47.37815" lon="7.21131">
        <ele>856.6</ele>
        <time>2023-04-04T07:14:23.000Z</time>
      </trkpt>
      <trkpt lat="47.37815" lon="7.21133">
        <ele>856.6</ele>
        <time>2023-04-04T07:14:24.000Z</time>
      </trkpt>
      <trkpt lat="47.37815" lon="7.21135">
        <ele>856.4</ele>
        <time>2023-04-04T07:14:25.000Z</time>
      </trkpt>
      <trkpt lat="47.37824" lon="7.2115">
        <ele>856.4</ele>
        <time>2023-04-04T07:14:41.000Z</time>
      </trkpt>
      <trkpt lat="47.37827" lon="7.21149">
        <ele>856.2</ele>
        <time>2023-04-04T07:15:05.000Z</time>
      </trkpt>
      <trkpt lat="47.37833" lon="7.21151">
        <ele>856.6</ele>
        <time>2023-04-04T07:15:21.000Z</time>
      </trkpt>
      <trkpt lat="47.37834" lon="7.21152">
        <ele>856.6</ele>
        <time>2023-04-04T07:15:22.000Z</time>
      </trkpt>
      <trkpt lat="47.37835" lon="7.21152">
        <ele>856.8</ele>
        <time>2023-04-04T07:15:23.000Z</time>
      </trkpt>
      <trkpt lat="47.37835" lon="7.21152">
        <ele>856.8</ele>
        <time>2023-04-04T07:15:24.000Z</time>
      </trkpt>
      <trkpt lat="47.37836" lon="7.21151">
        <ele>856.8</ele>
        <time>2023-04-04T07:15:25.000Z</time>
      </trkpt>
      <trkpt lat="47.37837" lon="7.21151">
        <ele>856.8</ele>
        <time>2023-04-04T07:15:26.000Z</time>
      </trkpt>
      <trkpt lat="47.37838" lon="7.21151">
        <ele>856.8</ele>
        <time>2023-04-04T07:15:27.000Z</time>
      </trkpt>
      <trkpt lat="47.37855" lon="7.21155">
        <ele>857</ele>
        <time>2023-04-04T07:15:43.000Z</time>
      </trkpt>
      <trkpt lat="47.3788" lon="7.21147">
        <ele>856.8</ele>
        <time>2023-04-04T07:16:01.000Z</time>
      </trkpt>
      <trkpt lat="47.37883" lon="7.21146">
        <ele>856.8</ele>
        <time>2023-04-04T07:16:03.000Z</time>
      </trkpt>
      <trkpt lat="47.37884" lon="7.21145">
        <ele>856.8</ele>
        <time>2023-04-04T07:16:04.000Z</time>
      </trkpt>
      <trkpt lat="47.37886" lon="7.21144">
        <ele>856.8</ele>
        <time>2023-04-04T07:16:05.000Z</time>
      </trkpt>
      <trkpt lat="47.37917" lon="7.21126">
        <ele>857.6</ele>
        <time>2023-04-04T07:16:27.000Z</time>
      </trkpt>
      <trkpt lat="47.37944" lon="7.21117">
        <ele>856.8</ele>
        <time>2023-04-04T07:16:47.000Z</time>
      </trkpt>
      <trkpt lat="47.37967" lon="7.21109">
        <ele>856.8</ele>
        <time>2023-04-04T07:17:05.000Z</time>
      </trkpt>
      <trkpt lat="47.37991" lon="7.21106">
        <ele>856.6</ele>
        <time>2023-04-04T07:17:22.000Z</time>
      </trkpt>
      <trkpt lat="47.38006" lon="7.21117">
        <ele>855.8</ele>
        <time>2023-04-04T07:17:37.000Z</time>
      </trkpt>
      <trkpt lat="47.38007" lon="7.2112">
        <ele>856.6</ele>
        <time>2023-04-04T07:17:43.000Z</time>
      </trkpt>
      <trkpt lat="47.38008" lon="7.21122">
        <ele>856.2</ele>
        <time>2023-04-04T07:17:44.000Z</time>
      </trkpt>
      <trkpt lat="47.38009" lon="7.21123">
        <ele>856</ele>
        <time>2023-04-04T07:17:45.000Z</time>
      </trkpt>
      <trkpt lat="47.3801" lon="7.21124">
        <ele>856.2</ele>
        <time>2023-04-04T07:17:46.000Z</time>
      </trkpt>
      <trkpt lat="47.3801" lon="7.21125">
        <ele>856.2</ele>
        <time>2023-04-04T07:17:47.000Z</time>
      </trkpt>
      <trkpt lat="47.38011" lon="7.21127">
        <ele>856.4</ele>
        <time>2023-04-04T07:17:48.000Z</time>
      </trkpt>
      <trkpt lat="47.38021" lon="7.21165">
        <ele>856.6</ele>
        <time>2023-04-04T07:18:10.000Z</time>
      </trkpt>
      <trkpt lat="47.3803" lon="7.21199">
        <ele>857.6</ele>
        <time>2023-04-04T07:18:29.000Z</time>
      </trkpt>
      <trkpt lat="47.38046" lon="7.21226">
        <ele>859</ele>
        <time>2023-04-04T07:18:47.000Z</time>
      </trkpt>
      <trkpt lat="47.38067" lon="7.21253">
        <ele>861</ele>
        <time>2023-04-04T07:19:09.000Z</time>
      </trkpt>
      <trkpt lat="47.38079" lon="7.21282">
        <ele>863.2</ele>
        <time>2023-04-04T07:19:28.000Z</time>
      </trkpt>
      <trkpt lat="47.38092" lon="7.2131">
        <ele>866</ele>
        <time>2023-04-04T07:19:47.000Z</time>
      </trkpt>
      <trkpt lat="47.38105" lon="7.2134">
        <ele>868.4</ele>
        <time>2023-04-04T07:20:07.000Z</time>
      </trkpt>
      <trkpt lat="47.38115" lon="7.21368">
        <ele>870.6</ele>
        <time>2023-04-04T07:20:26.000Z</time>
      </trkpt>
      <trkpt lat="47.38126" lon="7.21391">
        <ele>873.8</ele>
        <time>2023-04-04T07:20:43.000Z</time>
      </trkpt>
      <trkpt lat="47.3814" lon="7.21416">
        <ele>876.2</ele>
        <time>2023-04-04T07:21:01.000Z</time>
      </trkpt>
      <trkpt lat="47.38153" lon="7.21444">
        <ele>878.4</ele>
        <time>2023-04-04T07:21:19.000Z</time>
      </trkpt>
      <trkpt lat="47.38164" lon="7.2148">
        <ele>878.6</ele>
        <time>2023-04-04T07:21:41.000Z</time>
      </trkpt>
      <trkpt lat="47.38166" lon="7.21482">
        <ele>878.6</ele>
        <time>2023-04-04T07:22:04.000Z</time>
      </trkpt>
      <trkpt lat="47.38167" lon="7.21486">
        <ele>878.6</ele>
        <time>2023-04-04T07:22:11.000Z</time>
      </trkpt>
      <trkpt lat="47.38168" lon="7.21487">
        <ele>878.6</ele>
        <time>2023-04-04T07:22:12.000Z</time>
      </trkpt>
      <trkpt lat="47.38168" lon="7.21489">
        <ele>878.4</ele>
        <time>2023-04-04T07:22:13.000Z</time>
      </trkpt>
      <trkpt lat="47.38179" lon="7.2153">
        <ele>877.6</ele>
        <time>2023-04-04T07:22:35.000Z</time>
      </trkpt>
      <trkpt lat="47.38191" lon="7.21566">
        <ele>877.8</ele>
        <time>2023-04-04T07:22:55.000Z</time>
      </trkpt>
      <trkpt lat="47.38206" lon="7.21597">
        <ele>879.8</ele>
        <time>2023-04-04T07:23:16.000Z</time>
      </trkpt>
      <trkpt lat="47.38217" lon="7.21625">
        <ele>882.8</ele>
        <time>2023-04-04T07:23:34.000Z</time>
      </trkpt>
      <trkpt lat="47.38232" lon="7.21666">
        <ele>884.6</ele>
        <time>2023-04-04T07:23:57.000Z</time>
      </trkpt>
      <trkpt lat="47.38242" lon="7.21706">
        <ele>885.4</ele>
        <time>2023-04-04T07:24:17.000Z</time>
      </trkpt>
      <trkpt lat="47.38252" lon="7.21743">
        <ele>886.2</ele>
        <time>2023-04-04T07:24:37.000Z</time>
      </trkpt>
      <trkpt lat="47.38259" lon="7.21785">
        <ele>884.8</ele>
        <time>2023-04-04T07:24:58.000Z</time>
      </trkpt>
      <trkpt lat="47.3827" lon="7.21823">
        <ele>883.2</ele>
        <time>2023-04-04T07:25:19.000Z</time>
      </trkpt>
      <trkpt lat="47.38287" lon="7.21853">
        <ele>880.2</ele>
        <time>2023-04-04T07:25:38.000Z</time>
      </trkpt>
      <trkpt lat="47.3829" lon="7.21855">
        <ele>880.2</ele>
        <time>2023-04-04T07:25:56.000Z</time>
      </trkpt>
      <trkpt lat="47.38293" lon="7.21856">
        <ele>879.2</ele>
        <time>2023-04-04T07:26:12.000Z</time>
      </trkpt>
      <trkpt lat="47.38294" lon="7.21857">
        <ele>879.2</ele>
        <time>2023-04-04T07:26:13.000Z</time>
      </trkpt>
      <trkpt lat="47.38295" lon="7.21858">
        <ele>879.2</ele>
        <time>2023-04-04T07:26:14.000Z</time>
      </trkpt>
      <trkpt lat="47.38317" lon="7.2189">
        <ele>877</ele>
        <time>2023-04-04T07:26:37.000Z</time>
      </trkpt>
      <trkpt lat="47.38325" lon="7.21905">
        <ele>877.2</ele>
        <time>2023-04-04T07:26:52.000Z</time>
      </trkpt>
      <trkpt lat="47.38328" lon="7.21907">
        <ele>877.2</ele>
        <time>2023-04-04T07:26:56.000Z</time>
      </trkpt>
      <trkpt lat="47.38329" lon="7.21909">
        <ele>877.2</ele>
        <time>2023-04-04T07:26:57.000Z</time>
      </trkpt>
      <trkpt lat="47.3833" lon="7.2191">
        <ele>877.2</ele>
        <time>2023-04-04T07:26:58.000Z</time>
      </trkpt>
      <trkpt lat="47.38346" lon="7.21935">
        <ele>876.8</ele>
        <time>2023-04-04T07:27:14.000Z</time>
      </trkpt>
      <trkpt lat="47.3836" lon="7.21959">
        <ele>875</ele>
        <time>2023-04-04T07:27:31.000Z</time>
      </trkpt>
      <trkpt lat="47.38372" lon="7.21986">
        <ele>874</ele>
        <time>2023-04-04T07:27:47.000Z</time>
      </trkpt>
      <trkpt lat="47.3839" lon="7.22001">
        <ele>874.6</ele>
        <time>2023-04-04T07:28:03.000Z</time>
      </trkpt>
      <trkpt lat="47.38393" lon="7.22003">
        <ele>874.8</ele>
        <time>2023-04-04T07:28:05.000Z</time>
      </trkpt>
      <trkpt lat="47.38394" lon="7.22003">
        <ele>874.8</ele>
        <time>2023-04-04T07:28:06.000Z</time>
      </trkpt>
      <trkpt lat="47.38395" lon="7.22003">
        <ele>875</ele>
        <time>2023-04-04T07:28:07.000Z</time>
      </trkpt>
      <trkpt lat="47.38397" lon="7.22003">
        <ele>875</ele>
        <time>2023-04-04T07:28:08.000Z</time>
      </trkpt>
      <trkpt lat="47.38398" lon="7.22003">
        <ele>875</ele>
        <time>2023-04-04T07:28:09.000Z</time>
      </trkpt>
      <trkpt lat="47.38405" lon="7.22007">
        <ele>875.4</ele>
        <time>2023-04-04T07:28:15.000Z</time>
      </trkpt>
      <trkpt lat="47.38408" lon="7.22008">
        <ele>876</ele>
        <time>2023-04-04T07:28:21.000Z</time>
      </trkpt>
      <trkpt lat="47.38413" lon="7.22">
        <ele>876</ele>
        <time>2023-04-04T07:28:25.000Z</time>
      </trkpt>
      <trkpt lat="47.38418" lon="7.21991">
        <ele>875.8</ele>
        <time>2023-04-04T07:28:30.000Z</time>
      </trkpt>
      <trkpt lat="47.3842" lon="7.21988">
        <ele>875.8</ele>
        <time>2023-04-04T07:28:32.000Z</time>
      </trkpt>
      <trkpt lat="47.38424" lon="7.21987">
        <ele>875.8</ele>
        <time>2023-04-04T07:28:34.000Z</time>
      </trkpt>
      <trkpt lat="47.38446" lon="7.21974">
        <ele>877.4</ele>
        <time>2023-04-04T07:28:53.000Z</time>
      </trkpt>
      <trkpt lat="47.38454" lon="7.21974">
        <ele>877.6</ele>
        <time>2023-04-04T07:29:07.000Z</time>
      </trkpt>
      <trkpt lat="47.38455" lon="7.21974">
        <ele>877.6</ele>
        <time>2023-04-04T07:29:08.000Z</time>
      </trkpt>
      <trkpt lat="47.38456" lon="7.21973">
        <ele>877.8</ele>
        <time>2023-04-04T07:29:09.000Z</time>
      </trkpt>
      <trkpt lat="47.38476" lon="7.2196">
        <ele>880</ele>
        <time>2023-04-04T07:29:27.000Z</time>
      </trkpt>
      <trkpt lat="47.38482" lon="7.21956">
        <ele>881</ele>
        <time>2023-04-04T07:29:33.000Z</time>
      </trkpt>
      <trkpt lat="47.38485" lon="7.21951">
        <ele>881.4</ele>
        <time>2023-04-04T07:29:37.000Z</time>
      </trkpt>
      <trkpt lat="47.3849" lon="7.21941">
        <ele>882.4</ele>
        <time>2023-04-04T07:29:48.000Z</time>
      </trkpt>
      <trkpt lat="47.3849" lon="7.21939">
        <ele>882.4</ele>
        <time>2023-04-04T07:29:49.000Z</time>
      </trkpt>
      <trkpt lat="47.38491" lon="7.21936">
        <ele>882.4</ele>
        <time>2023-04-04T07:29:50.000Z</time>
      </trkpt>
      <trkpt lat="47.38493" lon="7.21928">
        <ele>882.4</ele>
        <time>2023-04-04T07:29:55.000Z</time>
      </trkpt>
      <trkpt lat="47.38499" lon="7.21928">
        <ele>883</ele>
        <time>2023-04-04T07:30:06.000Z</time>
      </trkpt>
      <trkpt lat="47.38501" lon="7.2193">
        <ele>883.2</ele>
        <time>2023-04-04T07:30:15.000Z</time>
      </trkpt>
      <trkpt lat="47.38501" lon="7.21932">
        <ele>883.2</ele>
        <time>2023-04-04T07:30:16.000Z</time>
      </trkpt>
      <trkpt lat="47.38501" lon="7.21936">
        <ele>882.8</ele>
        <time>2023-04-04T07:30:20.000Z</time>
      </trkpt>
      <trkpt lat="47.38502" lon="7.2194">
        <ele>882.6</ele>
        <time>2023-04-04T07:30:26.000Z</time>
      </trkpt>
      <trkpt lat="47.38503" lon="7.21941">
        <ele>882.4</ele>
        <time>2023-04-04T07:30:27.000Z</time>
      </trkpt>
      <trkpt lat="47.38504" lon="7.21942">
        <ele>882.4</ele>
        <time>2023-04-04T07:30:28.000Z</time>
      </trkpt>
      <trkpt lat="47.38505" lon="7.21943">
        <ele>882.2</ele>
        <time>2023-04-04T07:30:29.000Z</time>
      </trkpt>
      <trkpt lat="47.38506" lon="7.21943">
        <ele>882.2</ele>
        <time>2023-04-04T07:30:30.000Z</time>
      </trkpt>
      <trkpt lat="47.38517" lon="7.21955">
        <ele>882.8</ele>
        <time>2023-04-04T07:30:46.000Z</time>
      </trkpt>
      <trkpt lat="47.38521" lon="7.21956">
        <ele>883.6</ele>
        <time>2023-04-04T07:31:00.000Z</time>
      </trkpt>
      <trkpt lat="47.38522" lon="7.21956">
        <ele>883.6</ele>
        <time>2023-04-04T07:31:01.000Z</time>
      </trkpt>
      <trkpt lat="47.38523" lon="7.21955">
        <ele>883.6</ele>
        <time>2023-04-04T07:31:02.000Z</time>
      </trkpt>
      <trkpt lat="47.38525" lon="7.21955">
        <ele>883.6</ele>
        <time>2023-04-04T07:31:03.000Z</time>
      </trkpt>
      <trkpt lat="47.38526" lon="7.21956">
        <ele>883.8</ele>
        <time>2023-04-04T07:31:04.000Z</time>
      </trkpt>
      <trkpt lat="47.3854" lon="7.21956">
        <ele>887.2</ele>
        <time>2023-04-04T07:31:19.000Z</time>
      </trkpt>
      <trkpt lat="47.38552" lon="7.21956">
        <ele>890.4</ele>
        <time>2023-04-04T07:31:33.000Z</time>
      </trkpt>
      <trkpt lat="47.38555" lon="7.21956">
        <ele>890.8</ele>
        <time>2023-04-04T07:31:35.000Z</time>
      </trkpt>
      <trkpt lat="47.38556" lon="7.21956">
        <ele>891</ele>
        <time>2023-04-04T07:31:36.000Z</time>
      </trkpt>
      <trkpt lat="47.38557" lon="7.21956">
        <ele>891.2</ele>
        <time>2023-04-04T07:31:37.000Z</time>
      </trkpt>
      <trkpt lat="47.3857" lon="7.21958">
        <ele>894.4</ele>
        <time>2023-04-04T07:31:50.000Z</time>
      </trkpt>
      <trkpt lat="47.38582" lon="7.21958">
        <ele>897.6</ele>
        <time>2023-04-04T07:32:03.000Z</time>
      </trkpt>
      <trkpt lat="47.38587" lon="7.21966">
        <ele>900.8</ele>
        <time>2023-04-04T07:32:18.000Z</time>
      </trkpt>
      <trkpt lat="47.38588" lon="7.21972">
        <ele>901.4</ele>
        <time>2023-04-04T07:32:30.000Z</time>
      </trkpt>
      <trkpt lat="47.38589" lon="7.21975">
        <ele>901.6</ele>
        <time>2023-04-04T07:32:32.000Z</time>
      </trkpt>
      <trkpt lat="47.3859" lon="7.21977">
        <ele>902</ele>
        <time>2023-04-04T07:32:33.000Z</time>
      </trkpt>
      <trkpt lat="47.3859" lon="7.21979">
        <ele>902</ele>
        <time>2023-04-04T07:32:34.000Z</time>
      </trkpt>
      <trkpt lat="47.3859" lon="7.21981">
        <ele>902.2</ele>
        <time>2023-04-04T07:32:35.000Z</time>
      </trkpt>
      <trkpt lat="47.38591" lon="7.21982">
        <ele>902.4</ele>
        <time>2023-04-04T07:32:36.000Z</time>
      </trkpt>
      <trkpt lat="47.38595" lon="7.22014">
        <ele>904.6</ele>
        <time>2023-04-04T07:32:54.000Z</time>
      </trkpt>
      <trkpt lat="47.38602" lon="7.22049">
        <ele>907.4</ele>
        <time>2023-04-04T07:33:16.000Z</time>
      </trkpt>
      <trkpt lat="47.38603" lon="7.22089">
        <ele>910.2</ele>
        <time>2023-04-04T07:33:38.000Z</time>
      </trkpt>
      <trkpt lat="47.38603" lon="7.22119">
        <ele>913.2</ele>
        <time>2023-04-04T07:33:57.000Z</time>
      </trkpt>
      <trkpt lat="47.38604" lon="7.22138">
        <ele>915.2</ele>
        <time>2023-04-04T07:34:09.000Z</time>
      </trkpt>
      <trkpt lat="47.38607" lon="7.22158">
        <ele>918.4</ele>
        <time>2023-04-04T07:34:23.000Z</time>
      </trkpt>
      <trkpt lat="47.38609" lon="7.22177">
        <ele>921.4</ele>
        <time>2023-04-04T07:34:35.000Z</time>
      </trkpt>
      <trkpt lat="47.38612" lon="7.22193">
        <ele>924.6</ele>
        <time>2023-04-04T07:34:46.000Z</time>
      </trkpt>
      <trkpt lat="47.38614" lon="7.22208">
        <ele>928</ele>
        <time>2023-04-04T07:34:57.000Z</time>
      </trkpt>
      <trkpt lat="47.38615" lon="7.22217">
        <ele>929.6</ele>
        <time>2023-04-04T07:35:03.000Z</time>
      </trkpt>
      <trkpt lat="47.38616" lon="7.22224">
        <ele>930.4</ele>
        <time>2023-04-04T07:35:07.000Z</time>
      </trkpt>
      <trkpt lat="47.38617" lon="7.22241">
        <ele>933.4</ele>
        <time>2023-04-04T07:35:19.000Z</time>
      </trkpt>
      <trkpt lat="47.38619" lon="7.22254">
        <ele>935.4</ele>
        <time>2023-04-04T07:35:27.000Z</time>
      </trkpt>
      <trkpt lat="47.38619" lon="7.22255">
        <ele>935.6</ele>
        <time>2023-04-04T07:35:28.000Z</time>
      </trkpt>
      <trkpt lat="47.38623" lon="7.22266">
        <ele>937.2</ele>
        <time>2023-04-04T07:35:35.000Z</time>
      </trkpt>
      <trkpt lat="47.38625" lon="7.22276">
        <ele>939.2</ele>
        <time>2023-04-04T07:35:49.000Z</time>
      </trkpt>
      <trkpt lat="47.3862" lon="7.22287">
        <ele>939</ele>
        <time>2023-04-04T07:35:57.000Z</time>
      </trkpt>
      <trkpt lat="47.3862" lon="7.22288">
        <ele>938.8</ele>
        <time>2023-04-04T07:35:58.000Z</time>
      </trkpt>
      <trkpt lat="47.38613" lon="7.22301">
        <ele>939</ele>
        <time>2023-04-04T07:36:11.000Z</time>
      </trkpt>
      <trkpt lat="47.38596" lon="7.22312">
        <ele>939.8</ele>
        <time>2023-04-04T07:36:31.000Z</time>
      </trkpt>
      <trkpt lat="47.38593" lon="7.22319">
        <ele>939.8</ele>
        <time>2023-04-04T07:36:36.000Z</time>
      </trkpt>
      <trkpt lat="47.38593" lon="7.22322">
        <ele>939.8</ele>
        <time>2023-04-04T07:36:38.000Z</time>
      </trkpt>
      <trkpt lat="47.38593" lon="7.22324">
        <ele>939.8</ele>
        <time>2023-04-04T07:36:39.000Z</time>
      </trkpt>
      <trkpt lat="47.38592" lon="7.22326">
        <ele>939.8</ele>
        <time>2023-04-04T07:36:40.000Z</time>
      </trkpt>
      <trkpt lat="47.38591" lon="7.22328">
        <ele>939.8</ele>
        <time>2023-04-04T07:36:41.000Z</time>
      </trkpt>
      <trkpt lat="47.38582" lon="7.2235">
        <ele>939.2</ele>
        <time>2023-04-04T07:36:56.000Z</time>
      </trkpt>
      <trkpt lat="47.38567" lon="7.2237">
        <ele>939.6</ele>
        <time>2023-04-04T07:37:15.000Z</time>
      </trkpt>
      <trkpt lat="47.38564" lon="7.22381">
        <ele>940.2</ele>
        <time>2023-04-04T07:37:30.000Z</time>
      </trkpt>
      <trkpt lat="47.38563" lon="7.22383">
        <ele>940.2</ele>
        <time>2023-04-04T07:37:31.000Z</time>
      </trkpt>
      <trkpt lat="47.38559" lon="7.22395">
        <ele>942</ele>
        <time>2023-04-04T07:37:49.000Z</time>
      </trkpt>
      <trkpt lat="47.38553" lon="7.22403">
        <ele>942</ele>
        <time>2023-04-04T07:37:55.000Z</time>
      </trkpt>
      <trkpt lat="47.38552" lon="7.22404">
        <ele>942</ele>
        <time>2023-04-04T07:37:56.000Z</time>
      </trkpt>
      <trkpt lat="47.38551" lon="7.2241">
        <ele>941.6</ele>
        <time>2023-04-04T07:38:15.000Z</time>
      </trkpt>
      <trkpt lat="47.38551" lon="7.22421">
        <ele>941.6</ele>
        <time>2023-04-04T07:38:45.000Z</time>
      </trkpt>
      <trkpt lat="47.3855" lon="7.22423">
        <ele>941.6</ele>
        <time>2023-04-04T07:38:46.000Z</time>
      </trkpt>
      <trkpt lat="47.38545" lon="7.22437">
        <ele>942</ele>
        <time>2023-04-04T07:39:03.000Z</time>
      </trkpt>
      <trkpt lat="47.38543" lon="7.22443">
        <ele>942.6</ele>
        <time>2023-04-04T07:39:06.000Z</time>
      </trkpt>
      <trkpt lat="47.38532" lon="7.22471">
        <ele>942.6</ele>
        <time>2023-04-04T07:39:22.000Z</time>
      </trkpt>
      <trkpt lat="47.38532" lon="7.22489">
        <ele>942.8</ele>
        <time>2023-04-04T07:39:40.000Z</time>
      </trkpt>
      <trkpt lat="47.38532" lon="7.22489">
        <ele>942.8</ele>
        <time>2023-04-04T07:40:09.000Z</time>
      </trkpt>
      <trkpt lat="47.38534" lon="7.22491">
        <ele>943</ele>
        <time>2023-04-04T07:40:39.000Z</time>
      </trkpt>
      <trkpt lat="47.38532" lon="7.22498">
        <ele>943.2</ele>
        <time>2023-04-04T07:41:07.000Z</time>
      </trkpt>
      <trkpt lat="47.38531" lon="7.22498">
        <ele>943</ele>
        <time>2023-04-04T07:41:08.000Z</time>
      </trkpt>
      <trkpt lat="47.38529" lon="7.22499">
        <ele>943</ele>
        <time>2023-04-04T07:41:09.000Z</time>
      </trkpt>
      <trkpt lat="47.38531" lon="7.22512">
        <ele>943.2</ele>
        <time>2023-04-04T07:41:25.000Z</time>
      </trkpt>
      <trkpt lat="47.38531" lon="7.22517">
        <ele>943.6</ele>
        <time>2023-04-04T07:41:31.000Z</time>
      </trkpt>
      <trkpt lat="47.38531" lon="7.22519">
        <ele>943.6</ele>
        <time>2023-04-04T07:41:32.000Z</time>
      </trkpt>
      <trkpt lat="47.38531" lon="7.22521">
        <ele>943.6</ele>
        <time>2023-04-04T07:41:33.000Z</time>
      </trkpt>
      <trkpt lat="47.38531" lon="7.22523">
        <ele>943.6</ele>
        <time>2023-04-04T07:41:34.000Z</time>
      </trkpt>
      <trkpt lat="47.38531" lon="7.22525">
        <ele>943.6</ele>
        <time>2023-04-04T07:41:35.000Z</time>
      </trkpt>
      <trkpt lat="47.38531" lon="7.22553">
        <ele>944.2</ele>
        <time>2023-04-04T07:41:55.000Z</time>
      </trkpt>
      <trkpt lat="47.38531" lon="7.2256">
        <ele>944</ele>
        <time>2023-04-04T07:42:05.000Z</time>
      </trkpt>
      <trkpt lat="47.3853" lon="7.2256">
        <ele>944</ele>
        <time>2023-04-04T07:42:06.000Z</time>
      </trkpt>
      <trkpt lat="47.3853" lon="7.22561">
        <ele>944</ele>
        <time>2023-04-04T07:42:07.000Z</time>
      </trkpt>
      <trkpt lat="47.3853" lon="7.22563">
        <ele>944</ele>
        <time>2023-04-04T07:42:08.000Z</time>
      </trkpt>
      <trkpt lat="47.3853" lon="7.22564">
        <ele>943.8</ele>
        <time>2023-04-04T07:42:09.000Z</time>
      </trkpt>
      <trkpt lat="47.3853" lon="7.22566">
        <ele>943.8</ele>
        <time>2023-04-04T07:42:10.000Z</time>
      </trkpt>
      <trkpt lat="47.3853" lon="7.22568">
        <ele>943.8</ele>
        <time>2023-04-04T07:42:11.000Z</time>
      </trkpt>
      <trkpt lat="47.3853" lon="7.2257">
        <ele>943.8</ele>
        <time>2023-04-04T07:42:12.000Z</time>
      </trkpt>
      <trkpt lat="47.38524" lon="7.22598">
        <ele>943</ele>
        <time>2023-04-04T07:42:30.000Z</time>
      </trkpt>
      <trkpt lat="47.38525" lon="7.22599">
        <ele>942.8</ele>
        <time>2023-04-04T07:43:00.000Z</time>
      </trkpt>
      <trkpt lat="47.38526" lon="7.22608">
        <ele>942.6</ele>
        <time>2023-04-04T07:43:16.000Z</time>
      </trkpt>
      <trkpt lat="47.38526" lon="7.2261">
        <ele>942.8</ele>
        <time>2023-04-04T07:43:17.000Z</time>
      </trkpt>
      <trkpt lat="47.38526" lon="7.22612">
        <ele>943</ele>
        <time>2023-04-04T07:43:18.000Z</time>
      </trkpt>
      <trkpt lat="47.38526" lon="7.22614">
        <ele>943</ele>
        <time>2023-04-04T07:43:19.000Z</time>
      </trkpt>
      <trkpt lat="47.38526" lon="7.22616">
        <ele>943.2</ele>
        <time>2023-04-04T07:43:20.000Z</time>
      </trkpt>
      <trkpt lat="47.38527" lon="7.22618">
        <ele>943.2</ele>
        <time>2023-04-04T07:43:21.000Z</time>
      </trkpt>
      <trkpt lat="47.38528" lon="7.22626">
        <ele>943.2</ele>
        <time>2023-04-04T07:43:25.000Z</time>
      </trkpt>
      <trkpt lat="47.38529" lon="7.22631">
        <ele>943.2</ele>
        <time>2023-04-04T07:43:28.000Z</time>
      </trkpt>
      <trkpt lat="47.38529" lon="7.22633">
        <ele>943</ele>
        <time>2023-04-04T07:43:29.000Z</time>
      </trkpt>
      <trkpt lat="47.38529" lon="7.22643">
        <ele>943.4</ele>
        <time>2023-04-04T07:43:35.000Z</time>
      </trkpt>
      <trkpt lat="47.38529" lon="7.22656">
        <ele>944.6</ele>
        <time>2023-04-04T07:43:44.000Z</time>
      </trkpt>
      <trkpt lat="47.38527" lon="7.22691">
        <ele>947</ele>
        <time>2023-04-04T07:44:05.000Z</time>
      </trkpt>
      <trkpt lat="47.38528" lon="7.22696">
        <ele>947.6</ele>
        <time>2023-04-04T07:44:09.000Z</time>
      </trkpt>
      <trkpt lat="47.38532" lon="7.22707">
        <ele>949.2</ele>
        <time>2023-04-04T07:44:17.000Z</time>
      </trkpt>
      <trkpt lat="47.38534" lon="7.2272">
        <ele>950.6</ele>
        <time>2023-04-04T07:44:26.000Z</time>
      </trkpt>
      <trkpt lat="47.38534" lon="7.22722">
        <ele>950.6</ele>
        <time>2023-04-04T07:44:27.000Z</time>
      </trkpt>
      <trkpt lat="47.38534" lon="7.22739">
        <ele>952.6</ele>
        <time>2023-04-04T07:44:42.000Z</time>
      </trkpt>
      <trkpt lat="47.38538" lon="7.22745">
        <ele>953.4</ele>
        <time>2023-04-04T07:45:11.000Z</time>
      </trkpt>
      <trkpt lat="47.38542" lon="7.22763">
        <ele>956.6</ele>
        <time>2023-04-04T07:45:29.000Z</time>
      </trkpt>
      <trkpt lat="47.38545" lon="7.2278">
        <ele>959.6</ele>
        <time>2023-04-04T07:45:44.000Z</time>
      </trkpt>
      <trkpt lat="47.38545" lon="7.22794">
        <ele>961.6</ele>
        <time>2023-04-04T07:45:54.000Z</time>
      </trkpt>
      <trkpt lat="47.38549" lon="7.22804">
        <ele>963.4</ele>
        <time>2023-04-04T07:46:04.000Z</time>
      </trkpt>
      <trkpt lat="47.38553" lon="7.22819">
        <ele>966.6</ele>
        <time>2023-04-04T07:46:18.000Z</time>
      </trkpt>
      <trkpt lat="47.38555" lon="7.22829">
        <ele>968.2</ele>
        <time>2023-04-04T07:46:27.000Z</time>
      </trkpt>
      <trkpt lat="47.38559" lon="7.22833">
        <ele>970.8</ele>
        <time>2023-04-04T07:46:41.000Z</time>
      </trkpt>
      <trkpt lat="47.38574" lon="7.22847">
        <ele>972.6</ele>
        <time>2023-04-04T07:47:01.000Z</time>
      </trkpt>
      <trkpt lat="47.38578" lon="7.22861">
        <ele>975.6</ele>
        <time>2023-04-04T07:47:18.000Z</time>
      </trkpt>
      <trkpt lat="47.38586" lon="7.22879">
        <ele>978.8</ele>
        <time>2023-04-04T07:47:34.000Z</time>
      </trkpt>
      <trkpt lat="47.38593" lon="7.22897">
        <ele>982</ele>
        <time>2023-04-04T07:47:52.000Z</time>
      </trkpt>
      <trkpt lat="47.38599" lon="7.22911">
        <ele>984</ele>
        <time>2023-04-04T07:48:07.000Z</time>
      </trkpt>
      <trkpt lat="47.38615" lon="7.22939">
        <ele>986.4</ele>
        <time>2023-04-04T07:48:31.000Z</time>
      </trkpt>
      <trkpt lat="47.38622" lon="7.22948">
        <ele>989.6</ele>
        <time>2023-04-04T07:48:47.000Z</time>
      </trkpt>
      <trkpt lat="47.38632" lon="7.22968">
        <ele>991.8</ele>
        <time>2023-04-04T07:49:05.000Z</time>
      </trkpt>
      <trkpt lat="47.38641" lon="7.22987">
        <ele>993.6</ele>
        <time>2023-04-04T07:49:25.000Z</time>
      </trkpt>
      <trkpt lat="47.38655" lon="7.23009">
        <ele>996</ele>
        <time>2023-04-04T07:49:44.000Z</time>
      </trkpt>
      <trkpt lat="47.38691" lon="7.23048">
        <ele>1000.2</ele>
        <time>2023-04-04T07:50:21.000Z</time>
      </trkpt>
      <trkpt lat="47.38704" lon="7.23057">
        <ele>1001.2</ele>
        <time>2023-04-04T07:50:37.000Z</time>
      </trkpt>
      <trkpt lat="47.3872" lon="7.23065">
        <ele>1003.2</ele>
        <time>2023-04-04T07:50:52.000Z</time>
      </trkpt>
      <trkpt lat="47.38737" lon="7.23076">
        <ele>1004.4</ele>
        <time>2023-04-04T07:51:08.000Z</time>
      </trkpt>
      <trkpt lat="47.38744" lon="7.2308">
        <ele>1007.2</ele>
        <time>2023-04-04T07:51:26.000Z</time>
      </trkpt>
      <trkpt lat="47.3874" lon="7.23081">
        <ele>1010.2</ele>
        <time>2023-04-04T07:51:40.000Z</time>
      </trkpt>
      <trkpt lat="47.38733" lon="7.23083">
        <ele>1013.4</ele>
        <time>2023-04-04T07:51:55.000Z</time>
      </trkpt>
      <trkpt lat="47.38726" lon="7.23083">
        <ele>1016.4</ele>
        <time>2023-04-04T07:52:13.000Z</time>
      </trkpt>
      <trkpt lat="47.3873" lon="7.23092">
        <ele>1019.4</ele>
        <time>2023-04-04T07:52:27.000Z</time>
      </trkpt>
      <trkpt lat="47.38735" lon="7.23113">
        <ele>1021.6</ele>
        <time>2023-04-04T07:52:41.000Z</time>
      </trkpt>
      <trkpt lat="47.3874" lon="7.23123">
        <ele>1023.2</ele>
        <time>2023-04-04T07:52:55.000Z</time>
      </trkpt>
      <trkpt lat="47.38749" lon="7.23132">
        <ele>1026.4</ele>
        <time>2023-04-04T07:53:08.000Z</time>
      </trkpt>
      <trkpt lat="47.38751" lon="7.23138">
        <ele>1027</ele>
        <time>2023-04-04T07:53:27.000Z</time>
      </trkpt>
      <trkpt lat="47.38754" lon="7.2314">
        <ele>1026.8</ele>
        <time>2023-04-04T07:53:30.000Z</time>
      </trkpt>
      <trkpt lat="47.38763" lon="7.23146">
        <ele>1027</ele>
        <time>2023-04-04T07:53:43.000Z</time>
      </trkpt>
      <trkpt lat="47.38764" lon="7.23146">
        <ele>1027</ele>
        <time>2023-04-04T07:53:44.000Z</time>
      </trkpt>
      <trkpt lat="47.38779" lon="7.23153">
        <ele>1027.6</ele>
        <time>2023-04-04T07:54:02.000Z</time>
      </trkpt>
      <trkpt lat="47.38784" lon="7.2315">
        <ele>1027.8</ele>
        <time>2023-04-04T07:54:29.000Z</time>
      </trkpt>
      <trkpt lat="47.38786" lon="7.23152">
        <ele>1027.6</ele>
        <time>2023-04-04T07:55:04.000Z</time>
      </trkpt>
      <trkpt lat="47.38782" lon="7.23153">
        <ele>1027.4</ele>
        <time>2023-04-04T07:55:31.000Z</time>
      </trkpt>
      <trkpt lat="47.3878" lon="7.23154">
        <ele>1027.4</ele>
        <time>2023-04-04T07:56:05.000Z</time>
      </trkpt>
      <trkpt lat="47.38781" lon="7.23152">
        <ele>1027.4</ele>
        <time>2023-04-04T07:56:39.000Z</time>
      </trkpt>
      <trkpt lat="47.38782" lon="7.23152">
        <ele>1027.4</ele>
        <time>2023-04-04T07:57:01.000Z</time>
      </trkpt>
      <trkpt lat="47.38786" lon="7.2315">
        <ele>1027.4</ele>
        <time>2023-04-04T07:57:28.000Z</time>
      </trkpt>
      <trkpt lat="47.38781" lon="7.23148">
        <ele>1027.4</ele>
        <time>2023-04-04T07:58:10.000Z</time>
      </trkpt>
      <trkpt lat="47.3878" lon="7.2315">
        <ele>1027.4</ele>
        <time>2023-04-04T07:58:38.000Z</time>
      </trkpt>
      <trkpt lat="47.3878" lon="7.23155">
        <ele>1027.4</ele>
        <time>2023-04-04T07:59:07.000Z</time>
      </trkpt>
      <trkpt lat="47.3878" lon="7.23153">
        <ele>1027.4</ele>
        <time>2023-04-04T07:59:43.000Z</time>
      </trkpt>
      <trkpt lat="47.38779" lon="7.23152">
        <ele>1027.4</ele>
        <time>2023-04-04T08:00:20.000Z</time>
      </trkpt>
      <trkpt lat="47.3878" lon="7.23155">
        <ele>1027.4</ele>
        <time>2023-04-04T08:00:51.000Z</time>
      </trkpt>
      <trkpt lat="47.38784" lon="7.23151">
        <ele>1027.4</ele>
        <time>2023-04-04T08:01:17.000Z</time>
      </trkpt>
      <trkpt lat="47.38781" lon="7.23141">
        <ele>1027.4</ele>
        <time>2023-04-04T08:01:51.000Z</time>
      </trkpt>
      <trkpt lat="47.38782" lon="7.23143">
        <ele>1027.4</ele>
        <time>2023-04-04T08:02:26.000Z</time>
      </trkpt>
      <trkpt lat="47.38809" lon="7.23179">
        <ele>1023.4</ele>
        <time>2023-04-04T08:03:50.000Z</time>
      </trkpt>
      <trkpt lat="47.38813" lon="7.23179">
        <ele>1023.8</ele>
        <time>2023-04-04T08:04:00.000Z</time>
      </trkpt>
      <trkpt lat="47.38814" lon="7.23178">
        <ele>1023.8</ele>
        <time>2023-04-04T08:04:01.000Z</time>
      </trkpt>
      <trkpt lat="47.38815" lon="7.23177">
        <ele>1023.6</ele>
        <time>2023-04-04T08:04:02.000Z</time>
      </trkpt>
      <trkpt lat="47.38817" lon="7.23177">
        <ele>1023.6</ele>
        <time>2023-04-04T08:04:03.000Z</time>
      </trkpt>
      <trkpt lat="47.38818" lon="7.23176">
        <ele>1023.6</ele>
        <time>2023-04-04T08:04:04.000Z</time>
      </trkpt>
      <trkpt lat="47.3884" lon="7.23166">
        <ele>1023.6</ele>
        <time>2023-04-04T08:04:22.000Z</time>
      </trkpt>
      <trkpt lat="47.38844" lon="7.23152">
        <ele>1023.6</ele>
        <time>2023-04-04T08:04:37.000Z</time>
      </trkpt>
      <trkpt lat="47.38847" lon="7.2315">
        <ele>1022.8</ele>
        <time>2023-04-04T08:04:46.000Z</time>
      </trkpt>
      <trkpt lat="47.38852" lon="7.23145">
        <ele>1023</ele>
        <time>2023-04-04T08:05:00.000Z</time>
      </trkpt>
      <trkpt lat="47.38854" lon="7.23143">
        <ele>1022.8</ele>
        <time>2023-04-04T08:05:18.000Z</time>
      </trkpt>
      <trkpt lat="47.38854" lon="7.23143">
        <ele>1023</ele>
        <time>2023-04-04T08:05:29.000Z</time>
      </trkpt>
      <trkpt lat="47.38855" lon="7.23142">
        <ele>1023.2</ele>
        <time>2023-04-04T08:05:30.000Z</time>
      </trkpt>
      <trkpt lat="47.38856" lon="7.23141">
        <ele>1023.2</ele>
        <time>2023-04-04T08:05:31.000Z</time>
      </trkpt>
      <trkpt lat="47.38877" lon="7.23111">
        <ele>1022.2</ele>
        <time>2023-04-04T08:05:51.000Z</time>
      </trkpt>
      <trkpt lat="47.38894" lon="7.2309">
        <ele>1020.4</ele>
        <time>2023-04-04T08:06:08.000Z</time>
      </trkpt>
      <trkpt lat="47.38904" lon="7.23082">
        <ele>1017.2</ele>
        <time>2023-04-04T08:06:18.000Z</time>
      </trkpt>
      <trkpt lat="47.38914" lon="7.23077">
        <ele>1015.4</ele>
        <time>2023-04-04T08:06:27.000Z</time>
      </trkpt>
      <trkpt lat="47.38916" lon="7.23077">
        <ele>1015.2</ele>
        <time>2023-04-04T08:06:28.000Z</time>
      </trkpt>
      <trkpt lat="47.38931" lon="7.23073">
        <ele>1012</ele>
        <time>2023-04-04T08:06:40.000Z</time>
      </trkpt>
      <trkpt lat="47.38939" lon="7.23068">
        <ele>1008.8</ele>
        <time>2023-04-04T08:06:49.000Z</time>
      </trkpt>
      <trkpt lat="47.38945" lon="7.23071">
        <ele>1006.2</ele>
        <time>2023-04-04T08:06:55.000Z</time>
      </trkpt>
      <trkpt lat="47.38963" lon="7.23079">
        <ele>1003</ele>
        <time>2023-04-04T08:07:12.000Z</time>
      </trkpt>
      <trkpt lat="47.38977" lon="7.23085">
        <ele>1000</ele>
        <time>2023-04-04T08:07:25.000Z</time>
      </trkpt>
      <trkpt lat="47.38982" lon="7.23076">
        <ele>997.2</ele>
        <time>2023-04-04T08:07:45.000Z</time>
      </trkpt>
      <trkpt lat="47.38982" lon="7.23063">
        <ele>994</ele>
        <time>2023-04-04T08:07:56.000Z</time>
      </trkpt>
      <trkpt lat="47.38982" lon="7.23061">
        <ele>993.6</ele>
        <time>2023-04-04T08:07:57.000Z</time>
      </trkpt>
      <trkpt lat="47.38982" lon="7.23058">
        <ele>993.2</ele>
        <time>2023-04-04T08:07:58.000Z</time>
      </trkpt>
      <trkpt lat="47.38981" lon="7.23049">
        <ele>990.8</ele>
        <time>2023-04-04T08:08:03.000Z</time>
      </trkpt>
      <trkpt lat="47.38978" lon="7.23036">
        <ele>987.6</ele>
        <time>2023-04-04T08:08:09.000Z</time>
      </trkpt>
      <trkpt lat="47.38979" lon="7.23023">
        <ele>984.6</ele>
        <time>2023-04-04T08:08:19.000Z</time>
      </trkpt>
      <trkpt lat="47.38981" lon="7.23014">
        <ele>981.4</ele>
        <time>2023-04-04T08:08:27.000Z</time>
      </trkpt>
      <trkpt lat="47.38976" lon="7.23008">
        <ele>980</ele>
        <time>2023-04-04T08:08:46.000Z</time>
      </trkpt>
      <trkpt lat="47.38977" lon="7.23005">
        <ele>978.4</ele>
        <time>2023-04-04T08:09:18.000Z</time>
      </trkpt>
      <trkpt lat="47.38984" lon="7.22999">
        <ele>977.4</ele>
        <time>2023-04-04T08:09:28.000Z</time>
      </trkpt>
      <trkpt lat="47.38985" lon="7.22998">
        <ele>977.4</ele>
        <time>2023-04-04T08:09:29.000Z</time>
      </trkpt>
      <trkpt lat="47.38997" lon="7.22984">
        <ele>974.6</ele>
        <time>2023-04-04T08:09:40.000Z</time>
      </trkpt>
      <trkpt lat="47.38998" lon="7.22982">
        <ele>974.2</ele>
        <time>2023-04-04T08:09:41.000Z</time>
      </trkpt>
      <trkpt lat="47.39001" lon="7.22971">
        <ele>970.8</ele>
        <time>2023-04-04T08:09:47.000Z</time>
      </trkpt>
      <trkpt lat="47.39007" lon="7.22957">
        <ele>967.6</ele>
        <time>2023-04-04T08:09:54.000Z</time>
      </trkpt>
      <trkpt lat="47.39011" lon="7.22945">
        <ele>964.6</ele>
        <time>2023-04-04T08:10:00.000Z</time>
      </trkpt>
      <trkpt lat="47.39019" lon="7.22926">
        <ele>963.6</ele>
        <time>2023-04-04T08:10:12.000Z</time>
      </trkpt>
      <trkpt lat="47.39016" lon="7.22908">
        <ele>966.6</ele>
        <time>2023-04-04T08:10:27.000Z</time>
      </trkpt>
      <trkpt lat="47.39021" lon="7.22901">
        <ele>968.8</ele>
        <time>2023-04-04T08:10:48.000Z</time>
      </trkpt>
      <trkpt lat="47.3902" lon="7.22884">
        <ele>972</ele>
        <time>2023-04-04T08:11:05.000Z</time>
      </trkpt>
      <trkpt lat="47.39018" lon="7.22873">
        <ele>975</ele>
        <time>2023-04-04T08:11:18.000Z</time>
      </trkpt>
      <trkpt lat="47.39016" lon="7.22861">
        <ele>978.2</ele>
        <time>2023-04-04T08:11:37.000Z</time>
      </trkpt>
      <trkpt lat="47.39016" lon="7.2285">
        <ele>980.8</ele>
        <time>2023-04-04T08:11:55.000Z</time>
      </trkpt>
      <trkpt lat="47.39024" lon="7.22832">
        <ele>982.8</ele>
        <time>2023-04-04T08:12:07.000Z</time>
      </trkpt>
      <trkpt lat="47.39025" lon="7.22831">
        <ele>982.8</ele>
        <time>2023-04-04T08:12:08.000Z</time>
      </trkpt>
      <trkpt lat="47.39028" lon="7.22827">
        <ele>983.2</ele>
        <time>2023-04-04T08:12:11.000Z</time>
      </trkpt>
      <trkpt lat="47.39029" lon="7.22826">
        <ele>983.2</ele>
        <time>2023-04-04T08:12:12.000Z</time>
      </trkpt>
      <trkpt lat="47.3903" lon="7.22825">
        <ele>983</ele>
        <time>2023-04-04T08:12:13.000Z</time>
      </trkpt>
      <trkpt lat="47.3903" lon="7.22826">
        <ele>982.4</ele>
        <time>2023-04-04T08:12:30.000Z</time>
      </trkpt>
      <trkpt lat="47.3904" lon="7.22798">
        <ele>981.8</ele>
        <time>2023-04-04T08:12:54.000Z</time>
      </trkpt>
      <trkpt lat="47.39047" lon="7.22791">
        <ele>980.8</ele>
        <time>2023-04-04T08:13:00.000Z</time>
      </trkpt>
      <trkpt lat="47.39065" lon="7.22773">
        <ele>977.6</ele>
        <time>2023-04-04T08:13:16.000Z</time>
      </trkpt>
      <trkpt lat="47.39075" lon="7.22754">
        <ele>974.4</ele>
        <time>2023-04-04T08:13:31.000Z</time>
      </trkpt>
      <trkpt lat="47.39089" lon="7.22733">
        <ele>971.4</ele>
        <time>2023-04-04T08:13:47.000Z</time>
      </trkpt>
      <trkpt lat="47.391" lon="7.22719">
        <ele>968.2</ele>
        <time>2023-04-04T08:14:01.000Z</time>
      </trkpt>
      <trkpt lat="47.3911" lon="7.22707">
        <ele>965</ele>
        <time>2023-04-04T08:14:13.000Z</time>
      </trkpt>
      <trkpt lat="47.39118" lon="7.22692">
        <ele>961.8</ele>
        <time>2023-04-04T08:14:25.000Z</time>
      </trkpt>
      <trkpt lat="47.39127" lon="7.22676">
        <ele>958.8</ele>
        <time>2023-04-04T08:14:41.000Z</time>
      </trkpt>
      <trkpt lat="47.39134" lon="7.22659">
        <ele>955.6</ele>
        <time>2023-04-04T08:14:56.000Z</time>
      </trkpt>
      <trkpt lat="47.39135" lon="7.22657">
        <ele>954.6</ele>
        <time>2023-04-04T08:14:58.000Z</time>
      </trkpt>
      <trkpt lat="47.39141" lon="7.22637">
        <ele>951.6</ele>
        <time>2023-04-04T08:15:11.000Z</time>
      </trkpt>
      <trkpt lat="47.39147" lon="7.22621">
        <ele>949.4</ele>
        <time>2023-04-04T08:15:21.000Z</time>
      </trkpt>
      <trkpt lat="47.39151" lon="7.22613">
        <ele>948.4</ele>
        <time>2023-04-04T08:15:26.000Z</time>
      </trkpt>
      <trkpt lat="47.39159" lon="7.22594">
        <ele>945.2</ele>
        <time>2023-04-04T08:15:38.000Z</time>
      </trkpt>
      <trkpt lat="47.39161" lon="7.22586">
        <ele>944.4</ele>
        <time>2023-04-04T08:15:44.000Z</time>
      </trkpt>
      <trkpt lat="47.39165" lon="7.22566">
        <ele>941.8</ele>
        <time>2023-04-04T08:15:59.000Z</time>
      </trkpt>
      <trkpt lat="47.39166" lon="7.22539">
        <ele>938.6</ele>
        <time>2023-04-04T08:16:18.000Z</time>
      </trkpt>
      <trkpt lat="47.39171" lon="7.2252">
        <ele>936.4</ele>
        <time>2023-04-04T08:16:31.000Z</time>
      </trkpt>
      <trkpt lat="47.39174" lon="7.22506">
        <ele>935.4</ele>
        <time>2023-04-04T08:16:39.000Z</time>
      </trkpt>
      <trkpt lat="47.39182" lon="7.22479">
        <ele>933.4</ele>
        <time>2023-04-04T08:16:54.000Z</time>
      </trkpt>
      <trkpt lat="47.39183" lon="7.22474">
        <ele>933</ele>
        <time>2023-04-04T08:16:57.000Z</time>
      </trkpt>
      <trkpt lat="47.39184" lon="7.22471">
        <ele>932.6</ele>
        <time>2023-04-04T08:16:59.000Z</time>
      </trkpt>
      <trkpt lat="47.39189" lon="7.22439">
        <ele>930</ele>
        <time>2023-04-04T08:17:16.000Z</time>
      </trkpt>
      <trkpt lat="47.39192" lon="7.22416">
        <ele>928.6</ele>
        <time>2023-04-04T08:17:29.000Z</time>
      </trkpt>
      <trkpt lat="47.39192" lon="7.22414">
        <ele>928.4</ele>
        <time>2023-04-04T08:17:30.000Z</time>
      </trkpt>
      <trkpt lat="47.39193" lon="7.2241">
        <ele>927.8</ele>
        <time>2023-04-04T08:17:32.000Z</time>
      </trkpt>
      <trkpt lat="47.39194" lon="7.22408">
        <ele>927.8</ele>
        <time>2023-04-04T08:17:33.000Z</time>
      </trkpt>
      <trkpt lat="47.39195" lon="7.22406">
        <ele>927.6</ele>
        <time>2023-04-04T08:17:34.000Z</time>
      </trkpt>
      <trkpt lat="47.392" lon="7.22391">
        <ele>925.4</ele>
        <time>2023-04-04T08:17:43.000Z</time>
      </trkpt>
      <trkpt lat="47.392" lon="7.22387">
        <ele>924.6</ele>
        <time>2023-04-04T08:17:45.000Z</time>
      </trkpt>
      <trkpt lat="47.39199" lon="7.22378">
        <ele>922.6</ele>
        <time>2023-04-04T08:17:51.000Z</time>
      </trkpt>
      <trkpt lat="47.39199" lon="7.22359">
        <ele>919.6</ele>
        <time>2023-04-04T08:18:06.000Z</time>
      </trkpt>
      <trkpt lat="47.39199" lon="7.22356">
        <ele>918.8</ele>
        <time>2023-04-04T08:18:08.000Z</time>
      </trkpt>
      <trkpt lat="47.39199" lon="7.22354">
        <ele>918.6</ele>
        <time>2023-04-04T08:18:09.000Z</time>
      </trkpt>
      <trkpt lat="47.39201" lon="7.22343">
        <ele>917.8</ele>
        <time>2023-04-04T08:18:24.000Z</time>
      </trkpt>
      <trkpt lat="47.39204" lon="7.22352">
        <ele>917.8</ele>
        <time>2023-04-04T08:18:42.000Z</time>
      </trkpt>
      <trkpt lat="47.3921" lon="7.22369">
        <ele>916.6</ele>
        <time>2023-04-04T08:18:52.000Z</time>
      </trkpt>
      <trkpt lat="47.39215" lon="7.22381">
        <ele>915.2</ele>
        <time>2023-04-04T08:19:00.000Z</time>
      </trkpt>
      <trkpt lat="47.39216" lon="7.22383">
        <ele>915</ele>
        <time>2023-04-04T08:19:01.000Z</time>
      </trkpt>
      <trkpt lat="47.39228" lon="7.22405">
        <ele>913.2</ele>
        <time>2023-04-04T08:19:15.000Z</time>
      </trkpt>
      <trkpt lat="47.39239" lon="7.22428">
        <ele>910.4</ele>
        <time>2023-04-04T08:19:29.000Z</time>
      </trkpt>
      <trkpt lat="47.39255" lon="7.2245">
        <ele>908</ele>
        <time>2023-04-04T08:19:47.000Z</time>
      </trkpt>
      <trkpt lat="47.39275" lon="7.22451">
        <ele>905.4</ele>
        <time>2023-04-04T08:20:02.000Z</time>
      </trkpt>
      <trkpt lat="47.39277" lon="7.22453">
        <ele>905.4</ele>
        <time>2023-04-04T08:20:08.000Z</time>
      </trkpt>
      <trkpt lat="47.39281" lon="7.22454">
        <ele>903.8</ele>
        <time>2023-04-04T08:20:11.000Z</time>
      </trkpt>
      <trkpt lat="47.39282" lon="7.22454">
        <ele>903.4</ele>
        <time>2023-04-04T08:20:12.000Z</time>
      </trkpt>
      <trkpt lat="47.39283" lon="7.22454">
        <ele>903</ele>
        <time>2023-04-04T08:20:13.000Z</time>
      </trkpt>
      <trkpt lat="47.39284" lon="7.22454">
        <ele>902.8</ele>
        <time>2023-04-04T08:20:14.000Z</time>
      </trkpt>
      <trkpt lat="47.39286" lon="7.22454">
        <ele>902.4</ele>
        <time>2023-04-04T08:20:15.000Z</time>
      </trkpt>
      <trkpt lat="47.39287" lon="7.22454">
        <ele>901.8</ele>
        <time>2023-04-04T08:20:16.000Z</time>
      </trkpt>
      <trkpt lat="47.39289" lon="7.22455">
        <ele>901.4</ele>
        <time>2023-04-04T08:20:17.000Z</time>
      </trkpt>
      <trkpt lat="47.3929" lon="7.22455">
        <ele>901</ele>
        <time>2023-04-04T08:20:18.000Z</time>
      </trkpt>
      <trkpt lat="47.39291" lon="7.22456">
        <ele>901</ele>
        <time>2023-04-04T08:20:19.000Z</time>
      </trkpt>
      <trkpt lat="47.39293" lon="7.22455">
        <ele>901</ele>
        <time>2023-04-04T08:20:20.000Z</time>
      </trkpt>
      <trkpt lat="47.39312" lon="7.22458">
        <ele>901.6</ele>
        <time>2023-04-04T08:20:40.000Z</time>
      </trkpt>
      <trkpt lat="47.39314" lon="7.22458">
        <ele>901.4</ele>
        <time>2023-04-04T08:20:41.000Z</time>
      </trkpt>
      <trkpt lat="47.39317" lon="7.22458">
        <ele>900.6</ele>
        <time>2023-04-04T08:20:43.000Z</time>
      </trkpt>
      <trkpt lat="47.39335" lon="7.22454">
        <ele>901.2</ele>
        <time>2023-04-04T08:20:59.000Z</time>
      </trkpt>
      <trkpt lat="47.39344" lon="7.22456">
        <ele>902.8</ele>
        <time>2023-04-04T08:21:08.000Z</time>
      </trkpt>
      <trkpt lat="47.3935" lon="7.2249">
        <ele>903.6</ele>
        <time>2023-04-04T08:21:26.000Z</time>
      </trkpt>
      <trkpt lat="47.39355" lon="7.22512">
        <ele>903.6</ele>
        <time>2023-04-04T08:21:44.000Z</time>
      </trkpt>
      <trkpt lat="47.39356" lon="7.22517">
        <ele>903.8</ele>
        <time>2023-04-04T08:21:47.000Z</time>
      </trkpt>
      <trkpt lat="47.39357" lon="7.2252">
        <ele>903.8</ele>
        <time>2023-04-04T08:21:49.000Z</time>
      </trkpt>
      <trkpt lat="47.39363" lon="7.22543">
        <ele>903.4</ele>
        <time>2023-04-04T08:22:03.000Z</time>
      </trkpt>
      <trkpt lat="47.3937" lon="7.22572">
        <ele>902.8</ele>
        <time>2023-04-04T08:22:19.000Z</time>
      </trkpt>
      <trkpt lat="47.39371" lon="7.22573">
        <ele>902.8</ele>
        <time>2023-04-04T08:22:20.000Z</time>
      </trkpt>
      <trkpt lat="47.39372" lon="7.22574">
        <ele>902.8</ele>
        <time>2023-04-04T08:22:21.000Z</time>
      </trkpt>
      <trkpt lat="47.39372" lon="7.22576">
        <ele>902.8</ele>
        <time>2023-04-04T08:22:22.000Z</time>
      </trkpt>
      <trkpt lat="47.39373" lon="7.22577">
        <ele>903</ele>
        <time>2023-04-04T08:22:23.000Z</time>
      </trkpt>
      <trkpt lat="47.39374" lon="7.22578">
        <ele>903</ele>
        <time>2023-04-04T08:22:24.000Z</time>
      </trkpt>
      <trkpt lat="47.39382" lon="7.22578">
        <ele>904.4</ele>
        <time>2023-04-04T08:22:35.000Z</time>
      </trkpt>
      <trkpt lat="47.39383" lon="7.22578">
        <ele>904.6</ele>
        <time>2023-04-04T08:22:36.000Z</time>
      </trkpt>
      <trkpt lat="47.3941" lon="7.22577">
        <ele>905.6</ele>
        <time>2023-04-04T08:22:55.000Z</time>
      </trkpt>
      <trkpt lat="47.39414" lon="7.22571">
        <ele>905.4</ele>
        <time>2023-04-04T08:23:11.000Z</time>
      </trkpt>
      <trkpt lat="47.3941" lon="7.22555">
        <ele>906.8</ele>
        <time>2023-04-04T08:23:28.000Z</time>
      </trkpt>
      <trkpt lat="47.39406" lon="7.22543">
        <ele>909</ele>
        <time>2023-04-04T08:23:39.000Z</time>
      </trkpt>
      <trkpt lat="47.39405" lon="7.22541">
        <ele>909.2</ele>
        <time>2023-04-04T08:23:40.000Z</time>
      </trkpt>
      <trkpt lat="47.39397" lon="7.2253">
        <ele>910.8</ele>
        <time>2023-04-04T08:23:49.000Z</time>
      </trkpt>
      <trkpt lat="47.39396" lon="7.22507">
        <ele>913</ele>
        <time>2023-04-04T08:24:05.000Z</time>
      </trkpt>
      <trkpt lat="47.39391" lon="7.22478">
        <ele>916</ele>
        <time>2023-04-04T08:24:23.000Z</time>
      </trkpt>
      <trkpt lat="47.39392" lon="7.22475">
        <ele>916.2</ele>
        <time>2023-04-04T08:24:25.000Z</time>
      </trkpt>
      <trkpt lat="47.39392" lon="7.22473">
        <ele>916.2</ele>
        <time>2023-04-04T08:24:26.000Z</time>
      </trkpt>
      <trkpt lat="47.39391" lon="7.22472">
        <ele>916.4</ele>
        <time>2023-04-04T08:24:27.000Z</time>
      </trkpt>
      <trkpt lat="47.39389" lon="7.22466">
        <ele>917</ele>
        <time>2023-04-04T08:24:31.000Z</time>
      </trkpt>
      <trkpt lat="47.39388" lon="7.22464">
        <ele>917.2</ele>
        <time>2023-04-04T08:24:32.000Z</time>
      </trkpt>
      <trkpt lat="47.39388" lon="7.22463">
        <ele>917.2</ele>
        <time>2023-04-04T08:24:33.000Z</time>
      </trkpt>
      <trkpt lat="47.39388" lon="7.22461">
        <ele>917.2</ele>
        <time>2023-04-04T08:24:34.000Z</time>
      </trkpt>
      <trkpt lat="47.39387" lon="7.22444">
        <ele>918</ele>
        <time>2023-04-04T08:24:44.000Z</time>
      </trkpt>
      <trkpt lat="47.39387" lon="7.22441">
        <ele>918</ele>
        <time>2023-04-04T08:24:46.000Z</time>
      </trkpt>
      <trkpt lat="47.39387" lon="7.2244">
        <ele>918</ele>
        <time>2023-04-04T08:24:47.000Z</time>
      </trkpt>
      <trkpt lat="47.39389" lon="7.22434">
        <ele>918.4</ele>
        <time>2023-04-04T08:24:51.000Z</time>
      </trkpt>
      <trkpt lat="47.39389" lon="7.22432">
        <ele>918.4</ele>
        <time>2023-04-04T08:24:52.000Z</time>
      </trkpt>
      <trkpt lat="47.3939" lon="7.22407">
        <ele>920.4</ele>
        <time>2023-04-04T08:25:08.000Z</time>
      </trkpt>
      <trkpt lat="47.39392" lon="7.22393">
        <ele>920.6</ele>
        <time>2023-04-04T08:25:22.000Z</time>
      </trkpt>
      <trkpt lat="47.39391" lon="7.22385">
        <ele>922.2</ele>
        <time>2023-04-04T08:25:33.000Z</time>
      </trkpt>
      <trkpt lat="47.39388" lon="7.22379">
        <ele>922.4</ele>
        <time>2023-04-04T08:25:50.000Z</time>
      </trkpt>
      <trkpt lat="47.39387" lon="7.22374">
        <ele>923</ele>
        <time>2023-04-04T08:25:54.000Z</time>
      </trkpt>
      <trkpt lat="47.39386" lon="7.22349">
        <ele>921.6</ele>
        <time>2023-04-04T08:26:07.000Z</time>
      </trkpt>
      <trkpt lat="47.39389" lon="7.22327">
        <ele>921.4</ele>
        <time>2023-04-04T08:26:20.000Z</time>
      </trkpt>
      <trkpt lat="47.39394" lon="7.22297">
        <ele>919.4</ele>
        <time>2023-04-04T08:26:36.000Z</time>
      </trkpt>
      <trkpt lat="47.394" lon="7.22269">
        <ele>918</ele>
        <time>2023-04-04T08:26:51.000Z</time>
      </trkpt>
      <trkpt lat="47.394" lon="7.22267">
        <ele>917.8</ele>
        <time>2023-04-04T08:26:52.000Z</time>
      </trkpt>
      <trkpt lat="47.39402" lon="7.22254">
        <ele>916.6</ele>
        <time>2023-04-04T08:26:59.000Z</time>
      </trkpt>
      <trkpt lat="47.39405" lon="7.22243">
        <ele>914.6</ele>
        <time>2023-04-04T08:27:06.000Z</time>
      </trkpt>
      <trkpt lat="47.39407" lon="7.22236">
        <ele>914.2</ele>
        <time>2023-04-04T08:27:10.000Z</time>
      </trkpt>
      <trkpt lat="47.39407" lon="7.22235">
        <ele>914</ele>
        <time>2023-04-04T08:27:11.000Z</time>
      </trkpt>
      <trkpt lat="47.39407" lon="7.22231">
        <ele>914</ele>
        <time>2023-04-04T08:27:13.000Z</time>
      </trkpt>
      <trkpt lat="47.39408" lon="7.22209">
        <ele>912.4</ele>
        <time>2023-04-04T08:27:24.000Z</time>
      </trkpt>
      <trkpt lat="47.39412" lon="7.22193">
        <ele>909.4</ele>
        <time>2023-04-04T08:27:36.000Z</time>
      </trkpt>
      <trkpt lat="47.39415" lon="7.22201">
        <ele>907.6</ele>
        <time>2023-04-04T08:27:56.000Z</time>
      </trkpt>
      <trkpt lat="47.3942" lon="7.22208">
        <ele>904.6</ele>
        <time>2023-04-04T08:28:04.000Z</time>
      </trkpt>
      <trkpt lat="47.39424" lon="7.22207">
        <ele>903.2</ele>
        <time>2023-04-04T08:28:07.000Z</time>
      </trkpt>
      <trkpt lat="47.39429" lon="7.22205">
        <ele>902.2</ele>
        <time>2023-04-04T08:28:11.000Z</time>
      </trkpt>
      <trkpt lat="47.39448" lon="7.22197">
        <ele>900.4</ele>
        <time>2023-04-04T08:28:25.000Z</time>
      </trkpt>
      <trkpt lat="47.39452" lon="7.22175">
        <ele>898.8</ele>
        <time>2023-04-04T08:28:38.000Z</time>
      </trkpt>
      <trkpt lat="47.39452" lon="7.22172">
        <ele>898.8</ele>
        <time>2023-04-04T08:28:39.000Z</time>
      </trkpt>
      <trkpt lat="47.39452" lon="7.2217">
        <ele>898.4</ele>
        <time>2023-04-04T08:28:40.000Z</time>
      </trkpt>
      <trkpt lat="47.39452" lon="7.22168">
        <ele>898.2</ele>
        <time>2023-04-04T08:28:41.000Z</time>
      </trkpt>
      <trkpt lat="47.39453" lon="7.22166">
        <ele>897.8</ele>
        <time>2023-04-04T08:28:42.000Z</time>
      </trkpt>
      <trkpt lat="47.39453" lon="7.22164">
        <ele>897.4</ele>
        <time>2023-04-04T08:28:43.000Z</time>
      </trkpt>
      <trkpt lat="47.39454" lon="7.22162">
        <ele>897.2</ele>
        <time>2023-04-04T08:28:44.000Z</time>
      </trkpt>
      <trkpt lat="47.39455" lon="7.22152">
        <ele>896.2</ele>
        <time>2023-04-04T08:28:49.000Z</time>
      </trkpt>
      <trkpt lat="47.39461" lon="7.22128">
        <ele>893.4</ele>
        <time>2023-04-04T08:29:02.000Z</time>
      </trkpt>
      <trkpt lat="47.39461" lon="7.22126">
        <ele>893</ele>
        <time>2023-04-04T08:29:03.000Z</time>
      </trkpt>
      <trkpt lat="47.39462" lon="7.22114">
        <ele>891.2</ele>
        <time>2023-04-04T08:29:09.000Z</time>
      </trkpt>
      <trkpt lat="47.39462" lon="7.22111">
        <ele>890.8</ele>
        <time>2023-04-04T08:29:11.000Z</time>
      </trkpt>
      <trkpt lat="47.39463" lon="7.22109">
        <ele>890.4</ele>
        <time>2023-04-04T08:29:12.000Z</time>
      </trkpt>
      <trkpt lat="47.39463" lon="7.22106">
        <ele>889.8</ele>
        <time>2023-04-04T08:29:14.000Z</time>
      </trkpt>
      <trkpt lat="47.39463" lon="7.22102">
        <ele>889</ele>
        <time>2023-04-04T08:29:16.000Z</time>
      </trkpt>
      <trkpt lat="47.39463" lon="7.221">
        <ele>888.8</ele>
        <time>2023-04-04T08:29:17.000Z</time>
      </trkpt>
      <trkpt lat="47.39462" lon="7.22094">
        <ele>888</ele>
        <time>2023-04-04T08:29:20.000Z</time>
      </trkpt>
      <trkpt lat="47.39462" lon="7.22092">
        <ele>887.8</ele>
        <time>2023-04-04T08:29:21.000Z</time>
      </trkpt>
      <trkpt lat="47.39462" lon="7.22089">
        <ele>887.4</ele>
        <time>2023-04-04T08:29:22.000Z</time>
      </trkpt>
      <trkpt lat="47.39462" lon="7.22074">
        <ele>884.2</ele>
        <time>2023-04-04T08:29:31.000Z</time>
      </trkpt>
      <trkpt lat="47.39463" lon="7.22062">
        <ele>882.2</ele>
        <time>2023-04-04T08:29:38.000Z</time>
      </trkpt>
      <trkpt lat="47.39462" lon="7.2206">
        <ele>882</ele>
        <time>2023-04-04T08:29:39.000Z</time>
      </trkpt>
      <trkpt lat="47.39462" lon="7.22053">
        <ele>880.8</ele>
        <time>2023-04-04T08:29:43.000Z</time>
      </trkpt>
      <trkpt lat="47.39462" lon="7.22051">
        <ele>880.4</ele>
        <time>2023-04-04T08:29:44.000Z</time>
      </trkpt>
      <trkpt lat="47.39462" lon="7.22041">
        <ele>878.6</ele>
        <time>2023-04-04T08:29:49.000Z</time>
      </trkpt>
      <trkpt lat="47.39462" lon="7.22038">
        <ele>878.2</ele>
        <time>2023-04-04T08:29:50.000Z</time>
      </trkpt>
      <trkpt lat="47.39462" lon="7.22036">
        <ele>877.8</ele>
        <time>2023-04-04T08:29:51.000Z</time>
      </trkpt>
      <trkpt lat="47.39462" lon="7.22034">
        <ele>877.4</ele>
        <time>2023-04-04T08:29:52.000Z</time>
      </trkpt>
      <trkpt lat="47.39462" lon="7.22032">
        <ele>877</ele>
        <time>2023-04-04T08:29:53.000Z</time>
      </trkpt>
      <trkpt lat="47.39465" lon="7.22025">
        <ele>874.8</ele>
        <time>2023-04-04T08:30:03.000Z</time>
      </trkpt>
      <trkpt lat="47.39465" lon="7.22002">
        <ele>873.4</ele>
        <time>2023-04-04T08:30:15.000Z</time>
      </trkpt>
      <trkpt lat="47.39465" lon="7.21999">
        <ele>872.8</ele>
        <time>2023-04-04T08:30:17.000Z</time>
      </trkpt>
      <trkpt lat="47.39467" lon="7.21995">
        <ele>871.8</ele>
        <time>2023-04-04T08:30:19.000Z</time>
      </trkpt>
      <trkpt lat="47.39467" lon="7.21994">
        <ele>871.6</ele>
        <time>2023-04-04T08:30:20.000Z</time>
      </trkpt>
      <trkpt lat="47.39472" lon="7.2198">
        <ele>868.4</ele>
        <time>2023-04-04T08:30:28.000Z</time>
      </trkpt>
      <trkpt lat="47.3947" lon="7.2197">
        <ele>867.4</ele>
        <time>2023-04-04T08:30:33.000Z</time>
      </trkpt>
      <trkpt lat="47.39468" lon="7.21948">
        <ele>867</ele>
        <time>2023-04-04T08:30:47.000Z</time>
      </trkpt>
      <trkpt lat="47.39463" lon="7.21936">
        <ele>867</ele>
        <time>2023-04-04T08:31:07.000Z</time>
      </trkpt>
      <trkpt lat="47.39462" lon="7.21933">
        <ele>867</ele>
        <time>2023-04-04T08:31:10.000Z</time>
      </trkpt>
      <trkpt lat="47.39457" lon="7.21918">
        <ele>867</ele>
        <time>2023-04-04T08:31:18.000Z</time>
      </trkpt>
      <trkpt lat="47.39462" lon="7.21888">
        <ele>867.4</ele>
        <time>2023-04-04T08:31:38.000Z</time>
      </trkpt>
      <trkpt lat="47.39462" lon="7.21874">
        <ele>867.4</ele>
        <time>2023-04-04T08:31:48.000Z</time>
      </trkpt>
      <trkpt lat="47.39461" lon="7.21871">
        <ele>867.2</ele>
        <time>2023-04-04T08:31:50.000Z</time>
      </trkpt>
      <trkpt lat="47.39461" lon="7.21869">
        <ele>867.2</ele>
        <time>2023-04-04T08:31:51.000Z</time>
      </trkpt>
      <trkpt lat="47.39471" lon="7.21847">
        <ele>866.4</ele>
        <time>2023-04-04T08:32:06.000Z</time>
      </trkpt>
      <trkpt lat="47.39476" lon="7.21818">
        <ele>865.4</ele>
        <time>2023-04-04T08:32:20.000Z</time>
      </trkpt>
      <trkpt lat="47.39475" lon="7.21799">
        <ele>863.6</ele>
        <time>2023-04-04T08:32:32.000Z</time>
      </trkpt>
      <trkpt lat="47.39473" lon="7.21776">
        <ele>861.6</ele>
        <time>2023-04-04T08:32:43.000Z</time>
      </trkpt>
      <trkpt lat="47.39472" lon="7.21775">
        <ele>861.6</ele>
        <time>2023-04-04T08:32:44.000Z</time>
      </trkpt>
      <trkpt lat="47.39469" lon="7.2174">
        <ele>859.6</ele>
        <time>2023-04-04T08:33:01.000Z</time>
      </trkpt>
      <trkpt lat="47.39469" lon="7.21718">
        <ele>858.8</ele>
        <time>2023-04-04T08:33:11.000Z</time>
      </trkpt>
      <trkpt lat="47.39469" lon="7.21712">
        <ele>858.4</ele>
        <time>2023-04-04T08:33:14.000Z</time>
      </trkpt>
      <trkpt lat="47.39469" lon="7.2171">
        <ele>858.4</ele>
        <time>2023-04-04T08:33:15.000Z</time>
      </trkpt>
      <trkpt lat="47.39468" lon="7.21686">
        <ele>857.6</ele>
        <time>2023-04-04T08:33:29.000Z</time>
      </trkpt>
      <trkpt lat="47.39468" lon="7.21665">
        <ele>856.8</ele>
        <time>2023-04-04T08:33:41.000Z</time>
      </trkpt>
      <trkpt lat="47.39468" lon="7.21658">
        <ele>856.6</ele>
        <time>2023-04-04T08:33:45.000Z</time>
      </trkpt>
      <trkpt lat="47.39468" lon="7.21656">
        <ele>856.6</ele>
        <time>2023-04-04T08:33:46.000Z</time>
      </trkpt>
      <trkpt lat="47.39469" lon="7.21626">
        <ele>855.8</ele>
        <time>2023-04-04T08:33:59.000Z</time>
      </trkpt>
      <trkpt lat="47.39469" lon="7.21609">
        <ele>855.6</ele>
        <time>2023-04-04T08:34:08.000Z</time>
      </trkpt>
      <trkpt lat="47.39475" lon="7.21577">
        <ele>854.8</ele>
        <time>2023-04-04T08:34:23.000Z</time>
      </trkpt>
      <trkpt lat="47.39477" lon="7.21552">
        <ele>854</ele>
        <time>2023-04-04T08:34:37.000Z</time>
      </trkpt>
      <trkpt lat="47.39477" lon="7.21539">
        <ele>853.8</ele>
        <time>2023-04-04T08:34:43.000Z</time>
      </trkpt>
      <trkpt lat="47.39476" lon="7.21517">
        <ele>852.8</ele>
        <time>2023-04-04T08:34:52.000Z</time>
      </trkpt>
      <trkpt lat="47.39476" lon="7.21515">
        <ele>852.6</ele>
        <time>2023-04-04T08:34:53.000Z</time>
      </trkpt>
      <trkpt lat="47.39475" lon="7.21513">
        <ele>852.6</ele>
        <time>2023-04-04T08:34:54.000Z</time>
      </trkpt>
      <trkpt lat="47.39474" lon="7.215">
        <ele>852</ele>
        <time>2023-04-04T08:35:00.000Z</time>
      </trkpt>
      <trkpt lat="47.39474" lon="7.21498">
        <ele>851.8</ele>
        <time>2023-04-04T08:35:01.000Z</time>
      </trkpt>
      <trkpt lat="47.39474" lon="7.21496">
        <ele>851.8</ele>
        <time>2023-04-04T08:35:02.000Z</time>
      </trkpt>
      <trkpt lat="47.39474" lon="7.21493">
        <ele>851.6</ele>
        <time>2023-04-04T08:35:03.000Z</time>
      </trkpt>
      <trkpt lat="47.39474" lon="7.21491">
        <ele>851.4</ele>
        <time>2023-04-04T08:35:04.000Z</time>
      </trkpt>
      <trkpt lat="47.39474" lon="7.21488">
        <ele>851.2</ele>
        <time>2023-04-04T08:35:05.000Z</time>
      </trkpt>
      <trkpt lat="47.39475" lon="7.21485">
        <ele>851</ele>
        <time>2023-04-04T08:35:06.000Z</time>
      </trkpt>
      <trkpt lat="47.39475" lon="7.21483">
        <ele>851</ele>
        <time>2023-04-04T08:35:07.000Z</time>
      </trkpt>
      <trkpt lat="47.39476" lon="7.21469">
        <ele>850</ele>
        <time>2023-04-04T08:35:13.000Z</time>
      </trkpt>
      <trkpt lat="47.39476" lon="7.21466">
        <ele>849.8</ele>
        <time>2023-04-04T08:35:14.000Z</time>
      </trkpt>
      <trkpt lat="47.39475" lon="7.21464">
        <ele>849.6</ele>
        <time>2023-04-04T08:35:15.000Z</time>
      </trkpt>
      <trkpt lat="47.39471" lon="7.21431">
        <ele>847</ele>
        <time>2023-04-04T08:35:30.000Z</time>
      </trkpt>
      <trkpt lat="47.39469" lon="7.21406">
        <ele>844.8</ele>
        <time>2023-04-04T08:35:44.000Z</time>
      </trkpt>
      <trkpt lat="47.39468" lon="7.21404">
        <ele>844.6</ele>
        <time>2023-04-04T08:35:45.000Z</time>
      </trkpt>
      <trkpt lat="47.39467" lon="7.214">
        <ele>844.2</ele>
        <time>2023-04-04T08:35:47.000Z</time>
      </trkpt>
      <trkpt lat="47.39467" lon="7.21397">
        <ele>844.2</ele>
        <time>2023-04-04T08:35:48.000Z</time>
      </trkpt>
      <trkpt lat="47.39466" lon="7.21395">
        <ele>844</ele>
        <time>2023-04-04T08:35:49.000Z</time>
      </trkpt>
      <trkpt lat="47.39459" lon="7.21365">
        <ele>841</ele>
        <time>2023-04-04T08:36:04.000Z</time>
      </trkpt>
      <trkpt lat="47.39454" lon="7.21349">
        <ele>839.8</ele>
        <time>2023-04-04T08:36:13.000Z</time>
      </trkpt>
      <trkpt lat="47.39453" lon="7.21344">
        <ele>839.4</ele>
        <time>2023-04-04T08:36:16.000Z</time>
      </trkpt>
      <trkpt lat="47.39448" lon="7.21328">
        <ele>837.6</ele>
        <time>2023-04-04T08:36:26.000Z</time>
      </trkpt>
      <trkpt lat="47.39436" lon="7.21298">
        <ele>834.4</ele>
        <time>2023-04-04T08:36:44.000Z</time>
      </trkpt>
      <trkpt lat="47.39433" lon="7.21291">
        <ele>833</ele>
        <time>2023-04-04T08:36:49.000Z</time>
      </trkpt>
      <trkpt lat="47.39432" lon="7.21289">
        <ele>832.8</ele>
        <time>2023-04-04T08:36:50.000Z</time>
      </trkpt>
      <trkpt lat="47.39425" lon="7.21279">
        <ele>831.2</ele>
        <time>2023-04-04T08:36:59.000Z</time>
      </trkpt>
      <trkpt lat="47.39424" lon="7.21278">
        <ele>831</ele>
        <time>2023-04-04T08:37:00.000Z</time>
      </trkpt>
      <trkpt lat="47.39418" lon="7.21272">
        <ele>830.4</ele>
        <time>2023-04-04T08:37:04.000Z</time>
      </trkpt>
      <trkpt lat="47.39417" lon="7.21271">
        <ele>830</ele>
        <time>2023-04-04T08:37:05.000Z</time>
      </trkpt>
      <trkpt lat="47.39415" lon="7.21269">
        <ele>829.8</ele>
        <time>2023-04-04T08:37:06.000Z</time>
      </trkpt>
      <trkpt lat="47.39404" lon="7.21256">
        <ele>828.2</ele>
        <time>2023-04-04T08:37:15.000Z</time>
      </trkpt>
      <trkpt lat="47.39403" lon="7.21254">
        <ele>828</ele>
        <time>2023-04-04T08:37:16.000Z</time>
      </trkpt>
      <trkpt lat="47.39397" lon="7.21246">
        <ele>827.2</ele>
        <time>2023-04-04T08:37:21.000Z</time>
      </trkpt>
      <trkpt lat="47.39389" lon="7.21237">
        <ele>825.6</ele>
        <time>2023-04-04T08:37:29.000Z</time>
      </trkpt>
      <trkpt lat="47.39379" lon="7.21225">
        <ele>824.2</ele>
        <time>2023-04-04T08:37:37.000Z</time>
      </trkpt>
      <trkpt lat="47.39359" lon="7.21205">
        <ele>822.2</ele>
        <time>2023-04-04T08:37:52.000Z</time>
      </trkpt>
      <trkpt lat="47.39358" lon="7.21203">
        <ele>822</ele>
        <time>2023-04-04T08:37:53.000Z</time>
      </trkpt>
      <trkpt lat="47.3934" lon="7.21187">
        <ele>819.6</ele>
        <time>2023-04-04T08:38:05.000Z</time>
      </trkpt>
      <trkpt lat="47.39324" lon="7.21152">
        <ele>814.8</ele>
        <time>2023-04-04T08:38:40.000Z</time>
      </trkpt>
      <trkpt lat="47.39322" lon="7.21155">
        <ele>815.2</ele>
        <time>2023-04-04T08:39:13.000Z</time>
      </trkpt>
      <trkpt lat="47.39322" lon="7.21155">
        <ele>814.4</ele>
        <time>2023-04-04T08:39:43.000Z</time>
      </trkpt>
      <trkpt lat="47.39322" lon="7.21162">
        <ele>814.4</ele>
        <time>2023-04-04T08:40:13.000Z</time>
      </trkpt>
      <trkpt lat="47.39329" lon="7.2117">
        <ele>814</ele>
        <time>2023-04-04T08:40:38.000Z</time>
      </trkpt>
      <trkpt lat="47.39324" lon="7.21164">
        <ele>814.6</ele>
        <time>2023-04-04T08:41:07.000Z</time>
      </trkpt>
      <trkpt lat="47.39323" lon="7.21165">
        <ele>814.6</ele>
        <time>2023-04-04T08:41:35.000Z</time>
      </trkpt>
      <trkpt lat="47.39316" lon="7.21157">
        <ele>814.4</ele>
        <time>2023-04-04T08:42:04.000Z</time>
      </trkpt>
      <trkpt lat="47.39318" lon="7.21161">
        <ele>814.2</ele>
        <time>2023-04-04T08:42:34.000Z</time>
      </trkpt>
      <trkpt lat="47.3932" lon="7.21157">
        <ele>814.2</ele>
        <time>2023-04-04T08:43:16.000Z</time>
      </trkpt>
      <trkpt lat="47.3932" lon="7.21157">
        <ele>818</ele>
        <time>2023-04-04T08:43:18.000Z</time>
      </trkpt>
      <trkpt lat="47.3932" lon="7.21157">
        <ele>817</ele>
        <time>2023-04-04T08:43:19.000Z</time>
      </trkpt>
      <trkpt lat="47.39321" lon="7.21157">
        <ele>815</ele>
        <time>2023-04-04T08:43:24.000Z</time>
      </trkpt>
      <trkpt lat="47.39337" lon="7.2117">
        <ele>813.4</ele>
        <time>2023-04-04T08:44:37.000Z</time>
      </trkpt>
      <trkpt lat="47.39341" lon="7.21173">
        <ele>813.2</ele>
        <time>2023-04-04T08:44:42.000Z</time>
      </trkpt>
      <trkpt lat="47.39349" lon="7.21181">
        <ele>813.6</ele>
        <time>2023-04-04T08:44:49.000Z</time>
      </trkpt>
      <trkpt lat="47.39358" lon="7.21193">
        <ele>813.6</ele>
        <time>2023-04-04T08:44:57.000Z</time>
      </trkpt>
      <trkpt lat="47.39366" lon="7.21202">
        <ele>813.8</ele>
        <time>2023-04-04T08:45:03.000Z</time>
      </trkpt>
      <trkpt lat="47.39368" lon="7.21204">
        <ele>813.8</ele>
        <time>2023-04-04T08:45:04.000Z</time>
      </trkpt>
      <trkpt lat="47.39369" lon="7.21205">
        <ele>813.8</ele>
        <time>2023-04-04T08:45:05.000Z</time>
      </trkpt>
      <trkpt lat="47.3937" lon="7.21206">
        <ele>813.8</ele>
        <time>2023-04-04T08:45:06.000Z</time>
      </trkpt>
      <trkpt lat="47.39374" lon="7.2121">
        <ele>813.6</ele>
        <time>2023-04-04T08:45:09.000Z</time>
      </trkpt>
      <trkpt lat="47.39376" lon="7.21211">
        <ele>813.4</ele>
        <time>2023-04-04T08:45:10.000Z</time>
      </trkpt>
      <trkpt lat="47.39377" lon="7.21213">
        <ele>813</ele>
        <time>2023-04-04T08:45:11.000Z</time>
      </trkpt>
      <trkpt lat="47.39381" lon="7.21216">
        <ele>812.8</ele>
        <time>2023-04-04T08:45:14.000Z</time>
      </trkpt>
      <trkpt lat="47.39382" lon="7.21218">
        <ele>812.6</ele>
        <time>2023-04-04T08:45:15.000Z</time>
      </trkpt>
      <trkpt lat="47.39383" lon="7.21219">
        <ele>812.8</ele>
        <time>2023-04-04T08:45:16.000Z</time>
      </trkpt>
      <trkpt lat="47.39395" lon="7.21234">
        <ele>812.6</ele>
        <time>2023-04-04T08:45:29.000Z</time>
      </trkpt>
      <trkpt lat="47.39396" lon="7.21235">
        <ele>812.6</ele>
        <time>2023-04-04T08:45:30.000Z</time>
      </trkpt>
      <trkpt lat="47.39399" lon="7.21238">
        <ele>812.4</ele>
        <time>2023-04-04T08:45:32.000Z</time>
      </trkpt>
      <trkpt lat="47.394" lon="7.21239">
        <ele>812.4</ele>
        <time>2023-04-04T08:45:33.000Z</time>
      </trkpt>
      <trkpt lat="47.39401" lon="7.21241">
        <ele>812.4</ele>
        <time>2023-04-04T08:45:34.000Z</time>
      </trkpt>
      <trkpt lat="47.39402" lon="7.21242">
        <ele>812.4</ele>
        <time>2023-04-04T08:45:35.000Z</time>
      </trkpt>
      <trkpt lat="47.39403" lon="7.21244">
        <ele>812.4</ele>
        <time>2023-04-04T08:45:36.000Z</time>
      </trkpt>
      <trkpt lat="47.39405" lon="7.21245">
        <ele>812.2</ele>
        <time>2023-04-04T08:45:37.000Z</time>
      </trkpt>
      <trkpt lat="47.39406" lon="7.21246">
        <ele>812.2</ele>
        <time>2023-04-04T08:45:38.000Z</time>
      </trkpt>
      <trkpt lat="47.39413" lon="7.21253">
        <ele>812</ele>
        <time>2023-04-04T08:45:45.000Z</time>
      </trkpt>
      <trkpt lat="47.39418" lon="7.2126">
        <ele>811.6</ele>
        <time>2023-04-04T08:45:49.000Z</time>
      </trkpt>
      <trkpt lat="47.3942" lon="7.21261">
        <ele>811.6</ele>
        <time>2023-04-04T08:45:50.000Z</time>
      </trkpt>
      <trkpt lat="47.39432" lon="7.21274">
        <ele>811.6</ele>
        <time>2023-04-04T08:46:00.000Z</time>
      </trkpt>
      <trkpt lat="47.39433" lon="7.21275">
        <ele>811.6</ele>
        <time>2023-04-04T08:46:01.000Z</time>
      </trkpt>
      <trkpt lat="47.39434" lon="7.21276">
        <ele>811.6</ele>
        <time>2023-04-04T08:46:02.000Z</time>
      </trkpt>
      <trkpt lat="47.39436" lon="7.21278">
        <ele>811.6</ele>
        <time>2023-04-04T08:46:03.000Z</time>
      </trkpt>
      <trkpt lat="47.39437" lon="7.2128">
        <ele>811.4</ele>
        <time>2023-04-04T08:46:04.000Z</time>
      </trkpt>
      <trkpt lat="47.39439" lon="7.21281">
        <ele>811.4</ele>
        <time>2023-04-04T08:46:05.000Z</time>
      </trkpt>
      <trkpt lat="47.39441" lon="7.21286">
        <ele>811.2</ele>
        <time>2023-04-04T08:46:07.000Z</time>
      </trkpt>
      <trkpt lat="47.39446" lon="7.21291">
        <ele>811.2</ele>
        <time>2023-04-04T08:46:10.000Z</time>
      </trkpt>
      <trkpt lat="47.39459" lon="7.21309">
        <ele>809.8</ele>
        <time>2023-04-04T08:46:22.000Z</time>
      </trkpt>
      <trkpt lat="47.39465" lon="7.21316">
        <ele>809.2</ele>
        <time>2023-04-04T08:46:27.000Z</time>
      </trkpt>
      <trkpt lat="47.39467" lon="7.21318">
        <ele>809</ele>
        <time>2023-04-04T08:46:29.000Z</time>
      </trkpt>
      <trkpt lat="47.39476" lon="7.21329">
        <ele>808.2</ele>
        <time>2023-04-04T08:46:38.000Z</time>
      </trkpt>
      <trkpt lat="47.39478" lon="7.21331">
        <ele>808.2</ele>
        <time>2023-04-04T08:46:40.000Z</time>
      </trkpt>
      <trkpt lat="47.39479" lon="7.21333">
        <ele>808</ele>
        <time>2023-04-04T08:46:41.000Z</time>
      </trkpt>
      <trkpt lat="47.39479" lon="7.21334">
        <ele>808</ele>
        <time>2023-04-04T08:46:42.000Z</time>
      </trkpt>
      <trkpt lat="47.3948" lon="7.21335">
        <ele>808</ele>
        <time>2023-04-04T08:46:43.000Z</time>
      </trkpt>
      <trkpt lat="47.39489" lon="7.21347">
        <ele>807.4</ele>
        <time>2023-04-04T08:46:53.000Z</time>
      </trkpt>
      <trkpt lat="47.3949" lon="7.21349">
        <ele>807.4</ele>
        <time>2023-04-04T08:46:54.000Z</time>
      </trkpt>
      <trkpt lat="47.39493" lon="7.21353">
        <ele>807.2</ele>
        <time>2023-04-04T08:46:57.000Z</time>
      </trkpt>
      <trkpt lat="47.39498" lon="7.21362">
        <ele>806.4</ele>
        <time>2023-04-04T08:47:04.000Z</time>
      </trkpt>
      <trkpt lat="47.39501" lon="7.21367">
        <ele>806.2</ele>
        <time>2023-04-04T08:47:07.000Z</time>
      </trkpt>
      <trkpt lat="47.39507" lon="7.21373">
        <ele>805</ele>
        <time>2023-04-04T08:47:13.000Z</time>
      </trkpt>
      <trkpt lat="47.39517" lon="7.21398">
        <ele>802.2</ele>
        <time>2023-04-04T08:47:27.000Z</time>
      </trkpt>
      <trkpt lat="47.39518" lon="7.21403">
        <ele>801.4</ele>
        <time>2023-04-04T08:47:30.000Z</time>
      </trkpt>
      <trkpt lat="47.39519" lon="7.21404">
        <ele>801.2</ele>
        <time>2023-04-04T08:47:31.000Z</time>
      </trkpt>
      <trkpt lat="47.39524" lon="7.21414">
        <ele>800.4</ele>
        <time>2023-04-04T08:47:37.000Z</time>
      </trkpt>
      <trkpt lat="47.39529" lon="7.21426">
        <ele>799.2</ele>
        <time>2023-04-04T08:47:43.000Z</time>
      </trkpt>
      <trkpt lat="47.3953" lon="7.21428">
        <ele>799</ele>
        <time>2023-04-04T08:47:44.000Z</time>
      </trkpt>
      <trkpt lat="47.39531" lon="7.2143">
        <ele>798.6</ele>
        <time>2023-04-04T08:47:45.000Z</time>
      </trkpt>
      <trkpt lat="47.39532" lon="7.21432">
        <ele>798.4</ele>
        <time>2023-04-04T08:47:46.000Z</time>
      </trkpt>
      <trkpt lat="47.39533" lon="7.21434">
        <ele>798.4</ele>
        <time>2023-04-04T08:47:47.000Z</time>
      </trkpt>
      <trkpt lat="47.39534" lon="7.21435">
        <ele>798</ele>
        <time>2023-04-04T08:47:48.000Z</time>
      </trkpt>
      <trkpt lat="47.39535" lon="7.21438">
        <ele>797.6</ele>
        <time>2023-04-04T08:47:50.000Z</time>
      </trkpt>
      <trkpt lat="47.39536" lon="7.21441">
        <ele>797.2</ele>
        <time>2023-04-04T08:47:52.000Z</time>
      </trkpt>
      <trkpt lat="47.3954" lon="7.21449">
        <ele>796.4</ele>
        <time>2023-04-04T08:47:57.000Z</time>
      </trkpt>
      <trkpt lat="47.39554" lon="7.21475">
        <ele>793.6</ele>
        <time>2023-04-04T08:48:12.000Z</time>
      </trkpt>
      <trkpt lat="47.39555" lon="7.21478">
        <ele>793</ele>
        <time>2023-04-04T08:48:15.000Z</time>
      </trkpt>
      <trkpt lat="47.39556" lon="7.2148">
        <ele>792.8</ele>
        <time>2023-04-04T08:48:16.000Z</time>
      </trkpt>
      <trkpt lat="47.39557" lon="7.21481">
        <ele>792.8</ele>
        <time>2023-04-04T08:48:17.000Z</time>
      </trkpt>
      <trkpt lat="47.39559" lon="7.21488">
        <ele>792.2</ele>
        <time>2023-04-04T08:48:21.000Z</time>
      </trkpt>
      <trkpt lat="47.3956" lon="7.21492">
        <ele>791.8</ele>
        <time>2023-04-04T08:48:23.000Z</time>
      </trkpt>
      <trkpt lat="47.3956" lon="7.21494">
        <ele>791.6</ele>
        <time>2023-04-04T08:48:24.000Z</time>
      </trkpt>
      <trkpt lat="47.3956" lon="7.21521">
        <ele>788.6</ele>
        <time>2023-04-04T08:48:38.000Z</time>
      </trkpt>
      <trkpt lat="47.3956" lon="7.21525">
        <ele>788.2</ele>
        <time>2023-04-04T08:48:40.000Z</time>
      </trkpt>
      <trkpt lat="47.39559" lon="7.2153">
        <ele>787.8</ele>
        <time>2023-04-04T08:48:43.000Z</time>
      </trkpt>
      <trkpt lat="47.39558" lon="7.21532">
        <ele>787.6</ele>
        <time>2023-04-04T08:48:44.000Z</time>
      </trkpt>
      <trkpt lat="47.39555" lon="7.21542">
        <ele>786.2</ele>
        <time>2023-04-04T08:48:50.000Z</time>
      </trkpt>
      <trkpt lat="47.39556" lon="7.21558">
        <ele>784.8</ele>
        <time>2023-04-04T08:48:58.000Z</time>
      </trkpt>
      <trkpt lat="47.39559" lon="7.21574">
        <ele>783</ele>
        <time>2023-04-04T08:49:07.000Z</time>
      </trkpt>
      <trkpt lat="47.39561" lon="7.21606">
        <ele>780.4</ele>
        <time>2023-04-04T08:49:20.000Z</time>
      </trkpt>
      <trkpt lat="47.39561" lon="7.21611">
        <ele>780.2</ele>
        <time>2023-04-04T08:49:22.000Z</time>
      </trkpt>
      <trkpt lat="47.39561" lon="7.21613">
        <ele>780</ele>
        <time>2023-04-04T08:49:23.000Z</time>
      </trkpt>
      <trkpt lat="47.39561" lon="7.21615">
        <ele>779.8</ele>
        <time>2023-04-04T08:49:24.000Z</time>
      </trkpt>
      <trkpt lat="47.39561" lon="7.21617">
        <ele>779.8</ele>
        <time>2023-04-04T08:49:25.000Z</time>
      </trkpt>
      <trkpt lat="47.39561" lon="7.2162">
        <ele>779.6</ele>
        <time>2023-04-04T08:49:26.000Z</time>
      </trkpt>
      <trkpt lat="47.39564" lon="7.2163">
        <ele>778.6</ele>
        <time>2023-04-04T08:49:33.000Z</time>
      </trkpt>
      <trkpt lat="47.39564" lon="7.21631">
        <ele>778.4</ele>
        <time>2023-04-04T08:49:34.000Z</time>
      </trkpt>
      <trkpt lat="47.3956" lon="7.21641">
        <ele>776</ele>
        <time>2023-04-04T08:49:49.000Z</time>
      </trkpt>
      <trkpt lat="47.39555" lon="7.21661">
        <ele>773.4</ele>
        <time>2023-04-04T08:50:04.000Z</time>
      </trkpt>
      <trkpt lat="47.39561" lon="7.2166">
        <ele>772</ele>
        <time>2023-04-04T08:50:10.000Z</time>
      </trkpt>
      <trkpt lat="47.39562" lon="7.21659">
        <ele>772</ele>
        <time>2023-04-04T08:50:11.000Z</time>
      </trkpt>
      <trkpt lat="47.39578" lon="7.21654">
        <ele>771</ele>
        <time>2023-04-04T08:50:20.000Z</time>
      </trkpt>
      <trkpt lat="47.39579" lon="7.21653">
        <ele>770.8</ele>
        <time>2023-04-04T08:50:21.000Z</time>
      </trkpt>
      <trkpt lat="47.39581" lon="7.21652">
        <ele>770.6</ele>
        <time>2023-04-04T08:50:22.000Z</time>
      </trkpt>
      <trkpt lat="47.39591" lon="7.21641">
        <ele>769.8</ele>
        <time>2023-04-04T08:50:30.000Z</time>
      </trkpt>
      <trkpt lat="47.39594" lon="7.21638">
        <ele>769.6</ele>
        <time>2023-04-04T08:50:32.000Z</time>
      </trkpt>
      <trkpt lat="47.39595" lon="7.21634">
        <ele>769.2</ele>
        <time>2023-04-04T08:50:34.000Z</time>
      </trkpt>
      <trkpt lat="47.39598" lon="7.21605">
        <ele>767</ele>
        <time>2023-04-04T08:50:50.000Z</time>
      </trkpt>
      <trkpt lat="47.396" lon="7.21586">
        <ele>765</ele>
        <time>2023-04-04T08:51:02.000Z</time>
      </trkpt>
      <trkpt lat="47.396" lon="7.21584">
        <ele>765</ele>
        <time>2023-04-04T08:51:03.000Z</time>
      </trkpt>
      <trkpt lat="47.39601" lon="7.2158">
        <ele>764.8</ele>
        <time>2023-04-04T08:51:05.000Z</time>
      </trkpt>
      <trkpt lat="47.39602" lon="7.21579">
        <ele>764.6</ele>
        <time>2023-04-04T08:51:06.000Z</time>
      </trkpt>
      <trkpt lat="47.39605" lon="7.21556">
        <ele>762.6</ele>
        <time>2023-04-04T08:51:20.000Z</time>
      </trkpt>
      <trkpt lat="47.39604" lon="7.21554">
        <ele>762.4</ele>
        <time>2023-04-04T08:51:21.000Z</time>
      </trkpt>
      <trkpt lat="47.39604" lon="7.21551">
        <ele>762.2</ele>
        <time>2023-04-04T08:51:22.000Z</time>
      </trkpt>
      <trkpt lat="47.39604" lon="7.21549">
        <ele>762.2</ele>
        <time>2023-04-04T08:51:23.000Z</time>
      </trkpt>
      <trkpt lat="47.39604" lon="7.21543">
        <ele>761.8</ele>
        <time>2023-04-04T08:51:26.000Z</time>
      </trkpt>
      <trkpt lat="47.39605" lon="7.2154">
        <ele>761.4</ele>
        <time>2023-04-04T08:51:27.000Z</time>
      </trkpt>
      <trkpt lat="47.39605" lon="7.21538">
        <ele>761.4</ele>
        <time>2023-04-04T08:51:28.000Z</time>
      </trkpt>
      <trkpt lat="47.39605" lon="7.21536">
        <ele>761.2</ele>
        <time>2023-04-04T08:51:29.000Z</time>
      </trkpt>
      <trkpt lat="47.39605" lon="7.21534">
        <ele>761.2</ele>
        <time>2023-04-04T08:51:30.000Z</time>
      </trkpt>
      <trkpt lat="47.39605" lon="7.21532">
        <ele>761</ele>
        <time>2023-04-04T08:51:31.000Z</time>
      </trkpt>
      <trkpt lat="47.39605" lon="7.2153">
        <ele>761</ele>
        <time>2023-04-04T08:51:32.000Z</time>
      </trkpt>
      <trkpt lat="47.39607" lon="7.21517">
        <ele>760</ele>
        <time>2023-04-04T08:51:39.000Z</time>
      </trkpt>
      <trkpt lat="47.39608" lon="7.21515">
        <ele>760</ele>
        <time>2023-04-04T08:51:40.000Z</time>
      </trkpt>
      <trkpt lat="47.39609" lon="7.215">
        <ele>759</ele>
        <time>2023-04-04T08:51:49.000Z</time>
      </trkpt>
      <trkpt lat="47.3961" lon="7.21498">
        <ele>758.8</ele>
        <time>2023-04-04T08:51:50.000Z</time>
      </trkpt>
      <trkpt lat="47.3961" lon="7.21496">
        <ele>758.6</ele>
        <time>2023-04-04T08:51:51.000Z</time>
      </trkpt>
      <trkpt lat="47.3961" lon="7.21495">
        <ele>758.6</ele>
        <time>2023-04-04T08:51:52.000Z</time>
      </trkpt>
      <trkpt lat="47.3961" lon="7.21493">
        <ele>758.6</ele>
        <time>2023-04-04T08:51:53.000Z</time>
      </trkpt>
      <trkpt lat="47.39612" lon="7.21466">
        <ele>756.4</ele>
        <time>2023-04-04T08:52:07.000Z</time>
      </trkpt>
      <trkpt lat="47.39611" lon="7.21439">
        <ele>754.4</ele>
        <time>2023-04-04T08:52:21.000Z</time>
      </trkpt>
      <trkpt lat="47.39612" lon="7.21437">
        <ele>754.2</ele>
        <time>2023-04-04T08:52:22.000Z</time>
      </trkpt>
      <trkpt lat="47.39613" lon="7.21411">
        <ele>751.6</ele>
        <time>2023-04-04T08:52:37.000Z</time>
      </trkpt>
      <trkpt lat="47.39609" lon="7.21406">
        <ele>750.8</ele>
        <time>2023-04-04T08:52:44.000Z</time>
      </trkpt>
      <trkpt lat="47.39606" lon="7.21392">
        <ele>750.6</ele>
        <time>2023-04-04T08:52:51.000Z</time>
      </trkpt>
      <trkpt lat="47.39607" lon="7.2139">
        <ele>750.2</ele>
        <time>2023-04-04T08:52:52.000Z</time>
      </trkpt>
      <trkpt lat="47.39607" lon="7.21388">
        <ele>750</ele>
        <time>2023-04-04T08:52:53.000Z</time>
      </trkpt>
      <trkpt lat="47.39606" lon="7.21386">
        <ele>749.8</ele>
        <time>2023-04-04T08:52:54.000Z</time>
      </trkpt>
      <trkpt lat="47.39606" lon="7.21385">
        <ele>749.4</ele>
        <time>2023-04-04T08:52:55.000Z</time>
      </trkpt>
      <trkpt lat="47.39607" lon="7.21374">
        <ele>748.8</ele>
        <time>2023-04-04T08:53:01.000Z</time>
      </trkpt>
      <trkpt lat="47.39607" lon="7.21372">
        <ele>748.6</ele>
        <time>2023-04-04T08:53:02.000Z</time>
      </trkpt>
      <trkpt lat="47.39605" lon="7.21344">
        <ele>746.4</ele>
        <time>2023-04-04T08:53:19.000Z</time>
      </trkpt>
      <trkpt lat="47.39598" lon="7.21314">
        <ele>743.8</ele>
        <time>2023-04-04T08:53:38.000Z</time>
      </trkpt>
      <trkpt lat="47.39598" lon="7.21312">
        <ele>743.6</ele>
        <time>2023-04-04T08:53:39.000Z</time>
      </trkpt>
      <trkpt lat="47.39598" lon="7.2131">
        <ele>743.6</ele>
        <time>2023-04-04T08:53:40.000Z</time>
      </trkpt>
      <trkpt lat="47.39597" lon="7.21304">
        <ele>743</ele>
        <time>2023-04-04T08:53:43.000Z</time>
      </trkpt>
      <trkpt lat="47.39596" lon="7.21302">
        <ele>742.8</ele>
        <time>2023-04-04T08:53:44.000Z</time>
      </trkpt>
      <trkpt lat="47.39595" lon="7.213">
        <ele>742.6</ele>
        <time>2023-04-04T08:53:45.000Z</time>
      </trkpt>
      <trkpt lat="47.39595" lon="7.21298">
        <ele>742.4</ele>
        <time>2023-04-04T08:53:46.000Z</time>
      </trkpt>
      <trkpt lat="47.39594" lon="7.21296">
        <ele>742.4</ele>
        <time>2023-04-04T08:53:47.000Z</time>
      </trkpt>
      <trkpt lat="47.39593" lon="7.21294">
        <ele>742.2</ele>
        <time>2023-04-04T08:53:48.000Z</time>
      </trkpt>
      <trkpt lat="47.39587" lon="7.21269">
        <ele>740</ele>
        <time>2023-04-04T08:54:01.000Z</time>
      </trkpt>
      <trkpt lat="47.39586" lon="7.21267">
        <ele>739.8</ele>
        <time>2023-04-04T08:54:02.000Z</time>
      </trkpt>
      <trkpt lat="47.39586" lon="7.21265">
        <ele>739.8</ele>
        <time>2023-04-04T08:54:03.000Z</time>
      </trkpt>
      <trkpt lat="47.39579" lon="7.21244">
        <ele>737.6</ele>
        <time>2023-04-04T08:54:15.000Z</time>
      </trkpt>
      <trkpt lat="47.39577" lon="7.21237">
        <ele>737</ele>
        <time>2023-04-04T08:54:19.000Z</time>
      </trkpt>
      <trkpt lat="47.39577" lon="7.21235">
        <ele>736.8</ele>
        <time>2023-04-04T08:54:20.000Z</time>
      </trkpt>
      <trkpt lat="47.39575" lon="7.21231">
        <ele>736.6</ele>
        <time>2023-04-04T08:54:22.000Z</time>
      </trkpt>
      <trkpt lat="47.39567" lon="7.21221">
        <ele>735.4</ele>
        <time>2023-04-04T08:54:31.000Z</time>
      </trkpt>
      <trkpt lat="47.39566" lon="7.2122">
        <ele>735.4</ele>
        <time>2023-04-04T08:54:32.000Z</time>
      </trkpt>
      <trkpt lat="47.39565" lon="7.21214">
        <ele>735</ele>
        <time>2023-04-04T08:54:35.000Z</time>
      </trkpt>
      <trkpt lat="47.39546" lon="7.21189">
        <ele>732.6</ele>
        <time>2023-04-04T08:54:50.000Z</time>
      </trkpt>
      <trkpt lat="47.39539" lon="7.21178">
        <ele>731.6</ele>
        <time>2023-04-04T08:54:58.000Z</time>
      </trkpt>
      <trkpt lat="47.39538" lon="7.21176">
        <ele>731.6</ele>
        <time>2023-04-04T08:54:59.000Z</time>
      </trkpt>
      <trkpt lat="47.39526" lon="7.21162">
        <ele>730</ele>
        <time>2023-04-04T08:55:09.000Z</time>
      </trkpt>
      <trkpt lat="47.39525" lon="7.2116">
        <ele>730</ele>
        <time>2023-04-04T08:55:10.000Z</time>
      </trkpt>
      <trkpt lat="47.39515" lon="7.21137">
        <ele>727.4</ele>
        <time>2023-04-04T08:55:26.000Z</time>
      </trkpt>
      <trkpt lat="47.39509" lon="7.2113">
        <ele>726.8</ele>
        <time>2023-04-04T08:55:31.000Z</time>
      </trkpt>
      <trkpt lat="47.39505" lon="7.21125">
        <ele>725.8</ele>
        <time>2023-04-04T08:55:35.000Z</time>
      </trkpt>
      <trkpt lat="47.39493" lon="7.21105">
        <ele>723.6</ele>
        <time>2023-04-04T08:55:51.000Z</time>
      </trkpt>
      <trkpt lat="47.3948" lon="7.21082">
        <ele>721.2</ele>
        <time>2023-04-04T08:56:05.000Z</time>
      </trkpt>
      <trkpt lat="47.39476" lon="7.21074">
        <ele>720.2</ele>
        <time>2023-04-04T08:56:10.000Z</time>
      </trkpt>
      <trkpt lat="47.39465" lon="7.21056">
        <ele>718</ele>
        <time>2023-04-04T08:56:24.000Z</time>
      </trkpt>
      <trkpt lat="47.39446" lon="7.21042">
        <ele>716</ele>
        <time>2023-04-04T08:56:39.000Z</time>
      </trkpt>
      <trkpt lat="47.39434" lon="7.21024">
        <ele>713.6</ele>
        <time>2023-04-04T08:56:54.000Z</time>
      </trkpt>
      <trkpt lat="47.39431" lon="7.21017">
        <ele>712.8</ele>
        <time>2023-04-04T08:57:00.000Z</time>
      </trkpt>
      <trkpt lat="47.39425" lon="7.21007">
        <ele>712</ele>
        <time>2023-04-04T08:57:06.000Z</time>
      </trkpt>
      <trkpt lat="47.39424" lon="7.21005">
        <ele>711.6</ele>
        <time>2023-04-04T08:57:07.000Z</time>
      </trkpt>
      <trkpt lat="47.39415" lon="7.20982">
        <ele>709.6</ele>
        <time>2023-04-04T08:57:21.000Z</time>
      </trkpt>
      <trkpt lat="47.39398" lon="7.20956">
        <ele>706.8</ele>
        <time>2023-04-04T08:57:39.000Z</time>
      </trkpt>
      <trkpt lat="47.39389" lon="7.20934">
        <ele>705</ele>
        <time>2023-04-04T08:57:50.000Z</time>
      </trkpt>
      <trkpt lat="47.39388" lon="7.20932">
        <ele>704.8</ele>
        <time>2023-04-04T08:57:51.000Z</time>
      </trkpt>
      <trkpt lat="47.39363" lon="7.20904">
        <ele>702.2</ele>
        <time>2023-04-04T08:58:08.000Z</time>
      </trkpt>
      <trkpt lat="47.39347" lon="7.20884">
        <ele>699.6</ele>
        <time>2023-04-04T08:58:24.000Z</time>
      </trkpt>
      <trkpt lat="47.39344" lon="7.20879">
        <ele>698.8</ele>
        <time>2023-04-04T08:58:40.000Z</time>
      </trkpt>
      <trkpt lat="47.39335" lon="7.20874">
        <ele>697.4</ele>
        <time>2023-04-04T08:58:54.000Z</time>
      </trkpt>
      <trkpt lat="47.39333" lon="7.20873">
        <ele>696.6</ele>
        <time>2023-04-04T08:58:56.000Z</time>
      </trkpt>
      <trkpt lat="47.39316" lon="7.20862">
        <ele>694.6</ele>
        <time>2023-04-04T08:59:09.000Z</time>
      </trkpt>
      <trkpt lat="47.39304" lon="7.20849">
        <ele>691.8</ele>
        <time>2023-04-04T08:59:23.000Z</time>
      </trkpt>
      <trkpt lat="47.39286" lon="7.20836">
        <ele>689.6</ele>
        <time>2023-04-04T08:59:40.000Z</time>
      </trkpt>
      <trkpt lat="47.39284" lon="7.20835">
        <ele>689.4</ele>
        <time>2023-04-04T08:59:41.000Z</time>
      </trkpt>
      <trkpt lat="47.39263" lon="7.20827">
        <ele>687</ele>
        <time>2023-04-04T08:59:55.000Z</time>
      </trkpt>
      <trkpt lat="47.39252" lon="7.2084">
        <ele>685</ele>
        <time>2023-04-04T09:00:11.000Z</time>
      </trkpt>
      <trkpt lat="47.39249" lon="7.20842">
        <ele>684.8</ele>
        <time>2023-04-04T09:00:18.000Z</time>
      </trkpt>
      <trkpt lat="47.39248" lon="7.20842">
        <ele>684.8</ele>
        <time>2023-04-04T09:00:19.000Z</time>
      </trkpt>
      <trkpt lat="47.39247" lon="7.20842">
        <ele>684.8</ele>
        <time>2023-04-04T09:00:20.000Z</time>
      </trkpt>
      <trkpt lat="47.39246" lon="7.20843">
        <ele>684.8</ele>
        <time>2023-04-04T09:00:21.000Z</time>
      </trkpt>
      <trkpt lat="47.39245" lon="7.20844">
        <ele>684.6</ele>
        <time>2023-04-04T09:00:22.000Z</time>
      </trkpt>
      <trkpt lat="47.39244" lon="7.20846">
        <ele>684.4</ele>
        <time>2023-04-04T09:00:23.000Z</time>
      </trkpt>
      <trkpt lat="47.39243" lon="7.20848">
        <ele>684</ele>
        <time>2023-04-04T09:00:25.000Z</time>
      </trkpt>
      <trkpt lat="47.39242" lon="7.20849">
        <ele>684</ele>
        <time>2023-04-04T09:00:26.000Z</time>
      </trkpt>
      <trkpt lat="47.39241" lon="7.20849">
        <ele>683.8</ele>
        <time>2023-04-04T09:00:27.000Z</time>
      </trkpt>
      <trkpt lat="47.39226" lon="7.20863">
        <ele>680.8</ele>
        <time>2023-04-04T09:00:43.000Z</time>
      </trkpt>
      <trkpt lat="47.3921" lon="7.20879">
        <ele>677.8</ele>
        <time>2023-04-04T09:00:59.000Z</time>
      </trkpt>
      <trkpt lat="47.392" lon="7.20883">
        <ele>676.4</ele>
        <time>2023-04-04T09:01:08.000Z</time>
      </trkpt>
      <trkpt lat="47.39186" lon="7.20894">
        <ele>674.4</ele>
        <time>2023-04-04T09:01:21.000Z</time>
      </trkpt>
      <trkpt lat="47.39179" lon="7.20903">
        <ele>673.4</ele>
        <time>2023-04-04T09:01:27.000Z</time>
      </trkpt>
      <trkpt lat="47.39178" lon="7.20904">
        <ele>673.2</ele>
        <time>2023-04-04T09:01:28.000Z</time>
      </trkpt>
      <trkpt lat="47.39177" lon="7.20905">
        <ele>673</ele>
        <time>2023-04-04T09:01:29.000Z</time>
      </trkpt>
      <trkpt lat="47.39175" lon="7.20906">
        <ele>672.8</ele>
        <time>2023-04-04T09:01:30.000Z</time>
      </trkpt>
      <trkpt lat="47.39168" lon="7.20915">
        <ele>671.6</ele>
        <time>2023-04-04T09:01:38.000Z</time>
      </trkpt>
      <trkpt lat="47.39167" lon="7.20917">
        <ele>671.4</ele>
        <time>2023-04-04T09:01:39.000Z</time>
      </trkpt>
      <trkpt lat="47.39166" lon="7.20919">
        <ele>671.2</ele>
        <time>2023-04-04T09:01:40.000Z</time>
      </trkpt>
      <trkpt lat="47.39165" lon="7.20924">
        <ele>670.8</ele>
        <time>2023-04-04T09:01:42.000Z</time>
      </trkpt>
      <trkpt lat="47.39163" lon="7.20929">
        <ele>670.4</ele>
        <time>2023-04-04T09:01:45.000Z</time>
      </trkpt>
      <trkpt lat="47.39162" lon="7.2093">
        <ele>670.4</ele>
        <time>2023-04-04T09:01:46.000Z</time>
      </trkpt>
      <trkpt lat="47.39147" lon="7.20951">
        <ele>668.2</ele>
        <time>2023-04-04T09:02:02.000Z</time>
      </trkpt>
      <trkpt lat="47.39143" lon="7.2096">
        <ele>667.8</ele>
        <time>2023-04-04T09:02:08.000Z</time>
      </trkpt>
      <trkpt lat="47.39141" lon="7.20965">
        <ele>667.2</ele>
        <time>2023-04-04T09:02:12.000Z</time>
      </trkpt>
      <trkpt lat="47.39138" lon="7.2097">
        <ele>666.8</ele>
        <time>2023-04-04T09:02:15.000Z</time>
      </trkpt>
      <trkpt lat="47.39138" lon="7.20972">
        <ele>666.6</ele>
        <time>2023-04-04T09:02:16.000Z</time>
      </trkpt>
      <trkpt lat="47.39137" lon="7.20973">
        <ele>666.4</ele>
        <time>2023-04-04T09:02:17.000Z</time>
      </trkpt>
      <trkpt lat="47.39133" lon="7.2098">
        <ele>665.2</ele>
        <time>2023-04-04T09:02:23.000Z</time>
      </trkpt>
      <trkpt lat="47.39128" lon="7.20986">
        <ele>664</ele>
        <time>2023-04-04T09:02:40.000Z</time>
      </trkpt>
      <trkpt lat="47.39126" lon="7.20993">
        <ele>664.2</ele>
        <time>2023-04-04T09:02:49.000Z</time>
      </trkpt>
      <trkpt lat="47.39129" lon="7.20989">
        <ele>663.8</ele>
        <time>2023-04-04T09:03:08.000Z</time>
      </trkpt>
      <trkpt lat="47.39128" lon="7.20976">
        <ele>662.6</ele>
        <time>2023-04-04T09:03:17.000Z</time>
      </trkpt>
      <trkpt lat="47.39128" lon="7.2097">
        <ele>662.2</ele>
        <time>2023-04-04T09:03:20.000Z</time>
      </trkpt>
      <trkpt lat="47.39129" lon="7.20965">
        <ele>661.8</ele>
        <time>2023-04-04T09:03:23.000Z</time>
      </trkpt>
      <trkpt lat="47.39134" lon="7.2094">
        <ele>659.2</ele>
        <time>2023-04-04T09:03:37.000Z</time>
      </trkpt>
      <trkpt lat="47.39135" lon="7.20935">
        <ele>659</ele>
        <time>2023-04-04T09:03:40.000Z</time>
      </trkpt>
      <trkpt lat="47.39137" lon="7.20926">
        <ele>658.6</ele>
        <time>2023-04-04T09:03:45.000Z</time>
      </trkpt>
      <trkpt lat="47.39137" lon="7.20913">
        <ele>656.8</ele>
        <time>2023-04-04T09:03:59.000Z</time>
      </trkpt>
      <trkpt lat="47.39132" lon="7.20907">
        <ele>657</ele>
        <time>2023-04-04T09:04:19.000Z</time>
      </trkpt>
      <trkpt lat="47.39131" lon="7.20903">
        <ele>656.8</ele>
        <time>2023-04-04T09:04:22.000Z</time>
      </trkpt>
      <trkpt lat="47.39132" lon="7.20902">
        <ele>656.6</ele>
        <time>2023-04-04T09:04:23.000Z</time>
      </trkpt>
      <trkpt lat="47.39132" lon="7.20901">
        <ele>656.6</ele>
        <time>2023-04-04T09:04:24.000Z</time>
      </trkpt>
      <trkpt lat="47.39133" lon="7.20899">
        <ele>656.4</ele>
        <time>2023-04-04T09:04:25.000Z</time>
      </trkpt>
      <trkpt lat="47.39134" lon="7.20898">
        <ele>656.4</ele>
        <time>2023-04-04T09:04:26.000Z</time>
      </trkpt>
      <trkpt lat="47.39134" lon="7.20896">
        <ele>656.4</ele>
        <time>2023-04-04T09:04:27.000Z</time>
      </trkpt>
      <trkpt lat="47.39134" lon="7.20895">
        <ele>656.4</ele>
        <time>2023-04-04T09:04:28.000Z</time>
      </trkpt>
      <trkpt lat="47.39133" lon="7.20884">
        <ele>655.4</ele>
        <time>2023-04-04T09:04:34.000Z</time>
      </trkpt>
      <trkpt lat="47.39134" lon="7.20883">
        <ele>655.2</ele>
        <time>2023-04-04T09:04:35.000Z</time>
      </trkpt>
      <trkpt lat="47.39135" lon="7.20882">
        <ele>655.2</ele>
        <time>2023-04-04T09:04:36.000Z</time>
      </trkpt>
      <trkpt lat="47.39136" lon="7.2088">
        <ele>655</ele>
        <time>2023-04-04T09:04:37.000Z</time>
      </trkpt>
      <trkpt lat="47.39137" lon="7.20879">
        <ele>654.8</ele>
        <time>2023-04-04T09:04:38.000Z</time>
      </trkpt>
      <trkpt lat="47.39137" lon="7.20877">
        <ele>654.6</ele>
        <time>2023-04-04T09:04:39.000Z</time>
      </trkpt>
      <trkpt lat="47.39138" lon="7.20875">
        <ele>654.2</ele>
        <time>2023-04-04T09:04:41.000Z</time>
      </trkpt>
      <trkpt lat="47.39139" lon="7.20874">
        <ele>654.2</ele>
        <time>2023-04-04T09:04:42.000Z</time>
      </trkpt>
      <trkpt lat="47.39139" lon="7.20861">
        <ele>652.8</ele>
        <time>2023-04-04T09:04:51.000Z</time>
      </trkpt>
      <trkpt lat="47.39141" lon="7.20852">
        <ele>652.4</ele>
        <time>2023-04-04T09:04:55.000Z</time>
      </trkpt>
      <trkpt lat="47.39141" lon="7.2085">
        <ele>652</ele>
        <time>2023-04-04T09:04:56.000Z</time>
      </trkpt>
      <trkpt lat="47.39141" lon="7.20848">
        <ele>652</ele>
        <time>2023-04-04T09:04:57.000Z</time>
      </trkpt>
      <trkpt lat="47.39141" lon="7.20844">
        <ele>651.6</ele>
        <time>2023-04-04T09:04:59.000Z</time>
      </trkpt>
      <trkpt lat="47.39139" lon="7.20818">
        <ele>650</ele>
        <time>2023-04-04T09:05:12.000Z</time>
      </trkpt>
      <trkpt lat="47.39138" lon="7.20816">
        <ele>649.8</ele>
        <time>2023-04-04T09:05:13.000Z</time>
      </trkpt>
      <trkpt lat="47.39134" lon="7.20794">
        <ele>649.2</ele>
        <time>2023-04-04T09:05:23.000Z</time>
      </trkpt>
      <trkpt lat="47.39115" lon="7.20778">
        <ele>649.2</ele>
        <time>2023-04-04T09:05:38.000Z</time>
      </trkpt>
      <trkpt lat="47.39099" lon="7.20769">
        <ele>649.6</ele>
        <time>2023-04-04T09:05:51.000Z</time>
      </trkpt>
      <trkpt lat="47.3905" lon="7.20724">
        <ele>653.6</ele>
        <time>2023-04-04T09:06:48.000Z</time>
      </trkpt>
      <trkpt lat="47.3899" lon="7.20681">
        <ele>662</ele>
        <time>2023-04-04T09:08:20.000Z</time>
      </trkpt>
      <trkpt lat="47.38989" lon="7.20672">
        <ele>663</ele>
        <time>2023-04-04T09:08:30.000Z</time>
      </trkpt>
      <trkpt lat="47.38986" lon="7.20666">
        <ele>664.8</ele>
        <time>2023-04-04T09:08:43.000Z</time>
      </trkpt>
      <trkpt lat="47.38987" lon="7.20661">
        <ele>667.4</ele>
        <time>2023-04-04T09:08:58.000Z</time>
      </trkpt>
      <trkpt lat="47.38986" lon="7.20665">
        <ele>667.4</ele>
        <time>2023-04-04T09:09:20.000Z</time>
      </trkpt>
      <trkpt lat="47.38989" lon="7.20661">
        <ele>667.8</ele>
        <time>2023-04-04T09:09:43.000Z</time>
      </trkpt>
      <trkpt lat="47.38991" lon="7.20653">
        <ele>670.8</ele>
        <time>2023-04-04T09:09:58.000Z</time>
      </trkpt>
      <trkpt lat="47.38996" lon="7.2065">
        <ele>674</ele>
        <time>2023-04-04T09:10:14.000Z</time>
      </trkpt>
      <trkpt lat="47.38997" lon="7.20619">
        <ele>679.4</ele>
        <time>2023-04-04T09:10:46.000Z</time>
      </trkpt>
      <trkpt lat="47.39" lon="7.20611">
        <ele>680.8</ele>
        <time>2023-04-04T09:10:57.000Z</time>
      </trkpt>
      <trkpt lat="47.39001" lon="7.20604">
        <ele>683</ele>
        <time>2023-04-04T09:11:09.000Z</time>
      </trkpt>
      <trkpt lat="47.39005" lon="7.20597">
        <ele>686.2</ele>
        <time>2023-04-04T09:11:25.000Z</time>
      </trkpt>
      <trkpt lat="47.39009" lon="7.2059">
        <ele>688.8</ele>
        <time>2023-04-04T09:11:39.000Z</time>
      </trkpt>
      <trkpt lat="47.39012" lon="7.20578">
        <ele>689.6</ele>
        <time>2023-04-04T09:11:52.000Z</time>
      </trkpt>
      <trkpt lat="47.39022" lon="7.20561">
        <ele>692.4</ele>
        <time>2023-04-04T09:12:13.000Z</time>
      </trkpt>
      <trkpt lat="47.39027" lon="7.20548">
        <ele>694.6</ele>
        <time>2023-04-04T09:12:33.000Z</time>
      </trkpt>
      <trkpt lat="47.39035" lon="7.20543">
        <ele>695.4</ele>
        <time>2023-04-04T09:12:46.000Z</time>
      </trkpt>
      <trkpt lat="47.39042" lon="7.20531">
        <ele>697</ele>
        <time>2023-04-04T09:13:03.000Z</time>
      </trkpt>
      <trkpt lat="47.39043" lon="7.20527">
        <ele>699.2</ele>
        <time>2023-04-04T09:13:17.000Z</time>
      </trkpt>
      <trkpt lat="47.39052" lon="7.20522">
        <ele>702.4</ele>
        <time>2023-04-04T09:13:37.000Z</time>
      </trkpt>
      <trkpt lat="47.39057" lon="7.20514">
        <ele>704.6</ele>
        <time>2023-04-04T09:13:54.000Z</time>
      </trkpt>
      <trkpt lat="47.39063" lon="7.20513">
        <ele>706.8</ele>
        <time>2023-04-04T09:14:08.000Z</time>
      </trkpt>
      <trkpt lat="47.39073" lon="7.20512">
        <ele>709.6</ele>
        <time>2023-04-04T09:14:26.000Z</time>
      </trkpt>
      <trkpt lat="47.39085" lon="7.20508">
        <ele>712.8</ele>
        <time>2023-04-04T09:14:43.000Z</time>
      </trkpt>
      <trkpt lat="47.39083" lon="7.20499">
        <ele>715.6</ele>
        <time>2023-04-04T09:14:58.000Z</time>
      </trkpt>
      <trkpt lat="47.39085" lon="7.20486">
        <ele>718.8</ele>
        <time>2023-04-04T09:15:12.000Z</time>
      </trkpt>
      <trkpt lat="47.39084" lon="7.20472">
        <ele>721.4</ele>
        <time>2023-04-04T09:15:27.000Z</time>
      </trkpt>
      <trkpt lat="47.39089" lon="7.20473">
        <ele>723.2</ele>
        <time>2023-04-04T09:15:51.000Z</time>
      </trkpt>
      <trkpt lat="47.39074" lon="7.20447">
        <ele>730.8</ele>
        <time>2023-04-04T09:16:51.000Z</time>
      </trkpt>
      <trkpt lat="47.39073" lon="7.20446">
        <ele>731.6</ele>
        <time>2023-04-04T09:16:53.000Z</time>
      </trkpt>
      <trkpt lat="47.39071" lon="7.20439">
        <ele>734.6</ele>
        <time>2023-04-04T09:17:09.000Z</time>
      </trkpt>
      <trkpt lat="47.39062" lon="7.20429">
        <ele>737.8</ele>
        <time>2023-04-04T09:17:26.000Z</time>
      </trkpt>
      <trkpt lat="47.39055" lon="7.20424">
        <ele>740.8</ele>
        <time>2023-04-04T09:17:42.000Z</time>
      </trkpt>
      <trkpt lat="47.39052" lon="7.2043">
        <ele>741</ele>
        <time>2023-04-04T09:18:12.000Z</time>
      </trkpt>
      <trkpt lat="47.39037" lon="7.20403">
        <ele>742.2</ele>
        <time>2023-04-04T09:18:59.000Z</time>
      </trkpt>
      <trkpt lat="47.39035" lon="7.20393">
        <ele>745.4</ele>
        <time>2023-04-04T09:19:15.000Z</time>
      </trkpt>
      <trkpt lat="47.39036" lon="7.20383">
        <ele>748.4</ele>
        <time>2023-04-04T09:19:35.000Z</time>
      </trkpt>
      <trkpt lat="47.39044" lon="7.20389">
        <ele>749</ele>
        <time>2023-04-04T09:19:50.000Z</time>
      </trkpt>
      <trkpt lat="47.39054" lon="7.20391">
        <ele>751</ele>
        <time>2023-04-04T09:20:04.000Z</time>
      </trkpt>
      <trkpt lat="47.39067" lon="7.20398">
        <ele>752.2</ele>
        <time>2023-04-04T09:20:20.000Z</time>
      </trkpt>
      <trkpt lat="47.39068" lon="7.20398">
        <ele>752.2</ele>
        <time>2023-04-04T09:20:21.000Z</time>
      </trkpt>
      <trkpt lat="47.39078" lon="7.20397">
        <ele>754.6</ele>
        <time>2023-04-04T09:20:39.000Z</time>
      </trkpt>
      <trkpt lat="47.39094" lon="7.20392">
        <ele>757.6</ele>
        <time>2023-04-04T09:20:55.000Z</time>
      </trkpt>
      <trkpt lat="47.39103" lon="7.20383">
        <ele>758.8</ele>
        <time>2023-04-04T09:21:09.000Z</time>
      </trkpt>
      <trkpt lat="47.39117" lon="7.20362">
        <ele>760.2</ele>
        <time>2023-04-04T09:21:30.000Z</time>
      </trkpt>
      <trkpt lat="47.39129" lon="7.20336">
        <ele>763.2</ele>
        <time>2023-04-04T09:21:49.000Z</time>
      </trkpt>
      <trkpt lat="47.39141" lon="7.2033">
        <ele>764.8</ele>
        <time>2023-04-04T09:22:04.000Z</time>
      </trkpt>
      <trkpt lat="47.39144" lon="7.20332">
        <ele>765.4</ele>
        <time>2023-04-04T09:22:12.000Z</time>
      </trkpt>
      <trkpt lat="47.39155" lon="7.20342">
        <ele>766.8</ele>
        <time>2023-04-04T09:22:30.000Z</time>
      </trkpt>
      <trkpt lat="47.39158" lon="7.20345">
        <ele>767.2</ele>
        <time>2023-04-04T09:22:33.000Z</time>
      </trkpt>
      <trkpt lat="47.39158" lon="7.20315">
        <ele>770.2</ele>
        <time>2023-04-04T09:22:53.000Z</time>
      </trkpt>
      <trkpt lat="47.39154" lon="7.20293">
        <ele>772</ele>
        <time>2023-04-04T09:23:08.000Z</time>
      </trkpt>
      <trkpt lat="47.39144" lon="7.20274">
        <ele>774.2</ele>
        <time>2023-04-04T09:23:26.000Z</time>
      </trkpt>
      <trkpt lat="47.39134" lon="7.2026">
        <ele>776.8</ele>
        <time>2023-04-04T09:23:42.000Z</time>
      </trkpt>
      <trkpt lat="47.39128" lon="7.20259">
        <ele>777.6</ele>
        <time>2023-04-04T09:23:55.000Z</time>
      </trkpt>
      <trkpt lat="47.39127" lon="7.20258">
        <ele>777.6</ele>
        <time>2023-04-04T09:24:23.000Z</time>
      </trkpt>
      <trkpt lat="47.3913" lon="7.20248">
        <ele>777.4</ele>
        <time>2023-04-04T09:24:52.000Z</time>
      </trkpt>
      <trkpt lat="47.39128" lon="7.20254">
        <ele>777.4</ele>
        <time>2023-04-04T09:25:22.000Z</time>
      </trkpt>
      <trkpt lat="47.39131" lon="7.20259">
        <ele>777.4</ele>
        <time>2023-04-04T09:25:42.000Z</time>
      </trkpt>
      <trkpt lat="47.39123" lon="7.20256">
        <ele>777.4</ele>
        <time>2023-04-04T09:26:04.000Z</time>
      </trkpt>
      <trkpt lat="47.39122" lon="7.20256">
        <ele>778</ele>
        <time>2023-04-04T09:26:23.000Z</time>
      </trkpt>
      <trkpt lat="47.39125" lon="7.2025">
        <ele>779.4</ele>
        <time>2023-04-04T09:26:42.000Z</time>
      </trkpt>
      <trkpt lat="47.39131" lon="7.20237">
        <ele>782.2</ele>
        <time>2023-04-04T09:27:00.000Z</time>
      </trkpt>
      <trkpt lat="47.39133" lon="7.20229">
        <ele>785.6</ele>
        <time>2023-04-04T09:27:15.000Z</time>
      </trkpt>
      <trkpt lat="47.39135" lon="7.20217">
        <ele>788.6</ele>
        <time>2023-04-04T09:27:30.000Z</time>
      </trkpt>
      <trkpt lat="47.39136" lon="7.20208">
        <ele>791.6</ele>
        <time>2023-04-04T09:27:46.000Z</time>
      </trkpt>
      <trkpt lat="47.39131" lon="7.20199">
        <ele>794.6</ele>
        <time>2023-04-04T09:28:10.000Z</time>
      </trkpt>
      <trkpt lat="47.39125" lon="7.20204">
        <ele>795.4</ele>
        <time>2023-04-04T09:28:39.000Z</time>
      </trkpt>
      <trkpt lat="47.39128" lon="7.20201">
        <ele>795.6</ele>
        <time>2023-04-04T09:28:50.000Z</time>
      </trkpt>
      <trkpt lat="47.39132" lon="7.20197">
        <ele>798.8</ele>
        <time>2023-04-04T09:29:03.000Z</time>
      </trkpt>
      <trkpt lat="47.39138" lon="7.20194">
        <ele>801.8</ele>
        <time>2023-04-04T09:29:15.000Z</time>
      </trkpt>
      <trkpt lat="47.39143" lon="7.20191">
        <ele>804.8</ele>
        <time>2023-04-04T09:29:28.000Z</time>
      </trkpt>
      <trkpt lat="47.3915" lon="7.20188">
        <ele>808.2</ele>
        <time>2023-04-04T09:29:42.000Z</time>
      </trkpt>
      <trkpt lat="47.39166" lon="7.20186">
        <ele>814.6</ele>
        <time>2023-04-04T09:30:10.000Z</time>
      </trkpt>
      <trkpt lat="47.39174" lon="7.20178">
        <ele>817.6</ele>
        <time>2023-04-04T09:30:26.000Z</time>
      </trkpt>
      <trkpt lat="47.39176" lon="7.20172">
        <ele>817.4</ele>
        <time>2023-04-04T09:30:55.000Z</time>
      </trkpt>
      <trkpt lat="47.39263" lon="7.20199">
        <ele>831.8</ele>
        <time>2023-04-04T09:33:14.000Z</time>
      </trkpt>
      <trkpt lat="47.39262" lon="7.20153">
        <ele>834.8</ele>
        <time>2023-04-04T09:33:40.000Z</time>
      </trkpt>
      <trkpt lat="47.39251" lon="7.20118">
        <ele>836.8</ele>
        <time>2023-04-04T09:34:02.000Z</time>
      </trkpt>
      <trkpt lat="47.39238" lon="7.20096">
        <ele>838.2</ele>
        <time>2023-04-04T09:34:18.000Z</time>
      </trkpt>
      <trkpt lat="47.39225" lon="7.20067">
        <ele>839.8</ele>
        <time>2023-04-04T09:34:38.000Z</time>
      </trkpt>
      <trkpt lat="47.39216" lon="7.20044">
        <ele>842</ele>
        <time>2023-04-04T09:34:58.000Z</time>
      </trkpt>
      <trkpt lat="47.39204" lon="7.20021">
        <ele>844.2</ele>
        <time>2023-04-04T09:35:17.000Z</time>
      </trkpt>
      <trkpt lat="47.39204" lon="7.20016">
        <ele>846</ele>
        <time>2023-04-04T09:35:34.000Z</time>
      </trkpt>
      <trkpt lat="47.39207" lon="7.20019">
        <ele>847.6</ele>
        <time>2023-04-04T09:35:52.000Z</time>
      </trkpt>
      <trkpt lat="47.392" lon="7.20006">
        <ele>846.6</ele>
        <time>2023-04-04T09:36:20.000Z</time>
      </trkpt>
      <trkpt lat="47.39192" lon="7.20003">
        <ele>846</ele>
        <time>2023-04-04T09:36:31.000Z</time>
      </trkpt>
      <trkpt lat="47.39188" lon="7.19994">
        <ele>846.4</ele>
        <time>2023-04-04T09:36:40.000Z</time>
      </trkpt>
      <trkpt lat="47.39175" lon="7.19979">
        <ele>847.6</ele>
        <time>2023-04-04T09:36:56.000Z</time>
      </trkpt>
      <trkpt lat="47.39161" lon="7.19962">
        <ele>848.8</ele>
        <time>2023-04-04T09:37:14.000Z</time>
      </trkpt>
      <trkpt lat="47.39154" lon="7.19948">
        <ele>850.2</ele>
        <time>2023-04-04T09:37:32.000Z</time>
      </trkpt>
      <trkpt lat="47.39164" lon="7.19966">
        <ele>851.2</ele>
        <time>2023-04-04T09:37:51.000Z</time>
      </trkpt>
      <trkpt lat="47.39178" lon="7.19973">
        <ele>851</ele>
        <time>2023-04-04T09:38:10.000Z</time>
      </trkpt>
      <trkpt lat="47.39186" lon="7.19971">
        <ele>851.2</ele>
        <time>2023-04-04T09:38:18.000Z</time>
      </trkpt>
      <trkpt lat="47.39189" lon="7.19965">
        <ele>851</ele>
        <time>2023-04-04T09:38:52.000Z</time>
      </trkpt>
      <trkpt lat="47.39189" lon="7.19957">
        <ele>851</ele>
        <time>2023-04-04T09:39:22.000Z</time>
      </trkpt>
      <trkpt lat="47.39182" lon="7.19951">
        <ele>851.2</ele>
        <time>2023-04-04T09:40:02.000Z</time>
      </trkpt>
      <trkpt lat="47.39179" lon="7.19946">
        <ele>851</ele>
        <time>2023-04-04T09:40:34.000Z</time>
      </trkpt>
      <trkpt lat="47.39172" lon="7.19948">
        <ele>850.8</ele>
        <time>2023-04-04T09:40:41.000Z</time>
      </trkpt>
      <trkpt lat="47.39168" lon="7.19949">
        <ele>850.6</ele>
        <time>2023-04-04T09:40:45.000Z</time>
      </trkpt>
      <trkpt lat="47.39157" lon="7.19945">
        <ele>850.6</ele>
        <time>2023-04-04T09:40:59.000Z</time>
      </trkpt>
      <trkpt lat="47.39148" lon="7.19943">
        <ele>850</ele>
        <time>2023-04-04T09:41:09.000Z</time>
      </trkpt>
      <trkpt lat="47.39141" lon="7.19935">
        <ele>850.8</ele>
        <time>2023-04-04T09:41:18.000Z</time>
      </trkpt>
      <trkpt lat="47.3914" lon="7.1993">
        <ele>851.6</ele>
        <time>2023-04-04T09:41:39.000Z</time>
      </trkpt>
      <trkpt lat="47.39138" lon="7.19919">
        <ele>851.2</ele>
        <time>2023-04-04T09:42:11.000Z</time>
      </trkpt>
      <trkpt lat="47.39142" lon="7.19927">
        <ele>851.6</ele>
        <time>2023-04-04T09:42:33.000Z</time>
      </trkpt>
      <trkpt lat="47.39125" lon="7.19915">
        <ele>852.8</ele>
        <time>2023-04-04T09:42:53.000Z</time>
      </trkpt>
      <trkpt lat="47.3912" lon="7.19899">
        <ele>855.8</ele>
        <time>2023-04-04T09:43:11.000Z</time>
      </trkpt>
      <trkpt lat="47.39114" lon="7.19881">
        <ele>859</ele>
        <time>2023-04-04T09:43:31.000Z</time>
      </trkpt>
      <trkpt lat="47.39114" lon="7.19865">
        <ele>862.2</ele>
        <time>2023-04-04T09:43:49.000Z</time>
      </trkpt>
      <trkpt lat="47.39111" lon="7.1985">
        <ele>865.2</ele>
        <time>2023-04-04T09:44:07.000Z</time>
      </trkpt>
      <trkpt lat="47.39111" lon="7.1984">
        <ele>868.4</ele>
        <time>2023-04-04T09:44:25.000Z</time>
      </trkpt>
      <trkpt lat="47.39104" lon="7.19825">
        <ele>871</ele>
        <time>2023-04-04T09:44:53.000Z</time>
      </trkpt>
      <trkpt lat="47.39093" lon="7.19814">
        <ele>874</ele>
        <time>2023-04-04T09:45:10.000Z</time>
      </trkpt>
      <trkpt lat="47.39086" lon="7.19799">
        <ele>877</ele>
        <time>2023-04-04T09:45:29.000Z</time>
      </trkpt>
      <trkpt lat="47.39081" lon="7.19789">
        <ele>879</ele>
        <time>2023-04-04T09:45:49.000Z</time>
      </trkpt>
      <trkpt lat="47.39078" lon="7.19776">
        <ele>882</ele>
        <time>2023-04-04T09:46:08.000Z</time>
      </trkpt>
      <trkpt lat="47.3907" lon="7.19758">
        <ele>885</ele>
        <time>2023-04-04T09:46:28.000Z</time>
      </trkpt>
      <trkpt lat="47.39064" lon="7.19749">
        <ele>888</ele>
        <time>2023-04-04T09:46:47.000Z</time>
      </trkpt>
      <trkpt lat="47.39064" lon="7.19746">
        <ele>888.4</ele>
        <time>2023-04-04T09:47:20.000Z</time>
      </trkpt>
      <trkpt lat="47.39039" lon="7.19719">
        <ele>894.4</ele>
        <time>2023-04-04T09:47:57.000Z</time>
      </trkpt>
      <trkpt lat="47.39023" lon="7.19716">
        <ele>897.4</ele>
        <time>2023-04-04T09:48:15.000Z</time>
      </trkpt>
      <trkpt lat="47.39015" lon="7.19713">
        <ele>899.4</ele>
        <time>2023-04-04T09:48:34.000Z</time>
      </trkpt>
      <trkpt lat="47.38948" lon="7.19703">
        <ele>913</ele>
        <time>2023-04-04T09:50:02.000Z</time>
      </trkpt>
      <trkpt lat="47.38943" lon="7.19706">
        <ele>915.8</ele>
        <time>2023-04-04T09:50:26.000Z</time>
      </trkpt>
      <trkpt lat="47.38937" lon="7.19698">
        <ele>915.6</ele>
        <time>2023-04-04T09:50:45.000Z</time>
      </trkpt>
      <trkpt lat="47.38937" lon="7.19704">
        <ele>915.2</ele>
        <time>2023-04-04T09:51:13.000Z</time>
      </trkpt>
      <trkpt lat="47.38939" lon="7.19709">
        <ele>914.8</ele>
        <time>2023-04-04T09:51:42.000Z</time>
      </trkpt>
      <trkpt lat="47.3894" lon="7.19704">
        <ele>915.8</ele>
        <time>2023-04-04T09:52:13.000Z</time>
      </trkpt>
      <trkpt lat="47.38939" lon="7.19725">
        <ele>914.2</ele>
        <time>2023-04-04T09:52:59.000Z</time>
      </trkpt>
      <trkpt lat="47.38935" lon="7.19728">
        <ele>912.4</ele>
        <time>2023-04-04T09:53:14.000Z</time>
      </trkpt>
      <trkpt lat="47.38936" lon="7.19728">
        <ele>911.6</ele>
        <time>2023-04-04T09:53:36.000Z</time>
      </trkpt>
      <trkpt lat="47.38935" lon="7.19728">
        <ele>912.4</ele>
        <time>2023-04-04T09:54:12.000Z</time>
      </trkpt>
      <trkpt lat="47.38934" lon="7.19728">
        <ele>912.8</ele>
        <time>2023-04-04T10:02:42.000Z</time>
      </trkpt>
      <trkpt lat="47.38951" lon="7.19722">
        <ele>912</ele>
        <time>2023-04-04T10:03:24.000Z</time>
      </trkpt>
      <trkpt lat="47.38955" lon="7.19719">
        <ele>910.2</ele>
        <time>2023-04-04T10:03:38.000Z</time>
      </trkpt>
      <trkpt lat="47.39017" lon="7.19719">
        <ele>898.8</ele>
        <time>2023-04-04T10:05:10.000Z</time>
      </trkpt>
      <trkpt lat="47.39033" lon="7.19721">
        <ele>895.8</ele>
        <time>2023-04-04T10:05:23.000Z</time>
      </trkpt>
      <trkpt lat="47.39042" lon="7.19726">
        <ele>893.4</ele>
        <time>2023-04-04T10:05:31.000Z</time>
      </trkpt>
      <trkpt lat="47.39045" lon="7.19729">
        <ele>892</ele>
        <time>2023-04-04T10:05:34.000Z</time>
      </trkpt>
      <trkpt lat="47.39061" lon="7.19742">
        <ele>888.8</ele>
        <time>2023-04-04T10:05:48.000Z</time>
      </trkpt>
      <trkpt lat="47.39072" lon="7.19757">
        <ele>885.6</ele>
        <time>2023-04-04T10:06:02.000Z</time>
      </trkpt>
      <trkpt lat="47.39075" lon="7.19774">
        <ele>882.6</ele>
        <time>2023-04-04T10:06:10.000Z</time>
      </trkpt>
      <trkpt lat="47.39075" lon="7.19788">
        <ele>879</ele>
        <time>2023-04-04T10:06:21.000Z</time>
      </trkpt>
      <trkpt lat="47.39075" lon="7.19789">
        <ele>878.8</ele>
        <time>2023-04-04T10:06:22.000Z</time>
      </trkpt>
      <trkpt lat="47.39076" lon="7.19791">
        <ele>878.6</ele>
        <time>2023-04-04T10:06:23.000Z</time>
      </trkpt>
      <trkpt lat="47.39086" lon="7.19812">
        <ele>875.4</ele>
        <time>2023-04-04T10:06:36.000Z</time>
      </trkpt>
      <trkpt lat="47.39089" lon="7.19817">
        <ele>874.2</ele>
        <time>2023-04-04T10:06:39.000Z</time>
      </trkpt>
      <trkpt lat="47.39093" lon="7.19827">
        <ele>871.6</ele>
        <time>2023-04-04T10:06:46.000Z</time>
      </trkpt>
      <trkpt lat="47.39095" lon="7.19831">
        <ele>870.8</ele>
        <time>2023-04-04T10:06:49.000Z</time>
      </trkpt>
      <trkpt lat="47.39099" lon="7.19845">
        <ele>867.6</ele>
        <time>2023-04-04T10:06:57.000Z</time>
      </trkpt>
      <trkpt lat="47.39104" lon="7.19864">
        <ele>864.2</ele>
        <time>2023-04-04T10:07:07.000Z</time>
      </trkpt>
      <trkpt lat="47.39105" lon="7.19868">
        <ele>862.6</ele>
        <time>2023-04-04T10:07:10.000Z</time>
      </trkpt>
      <trkpt lat="47.39106" lon="7.19876">
        <ele>861.4</ele>
        <time>2023-04-04T10:07:14.000Z</time>
      </trkpt>
      <trkpt lat="47.39106" lon="7.19877">
        <ele>861</ele>
        <time>2023-04-04T10:07:15.000Z</time>
      </trkpt>
      <trkpt lat="47.39107" lon="7.19879">
        <ele>860.8</ele>
        <time>2023-04-04T10:07:16.000Z</time>
      </trkpt>
      <trkpt lat="47.39107" lon="7.19881">
        <ele>860.4</ele>
        <time>2023-04-04T10:07:17.000Z</time>
      </trkpt>
      <trkpt lat="47.39108" lon="7.19882">
        <ele>860.4</ele>
        <time>2023-04-04T10:07:18.000Z</time>
      </trkpt>
      <trkpt lat="47.39112" lon="7.19902">
        <ele>857.2</ele>
        <time>2023-04-04T10:07:30.000Z</time>
      </trkpt>
      <trkpt lat="47.39117" lon="7.19917">
        <ele>854</ele>
        <time>2023-04-04T10:07:39.000Z</time>
      </trkpt>
      <trkpt lat="47.39118" lon="7.1992">
        <ele>853.4</ele>
        <time>2023-04-04T10:07:41.000Z</time>
      </trkpt>
      <trkpt lat="47.39119" lon="7.19921">
        <ele>853</ele>
        <time>2023-04-04T10:07:42.000Z</time>
      </trkpt>
      <trkpt lat="47.39119" lon="7.19923">
        <ele>852.6</ele>
        <time>2023-04-04T10:07:43.000Z</time>
      </trkpt>
      <trkpt lat="47.39125" lon="7.19931">
        <ele>850.4</ele>
        <time>2023-04-04T10:07:50.000Z</time>
      </trkpt>
      <trkpt lat="47.39126" lon="7.19931">
        <ele>850.2</ele>
        <time>2023-04-04T10:07:51.000Z</time>
      </trkpt>
      <trkpt lat="47.39127" lon="7.1993">
        <ele>850</ele>
        <time>2023-04-04T10:07:52.000Z</time>
      </trkpt>
      <trkpt lat="47.39129" lon="7.19929">
        <ele>849.8</ele>
        <time>2023-04-04T10:07:53.000Z</time>
      </trkpt>
      <trkpt lat="47.3913" lon="7.19927">
        <ele>849.8</ele>
        <time>2023-04-04T10:07:54.000Z</time>
      </trkpt>
      <trkpt lat="47.39131" lon="7.19926">
        <ele>849.8</ele>
        <time>2023-04-04T10:07:55.000Z</time>
      </trkpt>
      <trkpt lat="47.39132" lon="7.19924">
        <ele>849.8</ele>
        <time>2023-04-04T10:07:56.000Z</time>
      </trkpt>
      <trkpt lat="47.39133" lon="7.19923">
        <ele>849.8</ele>
        <time>2023-04-04T10:07:57.000Z</time>
      </trkpt>
      <trkpt lat="47.39137" lon="7.19893">
        <ele>848.6</ele>
        <time>2023-04-04T10:08:11.000Z</time>
      </trkpt>
      <trkpt lat="47.39136" lon="7.19871">
        <ele>846.2</ele>
        <time>2023-04-04T10:08:21.000Z</time>
      </trkpt>
      <trkpt lat="47.39135" lon="7.19844">
        <ele>844.4</ele>
        <time>2023-04-04T10:08:34.000Z</time>
      </trkpt>
      <trkpt lat="47.39135" lon="7.19841">
        <ele>844.2</ele>
        <time>2023-04-04T10:08:35.000Z</time>
      </trkpt>
      <trkpt lat="47.39135" lon="7.19839">
        <ele>844.2</ele>
        <time>2023-04-04T10:08:36.000Z</time>
      </trkpt>
      <trkpt lat="47.3913" lon="7.19816">
        <ele>842.8</ele>
        <time>2023-04-04T10:08:48.000Z</time>
      </trkpt>
      <trkpt lat="47.39128" lon="7.19787">
        <ele>841.6</ele>
        <time>2023-04-04T10:09:02.000Z</time>
      </trkpt>
      <trkpt lat="47.39129" lon="7.1978">
        <ele>841.4</ele>
        <time>2023-04-04T10:09:05.000Z</time>
      </trkpt>
      <trkpt lat="47.3913" lon="7.19778">
        <ele>841.4</ele>
        <time>2023-04-04T10:09:06.000Z</time>
      </trkpt>
      <trkpt lat="47.39135" lon="7.19748">
        <ele>840</ele>
        <time>2023-04-04T10:09:21.000Z</time>
      </trkpt>
      <trkpt lat="47.39136" lon="7.19724">
        <ele>839.2</ele>
        <time>2023-04-04T10:09:33.000Z</time>
      </trkpt>
      <trkpt lat="47.3913" lon="7.19703">
        <ele>837.4</ele>
        <time>2023-04-04T10:09:46.000Z</time>
      </trkpt>
      <trkpt lat="47.39128" lon="7.19699">
        <ele>837</ele>
        <time>2023-04-04T10:09:48.000Z</time>
      </trkpt>
      <trkpt lat="47.39128" lon="7.19697">
        <ele>837</ele>
        <time>2023-04-04T10:09:49.000Z</time>
      </trkpt>
      <trkpt lat="47.39126" lon="7.19678">
        <ele>835.6</ele>
        <time>2023-04-04T10:09:59.000Z</time>
      </trkpt>
      <trkpt lat="47.39126" lon="7.19669">
        <ele>834.2</ele>
        <time>2023-04-04T10:10:04.000Z</time>
      </trkpt>
      <trkpt lat="47.39125" lon="7.19667">
        <ele>834</ele>
        <time>2023-04-04T10:10:05.000Z</time>
      </trkpt>
      <trkpt lat="47.39125" lon="7.19664">
        <ele>833.8</ele>
        <time>2023-04-04T10:10:06.000Z</time>
      </trkpt>
      <trkpt lat="47.39124" lon="7.19655">
        <ele>833</ele>
        <time>2023-04-04T10:10:10.000Z</time>
      </trkpt>
      <trkpt lat="47.39124" lon="7.19653">
        <ele>832.8</ele>
        <time>2023-04-04T10:10:11.000Z</time>
      </trkpt>
      <trkpt lat="47.39124" lon="7.1965">
        <ele>832.6</ele>
        <time>2023-04-04T10:10:12.000Z</time>
      </trkpt>
      <trkpt lat="47.39124" lon="7.19648">
        <ele>832.4</ele>
        <time>2023-04-04T10:10:13.000Z</time>
      </trkpt>
      <trkpt lat="47.39125" lon="7.19645">
        <ele>832.4</ele>
        <time>2023-04-04T10:10:14.000Z</time>
      </trkpt>
      <trkpt lat="47.39125" lon="7.19643">
        <ele>832.4</ele>
        <time>2023-04-04T10:10:15.000Z</time>
      </trkpt>
      <trkpt lat="47.39126" lon="7.19641">
        <ele>832.4</ele>
        <time>2023-04-04T10:10:16.000Z</time>
      </trkpt>
      <trkpt lat="47.39127" lon="7.1964">
        <ele>832.4</ele>
        <time>2023-04-04T10:10:17.000Z</time>
      </trkpt>
      <trkpt lat="47.39134" lon="7.19616">
        <ele>831.2</ele>
        <time>2023-04-04T10:10:30.000Z</time>
      </trkpt>
      <trkpt lat="47.39139" lon="7.19606">
        <ele>830.4</ele>
        <time>2023-04-04T10:10:36.000Z</time>
      </trkpt>
      <trkpt lat="47.39145" lon="7.19591">
        <ele>829.8</ele>
        <time>2023-04-04T10:10:45.000Z</time>
      </trkpt>
      <trkpt lat="47.39146" lon="7.1959">
        <ele>829.6</ele>
        <time>2023-04-04T10:10:46.000Z</time>
      </trkpt>
      <trkpt lat="47.39146" lon="7.1958">
        <ele>829</ele>
        <time>2023-04-04T10:10:51.000Z</time>
      </trkpt>
      <trkpt lat="47.3915" lon="7.19566">
        <ele>828.2</ele>
        <time>2023-04-04T10:11:00.000Z</time>
      </trkpt>
      <trkpt lat="47.39157" lon="7.19536">
        <ele>825.6</ele>
        <time>2023-04-04T10:11:17.000Z</time>
      </trkpt>
      <trkpt lat="47.39157" lon="7.19534">
        <ele>825.6</ele>
        <time>2023-04-04T10:11:18.000Z</time>
      </trkpt>
      <trkpt lat="47.39157" lon="7.19532">
        <ele>825.6</ele>
        <time>2023-04-04T10:11:19.000Z</time>
      </trkpt>
      <trkpt lat="47.39161" lon="7.19518">
        <ele>824.2</ele>
        <time>2023-04-04T10:11:27.000Z</time>
      </trkpt>
      <trkpt lat="47.39161" lon="7.19516">
        <ele>824.2</ele>
        <time>2023-04-04T10:11:28.000Z</time>
      </trkpt>
      <trkpt lat="47.39177" lon="7.19488">
        <ele>821.8</ele>
        <time>2023-04-04T10:11:44.000Z</time>
      </trkpt>
      <trkpt lat="47.39182" lon="7.19459">
        <ele>820</ele>
        <time>2023-04-04T10:11:58.000Z</time>
      </trkpt>
      <trkpt lat="47.39185" lon="7.19453">
        <ele>820</ele>
        <time>2023-04-04T10:12:01.000Z</time>
      </trkpt>
      <trkpt lat="47.3919" lon="7.19441">
        <ele>819.6</ele>
        <time>2023-04-04T10:12:08.000Z</time>
      </trkpt>
      <trkpt lat="47.39197" lon="7.1943">
        <ele>819.2</ele>
        <time>2023-04-04T10:12:15.000Z</time>
      </trkpt>
      <trkpt lat="47.39198" lon="7.19428">
        <ele>819.2</ele>
        <time>2023-04-04T10:12:16.000Z</time>
      </trkpt>
      <trkpt lat="47.39199" lon="7.19426">
        <ele>819</ele>
        <time>2023-04-04T10:12:17.000Z</time>
      </trkpt>
      <trkpt lat="47.3921" lon="7.19399">
        <ele>817.8</ele>
        <time>2023-04-04T10:12:32.000Z</time>
      </trkpt>
      <trkpt lat="47.39216" lon="7.19375">
        <ele>817.2</ele>
        <time>2023-04-04T10:12:43.000Z</time>
      </trkpt>
      <trkpt lat="47.39216" lon="7.19373">
        <ele>817.2</ele>
        <time>2023-04-04T10:12:44.000Z</time>
      </trkpt>
      <trkpt lat="47.39225" lon="7.19346">
        <ele>817</ele>
        <time>2023-04-04T10:12:57.000Z</time>
      </trkpt>
      <trkpt lat="47.39235" lon="7.19319">
        <ele>816.4</ele>
        <time>2023-04-04T10:13:11.000Z</time>
      </trkpt>
      <trkpt lat="47.39243" lon="7.19288">
        <ele>815.4</ele>
        <time>2023-04-04T10:13:28.000Z</time>
      </trkpt>
      <trkpt lat="47.39247" lon="7.19262">
        <ele>814.6</ele>
        <time>2023-04-04T10:13:41.000Z</time>
      </trkpt>
      <trkpt lat="47.39248" lon="7.1926">
        <ele>814.4</ele>
        <time>2023-04-04T10:13:42.000Z</time>
      </trkpt>
      <trkpt lat="47.39249" lon="7.19258">
        <ele>814.4</ele>
        <time>2023-04-04T10:13:43.000Z</time>
      </trkpt>
      <trkpt lat="47.39262" lon="7.19228">
        <ele>813</ele>
        <time>2023-04-04T10:13:59.000Z</time>
      </trkpt>
      <trkpt lat="47.3927" lon="7.19195">
        <ele>812.6</ele>
        <time>2023-04-04T10:14:15.000Z</time>
      </trkpt>
      <trkpt lat="47.39275" lon="7.19163">
        <ele>811.4</ele>
        <time>2023-04-04T10:14:30.000Z</time>
      </trkpt>
      <trkpt lat="47.39279" lon="7.19131">
        <ele>810.2</ele>
        <time>2023-04-04T10:14:46.000Z</time>
      </trkpt>
      <trkpt lat="47.39281" lon="7.19119">
        <ele>810</ele>
        <time>2023-04-04T10:14:52.000Z</time>
      </trkpt>
      <trkpt lat="47.39282" lon="7.19117">
        <ele>810</ele>
        <time>2023-04-04T10:14:53.000Z</time>
      </trkpt>
      <trkpt lat="47.39283" lon="7.19115">
        <ele>810</ele>
        <time>2023-04-04T10:14:54.000Z</time>
      </trkpt>
      <trkpt lat="47.39285" lon="7.1908">
        <ele>809.2</ele>
        <time>2023-04-04T10:15:11.000Z</time>
      </trkpt>
      <trkpt lat="47.39285" lon="7.19075">
        <ele>809.2</ele>
        <time>2023-04-04T10:15:13.000Z</time>
      </trkpt>
      <trkpt lat="47.39285" lon="7.19073">
        <ele>809.2</ele>
        <time>2023-04-04T10:15:14.000Z</time>
      </trkpt>
      <trkpt lat="47.39279" lon="7.19047">
        <ele>808.4</ele>
        <time>2023-04-04T10:15:27.000Z</time>
      </trkpt>
      <trkpt lat="47.39279" lon="7.19046">
        <ele>808.4</ele>
        <time>2023-04-04T10:15:28.000Z</time>
      </trkpt>
      <trkpt lat="47.39279" lon="7.19044">
        <ele>808.4</ele>
        <time>2023-04-04T10:15:29.000Z</time>
      </trkpt>
      <trkpt lat="47.39278" lon="7.19042">
        <ele>808.4</ele>
        <time>2023-04-04T10:15:30.000Z</time>
      </trkpt>
      <trkpt lat="47.39278" lon="7.1904">
        <ele>808.4</ele>
        <time>2023-04-04T10:15:31.000Z</time>
      </trkpt>
      <trkpt lat="47.39275" lon="7.19018">
        <ele>807.6</ele>
        <time>2023-04-04T10:15:43.000Z</time>
      </trkpt>
      <trkpt lat="47.39277" lon="7.18987">
        <ele>806.6</ele>
        <time>2023-04-04T10:15:58.000Z</time>
      </trkpt>
      <trkpt lat="47.3928" lon="7.18969">
        <ele>806.4</ele>
        <time>2023-04-04T10:16:09.000Z</time>
      </trkpt>
      <trkpt lat="47.39281" lon="7.18962">
        <ele>806</ele>
        <time>2023-04-04T10:16:13.000Z</time>
      </trkpt>
      <trkpt lat="47.39281" lon="7.18954">
        <ele>805.8</ele>
        <time>2023-04-04T10:16:17.000Z</time>
      </trkpt>
      <trkpt lat="47.39284" lon="7.18929">
        <ele>804.6</ele>
        <time>2023-04-04T10:16:30.000Z</time>
      </trkpt>
      <trkpt lat="47.39284" lon="7.18926">
        <ele>804.6</ele>
        <time>2023-04-04T10:16:31.000Z</time>
      </trkpt>
      <trkpt lat="47.39284" lon="7.18924">
        <ele>804.6</ele>
        <time>2023-04-04T10:16:32.000Z</time>
      </trkpt>
      <trkpt lat="47.39285" lon="7.18919">
        <ele>804.4</ele>
        <time>2023-04-04T10:16:34.000Z</time>
      </trkpt>
      <trkpt lat="47.39286" lon="7.18908">
        <ele>803.8</ele>
        <time>2023-04-04T10:16:39.000Z</time>
      </trkpt>
      <trkpt lat="47.39285" lon="7.18903">
        <ele>803.4</ele>
        <time>2023-04-04T10:16:42.000Z</time>
      </trkpt>
      <trkpt lat="47.39281" lon="7.18885">
        <ele>802.6</ele>
        <time>2023-04-04T10:16:50.000Z</time>
      </trkpt>
      <trkpt lat="47.3928" lon="7.18882">
        <ele>802.2</ele>
        <time>2023-04-04T10:16:51.000Z</time>
      </trkpt>
      <trkpt lat="47.3928" lon="7.1888">
        <ele>802.2</ele>
        <time>2023-04-04T10:16:52.000Z</time>
      </trkpt>
      <trkpt lat="47.39277" lon="7.18876">
        <ele>801.8</ele>
        <time>2023-04-04T10:16:54.000Z</time>
      </trkpt>
      <trkpt lat="47.39276" lon="7.18873">
        <ele>801.8</ele>
        <time>2023-04-04T10:16:55.000Z</time>
      </trkpt>
      <trkpt lat="47.39276" lon="7.18871">
        <ele>801.8</ele>
        <time>2023-04-04T10:16:56.000Z</time>
      </trkpt>
      <trkpt lat="47.39273" lon="7.18864">
        <ele>801.2</ele>
        <time>2023-04-04T10:17:00.000Z</time>
      </trkpt>
      <trkpt lat="47.3927" lon="7.18847">
        <ele>800.4</ele>
        <time>2023-04-04T10:17:09.000Z</time>
      </trkpt>
      <trkpt lat="47.3927" lon="7.18841">
        <ele>800</ele>
        <time>2023-04-04T10:17:12.000Z</time>
      </trkpt>
      <trkpt lat="47.39269" lon="7.18839">
        <ele>800</ele>
        <time>2023-04-04T10:17:13.000Z</time>
      </trkpt>
      <trkpt lat="47.39269" lon="7.18836">
        <ele>799.8</ele>
        <time>2023-04-04T10:17:14.000Z</time>
      </trkpt>
      <trkpt lat="47.3927" lon="7.18828">
        <ele>799.2</ele>
        <time>2023-04-04T10:17:18.000Z</time>
      </trkpt>
      <trkpt lat="47.3927" lon="7.18816">
        <ele>798.4</ele>
        <time>2023-04-04T10:17:25.000Z</time>
      </trkpt>
      <trkpt lat="47.39271" lon="7.18814">
        <ele>798.2</ele>
        <time>2023-04-04T10:17:26.000Z</time>
      </trkpt>
      <trkpt lat="47.39268" lon="7.18794">
        <ele>797</ele>
        <time>2023-04-04T10:17:36.000Z</time>
      </trkpt>
      <trkpt lat="47.39268" lon="7.18791">
        <ele>796.8</ele>
        <time>2023-04-04T10:17:37.000Z</time>
      </trkpt>
      <trkpt lat="47.39263" lon="7.18766">
        <ele>795.6</ele>
        <time>2023-04-04T10:17:49.000Z</time>
      </trkpt>
      <trkpt lat="47.3926" lon="7.18758">
        <ele>795.4</ele>
        <time>2023-04-04T10:17:52.000Z</time>
      </trkpt>
      <trkpt lat="47.39259" lon="7.18756">
        <ele>795.4</ele>
        <time>2023-04-04T10:17:53.000Z</time>
      </trkpt>
      <trkpt lat="47.39257" lon="7.18749">
        <ele>795.2</ele>
        <time>2023-04-04T10:17:56.000Z</time>
      </trkpt>
      <trkpt lat="47.39257" lon="7.18746">
        <ele>795.2</ele>
        <time>2023-04-04T10:17:57.000Z</time>
      </trkpt>
      <trkpt lat="47.39256" lon="7.18744">
        <ele>795.2</ele>
        <time>2023-04-04T10:17:58.000Z</time>
      </trkpt>
      <trkpt lat="47.39256" lon="7.18742">
        <ele>795.2</ele>
        <time>2023-04-04T10:17:59.000Z</time>
      </trkpt>
      <trkpt lat="47.39255" lon="7.1874">
        <ele>795.2</ele>
        <time>2023-04-04T10:18:00.000Z</time>
      </trkpt>
      <trkpt lat="47.39255" lon="7.18738">
        <ele>795.2</ele>
        <time>2023-04-04T10:18:01.000Z</time>
      </trkpt>
      <trkpt lat="47.39253" lon="7.1872">
        <ele>795</ele>
        <time>2023-04-04T10:18:12.000Z</time>
      </trkpt>
      <trkpt lat="47.39251" lon="7.18712">
        <ele>794.8</ele>
        <time>2023-04-04T10:18:16.000Z</time>
      </trkpt>
      <trkpt lat="47.39251" lon="7.1871">
        <ele>794.8</ele>
        <time>2023-04-04T10:18:17.000Z</time>
      </trkpt>
      <trkpt lat="47.39251" lon="7.18708">
        <ele>794.8</ele>
        <time>2023-04-04T10:18:18.000Z</time>
      </trkpt>
      <trkpt lat="47.39249" lon="7.18703">
        <ele>794.6</ele>
        <time>2023-04-04T10:18:21.000Z</time>
      </trkpt>
      <trkpt lat="47.39249" lon="7.18692">
        <ele>794</ele>
        <time>2023-04-04T10:18:27.000Z</time>
      </trkpt>
      <trkpt lat="47.39249" lon="7.18688">
        <ele>793.6</ele>
        <time>2023-04-04T10:18:29.000Z</time>
      </trkpt>
      <trkpt lat="47.39248" lon="7.18686">
        <ele>793.6</ele>
        <time>2023-04-04T10:18:30.000Z</time>
      </trkpt>
      <trkpt lat="47.39248" lon="7.18682">
        <ele>793.2</ele>
        <time>2023-04-04T10:18:32.000Z</time>
      </trkpt>
      <trkpt lat="47.39246" lon="7.18677">
        <ele>793</ele>
        <time>2023-04-04T10:18:35.000Z</time>
      </trkpt>
      <trkpt lat="47.39245" lon="7.18675">
        <ele>793</ele>
        <time>2023-04-04T10:18:36.000Z</time>
      </trkpt>
      <trkpt lat="47.39245" lon="7.18673">
        <ele>793</ele>
        <time>2023-04-04T10:18:37.000Z</time>
      </trkpt>
      <trkpt lat="47.39244" lon="7.18668">
        <ele>792.8</ele>
        <time>2023-04-04T10:18:40.000Z</time>
      </trkpt>
      <trkpt lat="47.39244" lon="7.18665">
        <ele>792.8</ele>
        <time>2023-04-04T10:18:41.000Z</time>
      </trkpt>
      <trkpt lat="47.39244" lon="7.18663">
        <ele>792.6</ele>
        <time>2023-04-04T10:18:42.000Z</time>
      </trkpt>
      <trkpt lat="47.39243" lon="7.18657">
        <ele>792.4</ele>
        <time>2023-04-04T10:18:45.000Z</time>
      </trkpt>
      <trkpt lat="47.39242" lon="7.18652">
        <ele>792.2</ele>
        <time>2023-04-04T10:18:47.000Z</time>
      </trkpt>
      <trkpt lat="47.39242" lon="7.1865">
        <ele>792.2</ele>
        <time>2023-04-04T10:18:48.000Z</time>
      </trkpt>
      <trkpt lat="47.39242" lon="7.18647">
        <ele>792.2</ele>
        <time>2023-04-04T10:18:49.000Z</time>
      </trkpt>
      <trkpt lat="47.39242" lon="7.18645">
        <ele>792.2</ele>
        <time>2023-04-04T10:18:50.000Z</time>
      </trkpt>
      <trkpt lat="47.39243" lon="7.1862">
        <ele>790.4</ele>
        <time>2023-04-04T10:19:03.000Z</time>
      </trkpt>
      <trkpt lat="47.39244" lon="7.18618">
        <ele>790.2</ele>
        <time>2023-04-04T10:19:04.000Z</time>
      </trkpt>
      <trkpt lat="47.39244" lon="7.18615">
        <ele>790</ele>
        <time>2023-04-04T10:19:05.000Z</time>
      </trkpt>
      <trkpt lat="47.39244" lon="7.18613">
        <ele>790</ele>
        <time>2023-04-04T10:19:06.000Z</time>
      </trkpt>
      <trkpt lat="47.39243" lon="7.1861">
        <ele>789.8</ele>
        <time>2023-04-04T10:19:07.000Z</time>
      </trkpt>
      <trkpt lat="47.39243" lon="7.18608">
        <ele>789.8</ele>
        <time>2023-04-04T10:19:08.000Z</time>
      </trkpt>
      <trkpt lat="47.39243" lon="7.18606">
        <ele>789.6</ele>
        <time>2023-04-04T10:19:09.000Z</time>
      </trkpt>
      <trkpt lat="47.39243" lon="7.18604">
        <ele>789.6</ele>
        <time>2023-04-04T10:19:10.000Z</time>
      </trkpt>
      <trkpt lat="47.39243" lon="7.18601">
        <ele>789.4</ele>
        <time>2023-04-04T10:19:11.000Z</time>
      </trkpt>
      <trkpt lat="47.39232" lon="7.18582">
        <ele>790</ele>
        <time>2023-04-04T10:19:24.000Z</time>
      </trkpt>
      <trkpt lat="47.39222" lon="7.1856">
        <ele>790.4</ele>
        <time>2023-04-04T10:19:40.000Z</time>
      </trkpt>
      <trkpt lat="47.39207" lon="7.18543">
        <ele>792</ele>
        <time>2023-04-04T10:19:56.000Z</time>
      </trkpt>
      <trkpt lat="47.39182" lon="7.18528">
        <ele>792.6</ele>
        <time>2023-04-04T10:20:15.000Z</time>
      </trkpt>
      <trkpt lat="47.39173" lon="7.18527">
        <ele>792.2</ele>
        <time>2023-04-04T10:20:21.000Z</time>
      </trkpt>
      <trkpt lat="47.39172" lon="7.18527">
        <ele>792.2</ele>
        <time>2023-04-04T10:20:22.000Z</time>
      </trkpt>
      <trkpt lat="47.39161" lon="7.18522">
        <ele>790.8</ele>
        <time>2023-04-04T10:20:29.000Z</time>
      </trkpt>
      <trkpt lat="47.3916" lon="7.18522">
        <ele>790.4</ele>
        <time>2023-04-04T10:20:30.000Z</time>
      </trkpt>
      <trkpt lat="47.39158" lon="7.18521">
        <ele>790.2</ele>
        <time>2023-04-04T10:20:31.000Z</time>
      </trkpt>
      <trkpt lat="47.39142" lon="7.18516">
        <ele>787</ele>
        <time>2023-04-04T10:20:43.000Z</time>
      </trkpt>
      <trkpt lat="47.39132" lon="7.18502">
        <ele>785</ele>
        <time>2023-04-04T10:20:55.000Z</time>
      </trkpt>
      <trkpt lat="47.39132" lon="7.18502">
        <ele>784</ele>
        <time>2023-04-04T10:21:11.000Z</time>
      </trkpt>
      <trkpt lat="47.39136" lon="7.18507">
        <ele>784.4</ele>
        <time>2023-04-04T10:21:46.000Z</time>
      </trkpt>
      <trkpt lat="47.39135" lon="7.18509">
        <ele>784.4</ele>
        <time>2023-04-04T10:21:47.000Z</time>
      </trkpt>
      <trkpt lat="47.39132" lon="7.1851">
        <ele>784.4</ele>
        <time>2023-04-04T10:21:51.000Z</time>
      </trkpt>
      <trkpt lat="47.39138" lon="7.18494">
        <ele>783.2</ele>
        <time>2023-04-04T10:22:05.000Z</time>
      </trkpt>
      <trkpt lat="47.39139" lon="7.1848">
        <ele>782.4</ele>
        <time>2023-04-04T10:22:11.000Z</time>
      </trkpt>
      <trkpt lat="47.3914" lon="7.18477">
        <ele>782.2</ele>
        <time>2023-04-04T10:22:12.000Z</time>
      </trkpt>
      <trkpt lat="47.39141" lon="7.18475">
        <ele>782</ele>
        <time>2023-04-04T10:22:13.000Z</time>
      </trkpt>
      <trkpt lat="47.39135" lon="7.18456">
        <ele>780.4</ele>
        <time>2023-04-04T10:22:24.000Z</time>
      </trkpt>
      <trkpt lat="47.39128" lon="7.18441">
        <ele>779</ele>
        <time>2023-04-04T10:22:33.000Z</time>
      </trkpt>
      <trkpt lat="47.3912" lon="7.18406">
        <ele>778</ele>
        <time>2023-04-04T10:22:52.000Z</time>
      </trkpt>
      <trkpt lat="47.39119" lon="7.18405">
        <ele>777.8</ele>
        <time>2023-04-04T10:22:53.000Z</time>
      </trkpt>
      <trkpt lat="47.39118" lon="7.18402">
        <ele>777.6</ele>
        <time>2023-04-04T10:22:55.000Z</time>
      </trkpt>
      <trkpt lat="47.39116" lon="7.18391">
        <ele>777</ele>
        <time>2023-04-04T10:23:00.000Z</time>
      </trkpt>
      <trkpt lat="47.39116" lon="7.18388">
        <ele>776.8</ele>
        <time>2023-04-04T10:23:01.000Z</time>
      </trkpt>
      <trkpt lat="47.39115" lon="7.18386">
        <ele>776.8</ele>
        <time>2023-04-04T10:23:02.000Z</time>
      </trkpt>
      <trkpt lat="47.39115" lon="7.18384">
        <ele>776.6</ele>
        <time>2023-04-04T10:23:03.000Z</time>
      </trkpt>
      <trkpt lat="47.39114" lon="7.18382">
        <ele>776.6</ele>
        <time>2023-04-04T10:23:04.000Z</time>
      </trkpt>
      <trkpt lat="47.39113" lon="7.18379">
        <ele>776.4</ele>
        <time>2023-04-04T10:23:05.000Z</time>
      </trkpt>
      <trkpt lat="47.39111" lon="7.18372">
        <ele>775.8</ele>
        <time>2023-04-04T10:23:09.000Z</time>
      </trkpt>
      <trkpt lat="47.39109" lon="7.18362">
        <ele>775.6</ele>
        <time>2023-04-04T10:23:15.000Z</time>
      </trkpt>
      <trkpt lat="47.39109" lon="7.1836">
        <ele>775.8</ele>
        <time>2023-04-04T10:23:16.000Z</time>
      </trkpt>
      <trkpt lat="47.39109" lon="7.18359">
        <ele>775.8</ele>
        <time>2023-04-04T10:23:17.000Z</time>
      </trkpt>
      <trkpt lat="47.39108" lon="7.18355">
        <ele>776.2</ele>
        <time>2023-04-04T10:23:19.000Z</time>
      </trkpt>
      <trkpt lat="47.39101" lon="7.18341">
        <ele>776.4</ele>
        <time>2023-04-04T10:23:26.000Z</time>
      </trkpt>
      <trkpt lat="47.391" lon="7.18339">
        <ele>776.2</ele>
        <time>2023-04-04T10:23:27.000Z</time>
      </trkpt>
      <trkpt lat="47.39096" lon="7.18315">
        <ele>775.2</ele>
        <time>2023-04-04T10:23:40.000Z</time>
      </trkpt>
      <trkpt lat="47.39095" lon="7.18313">
        <ele>775.2</ele>
        <time>2023-04-04T10:23:41.000Z</time>
      </trkpt>
      <trkpt lat="47.39094" lon="7.18309">
        <ele>775.2</ele>
        <time>2023-04-04T10:23:43.000Z</time>
      </trkpt>
      <trkpt lat="47.39088" lon="7.18296">
        <ele>775.2</ele>
        <time>2023-04-04T10:23:52.000Z</time>
      </trkpt>
      <trkpt lat="47.39081" lon="7.18283">
        <ele>775.2</ele>
        <time>2023-04-04T10:23:59.000Z</time>
      </trkpt>
      <trkpt lat="47.3908" lon="7.1828">
        <ele>775.2</ele>
        <time>2023-04-04T10:24:00.000Z</time>
      </trkpt>
      <trkpt lat="47.39065" lon="7.18261">
        <ele>775.2</ele>
        <time>2023-04-04T10:24:14.000Z</time>
      </trkpt>
      <trkpt lat="47.39055" lon="7.18241">
        <ele>774.6</ele>
        <time>2023-04-04T10:24:26.000Z</time>
      </trkpt>
      <trkpt lat="47.39054" lon="7.18236">
        <ele>774.6</ele>
        <time>2023-04-04T10:24:28.000Z</time>
      </trkpt>
      <trkpt lat="47.3905" lon="7.18229">
        <ele>774.4</ele>
        <time>2023-04-04T10:24:32.000Z</time>
      </trkpt>
      <trkpt lat="47.39045" lon="7.18219">
        <ele>774.6</ele>
        <time>2023-04-04T10:24:38.000Z</time>
      </trkpt>
      <trkpt lat="47.39039" lon="7.18207">
        <ele>774.8</ele>
        <time>2023-04-04T10:24:46.000Z</time>
      </trkpt>
      <trkpt lat="47.39039" lon="7.18205">
        <ele>774.6</ele>
        <time>2023-04-04T10:24:47.000Z</time>
      </trkpt>
      <trkpt lat="47.39038" lon="7.18203">
        <ele>774.6</ele>
        <time>2023-04-04T10:24:48.000Z</time>
      </trkpt>
      <trkpt lat="47.39033" lon="7.18191">
        <ele>774</ele>
        <time>2023-04-04T10:24:57.000Z</time>
      </trkpt>
      <trkpt lat="47.39032" lon="7.1819">
        <ele>774</ele>
        <time>2023-04-04T10:24:58.000Z</time>
      </trkpt>
      <trkpt lat="47.39016" lon="7.18172">
        <ele>773</ele>
        <time>2023-04-04T10:25:12.000Z</time>
      </trkpt>
      <trkpt lat="47.38986" lon="7.18135">
        <ele>770.2</ele>
        <time>2023-04-04T10:25:39.000Z</time>
      </trkpt>
      <trkpt lat="47.38984" lon="7.18132">
        <ele>769.8</ele>
        <time>2023-04-04T10:25:41.000Z</time>
      </trkpt>
      <trkpt lat="47.38983" lon="7.18129">
        <ele>769.6</ele>
        <time>2023-04-04T10:25:43.000Z</time>
      </trkpt>
      <trkpt lat="47.38977" lon="7.18107">
        <ele>766.6</ele>
        <time>2023-04-04T10:25:56.000Z</time>
      </trkpt>
      <trkpt lat="47.38978" lon="7.18092">
        <ele>764</ele>
        <time>2023-04-04T10:26:06.000Z</time>
      </trkpt>
      <trkpt lat="47.38979" lon="7.18078">
        <ele>761</ele>
        <time>2023-04-04T10:26:16.000Z</time>
      </trkpt>
      <trkpt lat="47.38979" lon="7.18071">
        <ele>760</ele>
        <time>2023-04-04T10:26:19.000Z</time>
      </trkpt>
      <trkpt lat="47.38979" lon="7.18069">
        <ele>759.8</ele>
        <time>2023-04-04T10:26:20.000Z</time>
      </trkpt>
      <trkpt lat="47.38979" lon="7.18067">
        <ele>759.4</ele>
        <time>2023-04-04T10:26:21.000Z</time>
      </trkpt>
      <trkpt lat="47.3898" lon="7.18065">
        <ele>759.2</ele>
        <time>2023-04-04T10:26:22.000Z</time>
      </trkpt>
      <trkpt lat="47.3898" lon="7.18063">
        <ele>759</ele>
        <time>2023-04-04T10:26:23.000Z</time>
      </trkpt>
      <trkpt lat="47.38981" lon="7.18061">
        <ele>758.8</ele>
        <time>2023-04-04T10:26:24.000Z</time>
      </trkpt>
      <trkpt lat="47.38977" lon="7.18043">
        <ele>755.6</ele>
        <time>2023-04-04T10:26:35.000Z</time>
      </trkpt>
      <trkpt lat="47.38983" lon="7.18011">
        <ele>753</ele>
        <time>2023-04-04T10:26:51.000Z</time>
      </trkpt>
      <trkpt lat="47.38987" lon="7.17983">
        <ele>750.4</ele>
        <time>2023-04-04T10:27:06.000Z</time>
      </trkpt>
      <trkpt lat="47.38981" lon="7.17962">
        <ele>752.2</ele>
        <time>2023-04-04T10:27:25.000Z</time>
      </trkpt>
      <trkpt lat="47.3897" lon="7.17942">
        <ele>755.4</ele>
        <time>2023-04-04T10:27:43.000Z</time>
      </trkpt>
      <trkpt lat="47.38949" lon="7.17921">
        <ele>757.2</ele>
        <time>2023-04-04T10:28:00.000Z</time>
      </trkpt>
      <trkpt lat="47.38944" lon="7.17898">
        <ele>759</ele>
        <time>2023-04-04T10:28:14.000Z</time>
      </trkpt>
      <trkpt lat="47.38936" lon="7.17888">
        <ele>760.8</ele>
        <time>2023-04-04T10:28:28.000Z</time>
      </trkpt>
      <trkpt lat="47.38921" lon="7.17873">
        <ele>763</ele>
        <time>2023-04-04T10:28:43.000Z</time>
      </trkpt>
      <trkpt lat="47.38904" lon="7.17863">
        <ele>764</ele>
        <time>2023-04-04T10:28:55.000Z</time>
      </trkpt>
      <trkpt lat="47.38884" lon="7.17846">
        <ele>766.2</ele>
        <time>2023-04-04T10:29:10.000Z</time>
      </trkpt>
      <trkpt lat="47.38874" lon="7.17836">
        <ele>768.4</ele>
        <time>2023-04-04T10:29:23.000Z</time>
      </trkpt>
      <trkpt lat="47.38861" lon="7.17829">
        <ele>770.4</ele>
        <time>2023-04-04T10:29:38.000Z</time>
      </trkpt>
      <trkpt lat="47.38844" lon="7.17817">
        <ele>771.8</ele>
        <time>2023-04-04T10:29:51.000Z</time>
      </trkpt>
      <trkpt lat="47.38833" lon="7.17804">
        <ele>773.4</ele>
        <time>2023-04-04T10:30:05.000Z</time>
      </trkpt>
      <trkpt lat="47.38829" lon="7.17788">
        <ele>775.8</ele>
        <time>2023-04-04T10:30:19.000Z</time>
      </trkpt>
      <trkpt lat="47.38825" lon="7.1777">
        <ele>776.6</ele>
        <time>2023-04-04T10:30:32.000Z</time>
      </trkpt>
      <trkpt lat="47.38825" lon="7.17768">
        <ele>776.8</ele>
        <time>2023-04-04T10:30:33.000Z</time>
      </trkpt>
      <trkpt lat="47.38824" lon="7.17766">
        <ele>776.8</ele>
        <time>2023-04-04T10:30:35.000Z</time>
      </trkpt>
      <trkpt lat="47.38819" lon="7.17756">
        <ele>777.4</ele>
        <time>2023-04-04T10:30:45.000Z</time>
      </trkpt>
      <trkpt lat="47.38817" lon="7.17751">
        <ele>778</ele>
        <time>2023-04-04T10:30:48.000Z</time>
      </trkpt>
      <trkpt lat="47.38805" lon="7.17738">
        <ele>779.6</ele>
        <time>2023-04-04T10:30:59.000Z</time>
      </trkpt>
      <trkpt lat="47.38794" lon="7.17721">
        <ele>780.8</ele>
        <time>2023-04-04T10:31:12.000Z</time>
      </trkpt>
      <trkpt lat="47.38792" lon="7.1772">
        <ele>780.8</ele>
        <time>2023-04-04T10:31:13.000Z</time>
      </trkpt>
      <trkpt lat="47.38788" lon="7.17718">
        <ele>781.2</ele>
        <time>2023-04-04T10:31:16.000Z</time>
      </trkpt>
      <trkpt lat="47.38782" lon="7.17705">
        <ele>782.8</ele>
        <time>2023-04-04T10:31:28.000Z</time>
      </trkpt>
      <trkpt lat="47.38775" lon="7.17689">
        <ele>784.4</ele>
        <time>2023-04-04T10:31:43.000Z</time>
      </trkpt>
      <trkpt lat="47.38773" lon="7.17676">
        <ele>785.4</ele>
        <time>2023-04-04T10:31:51.000Z</time>
      </trkpt>
      <trkpt lat="47.38767" lon="7.17663">
        <ele>786.6</ele>
        <time>2023-04-04T10:32:00.000Z</time>
      </trkpt>
      <trkpt lat="47.38763" lon="7.17642">
        <ele>788.2</ele>
        <time>2023-04-04T10:32:12.000Z</time>
      </trkpt>
      <trkpt lat="47.38758" lon="7.1762">
        <ele>789.6</ele>
        <time>2023-04-04T10:32:26.000Z</time>
      </trkpt>
      <trkpt lat="47.38754" lon="7.17612">
        <ele>790</ele>
        <time>2023-04-04T10:32:32.000Z</time>
      </trkpt>
      <trkpt lat="47.38748" lon="7.17597">
        <ele>791</ele>
        <time>2023-04-04T10:32:42.000Z</time>
      </trkpt>
      <trkpt lat="47.38745" lon="7.17584">
        <ele>791.6</ele>
        <time>2023-04-04T10:32:50.000Z</time>
      </trkpt>
      <trkpt lat="47.3874" lon="7.17567">
        <ele>792</ele>
        <time>2023-04-04T10:32:59.000Z</time>
      </trkpt>
      <trkpt lat="47.38739" lon="7.17565">
        <ele>792.2</ele>
        <time>2023-04-04T10:33:00.000Z</time>
      </trkpt>
      <trkpt lat="47.38739" lon="7.17563">
        <ele>792.2</ele>
        <time>2023-04-04T10:33:01.000Z</time>
      </trkpt>
      <trkpt lat="47.38729" lon="7.17552">
        <ele>791.8</ele>
        <time>2023-04-04T10:33:21.000Z</time>
      </trkpt>
      <trkpt lat="47.38721" lon="7.17542">
        <ele>792</ele>
        <time>2023-04-04T10:33:45.000Z</time>
      </trkpt>
      <trkpt lat="47.3872" lon="7.17526">
        <ele>792.4</ele>
        <time>2023-04-04T10:34:06.000Z</time>
      </trkpt>
      <trkpt lat="47.38718" lon="7.17518">
        <ele>792.8</ele>
        <time>2023-04-04T10:34:13.000Z</time>
      </trkpt>
      <trkpt lat="47.38718" lon="7.17516">
        <ele>792.8</ele>
        <time>2023-04-04T10:34:14.000Z</time>
      </trkpt>
      <trkpt lat="47.38718" lon="7.17515">
        <ele>793</ele>
        <time>2023-04-04T10:34:15.000Z</time>
      </trkpt>
      <trkpt lat="47.38718" lon="7.17513">
        <ele>793</ele>
        <time>2023-04-04T10:34:16.000Z</time>
      </trkpt>
      <trkpt lat="47.38718" lon="7.17512">
        <ele>793.2</ele>
        <time>2023-04-04T10:34:17.000Z</time>
      </trkpt>
      <trkpt lat="47.38714" lon="7.17497">
        <ele>794.4</ele>
        <time>2023-04-04T10:34:30.000Z</time>
      </trkpt>
      <trkpt lat="47.38713" lon="7.17469">
        <ele>795.8</ele>
        <time>2023-04-04T10:34:45.000Z</time>
      </trkpt>
      <trkpt lat="47.3871" lon="7.17462">
        <ele>796.4</ele>
        <time>2023-04-04T10:34:49.000Z</time>
      </trkpt>
      <trkpt lat="47.38709" lon="7.1746">
        <ele>796.6</ele>
        <time>2023-04-04T10:34:50.000Z</time>
      </trkpt>
      <trkpt lat="47.38709" lon="7.17457">
        <ele>796.6</ele>
        <time>2023-04-04T10:34:52.000Z</time>
      </trkpt>
      <trkpt lat="47.38707" lon="7.17449">
        <ele>796.2</ele>
        <time>2023-04-04T10:34:57.000Z</time>
      </trkpt>
      <trkpt lat="47.38706" lon="7.17445">
        <ele>796</ele>
        <time>2023-04-04T10:34:59.000Z</time>
      </trkpt>
      <trkpt lat="47.38704" lon="7.17436">
        <ele>795.8</ele>
        <time>2023-04-04T10:35:04.000Z</time>
      </trkpt>
      <trkpt lat="47.38701" lon="7.17429">
        <ele>796</ele>
        <time>2023-04-04T10:35:09.000Z</time>
      </trkpt>
      <trkpt lat="47.38701" lon="7.17427">
        <ele>796.2</ele>
        <time>2023-04-04T10:35:10.000Z</time>
      </trkpt>
      <trkpt lat="47.38704" lon="7.17402">
        <ele>797</ele>
        <time>2023-04-04T10:35:24.000Z</time>
      </trkpt>
      <trkpt lat="47.38704" lon="7.174">
        <ele>797</ele>
        <time>2023-04-04T10:35:25.000Z</time>
      </trkpt>
      <trkpt lat="47.38704" lon="7.17394">
        <ele>797</ele>
        <time>2023-04-04T10:35:28.000Z</time>
      </trkpt>
      <trkpt lat="47.38703" lon="7.17389">
        <ele>797</ele>
        <time>2023-04-04T10:35:30.000Z</time>
      </trkpt>
      <trkpt lat="47.38703" lon="7.17381">
        <ele>796.6</ele>
        <time>2023-04-04T10:35:34.000Z</time>
      </trkpt>
      <trkpt lat="47.38704" lon="7.17379">
        <ele>796.6</ele>
        <time>2023-04-04T10:35:35.000Z</time>
      </trkpt>
      <trkpt lat="47.38704" lon="7.17377">
        <ele>796.4</ele>
        <time>2023-04-04T10:35:36.000Z</time>
      </trkpt>
      <trkpt lat="47.38704" lon="7.17375">
        <ele>796.2</ele>
        <time>2023-04-04T10:35:37.000Z</time>
      </trkpt>
      <trkpt lat="47.38704" lon="7.17373">
        <ele>796.2</ele>
        <time>2023-04-04T10:35:38.000Z</time>
      </trkpt>
      <trkpt lat="47.38704" lon="7.17371">
        <ele>796.2</ele>
        <time>2023-04-04T10:35:39.000Z</time>
      </trkpt>
      <trkpt lat="47.38704" lon="7.17369">
        <ele>796</ele>
        <time>2023-04-04T10:35:40.000Z</time>
      </trkpt>
      <trkpt lat="47.38704" lon="7.17367">
        <ele>796</ele>
        <time>2023-04-04T10:35:41.000Z</time>
      </trkpt>
      <trkpt lat="47.38703" lon="7.17362">
        <ele>796</ele>
        <time>2023-04-04T10:35:44.000Z</time>
      </trkpt>
      <trkpt lat="47.38703" lon="7.1736">
        <ele>796</ele>
        <time>2023-04-04T10:35:45.000Z</time>
      </trkpt>
      <trkpt lat="47.38702" lon="7.17349">
        <ele>796.2</ele>
        <time>2023-04-04T10:35:51.000Z</time>
      </trkpt>
      <trkpt lat="47.38695" lon="7.17321">
        <ele>796</ele>
        <time>2023-04-04T10:36:05.000Z</time>
      </trkpt>
      <trkpt lat="47.38691" lon="7.17309">
        <ele>796.4</ele>
        <time>2023-04-04T10:36:12.000Z</time>
      </trkpt>
      <trkpt lat="47.38685" lon="7.17287">
        <ele>798.6</ele>
        <time>2023-04-04T10:36:25.000Z</time>
      </trkpt>
      <trkpt lat="47.38685" lon="7.17285">
        <ele>798.8</ele>
        <time>2023-04-04T10:36:26.000Z</time>
      </trkpt>
      <trkpt lat="47.38684" lon="7.17284">
        <ele>799</ele>
        <time>2023-04-04T10:36:27.000Z</time>
      </trkpt>
      <trkpt lat="47.38683" lon="7.17281">
        <ele>799.2</ele>
        <time>2023-04-04T10:36:29.000Z</time>
      </trkpt>
      <trkpt lat="47.38683" lon="7.17271">
        <ele>799.6</ele>
        <time>2023-04-04T10:36:34.000Z</time>
      </trkpt>
      <trkpt lat="47.38683" lon="7.17269">
        <ele>799.6</ele>
        <time>2023-04-04T10:36:35.000Z</time>
      </trkpt>
      <trkpt lat="47.38683" lon="7.17264">
        <ele>799.8</ele>
        <time>2023-04-04T10:36:38.000Z</time>
      </trkpt>
      <trkpt lat="47.38683" lon="7.17262">
        <ele>799.8</ele>
        <time>2023-04-04T10:36:39.000Z</time>
      </trkpt>
      <trkpt lat="47.38683" lon="7.17258">
        <ele>800</ele>
        <time>2023-04-04T10:36:41.000Z</time>
      </trkpt>
      <trkpt lat="47.38683" lon="7.17256">
        <ele>800</ele>
        <time>2023-04-04T10:36:42.000Z</time>
      </trkpt>
      <trkpt lat="47.38683" lon="7.17254">
        <ele>800</ele>
        <time>2023-04-04T10:36:43.000Z</time>
      </trkpt>
      <trkpt lat="47.38683" lon="7.17251">
        <ele>800</ele>
        <time>2023-04-04T10:36:44.000Z</time>
      </trkpt>
      <trkpt lat="47.38677" lon="7.17241">
        <ele>800</ele>
        <time>2023-04-04T10:36:59.000Z</time>
      </trkpt>
      <trkpt lat="47.38667" lon="7.17238">
        <ele>799.6</ele>
        <time>2023-04-04T10:37:24.000Z</time>
      </trkpt>
      <trkpt lat="47.38669" lon="7.17227">
        <ele>799.4</ele>
        <time>2023-04-04T10:37:42.000Z</time>
      </trkpt>
      <trkpt lat="47.3867" lon="7.17226">
        <ele>799.4</ele>
        <time>2023-04-04T10:37:43.000Z</time>
      </trkpt>
      <trkpt lat="47.38671" lon="7.17225">
        <ele>799.2</ele>
        <time>2023-04-04T10:37:44.000Z</time>
      </trkpt>
      <trkpt lat="47.38683" lon="7.17204">
        <ele>799.6</ele>
        <time>2023-04-04T10:37:59.000Z</time>
      </trkpt>
      <trkpt lat="47.38679" lon="7.17203">
        <ele>799.6</ele>
        <time>2023-04-04T10:38:21.000Z</time>
      </trkpt>
      <trkpt lat="47.38672" lon="7.17204">
        <ele>799.6</ele>
        <time>2023-04-04T10:38:48.000Z</time>
      </trkpt>
      <trkpt lat="47.38666" lon="7.17204">
        <ele>798.4</ele>
        <time>2023-04-04T10:39:21.000Z</time>
      </trkpt>
      <trkpt lat="47.38667" lon="7.17199">
        <ele>797.6</ele>
        <time>2023-04-04T10:39:48.000Z</time>
      </trkpt>
      <trkpt lat="47.3867" lon="7.172">
        <ele>797.6</ele>
        <time>2023-04-04T10:40:15.000Z</time>
      </trkpt>
      <trkpt lat="47.38671" lon="7.17197">
        <ele>797.4</ele>
        <time>2023-04-04T10:40:34.000Z</time>
      </trkpt>
      <trkpt lat="47.38675" lon="7.17191">
        <ele>797.2</ele>
        <time>2023-04-04T10:40:38.000Z</time>
      </trkpt>
      <trkpt lat="47.38677" lon="7.17187">
        <ele>796.8</ele>
        <time>2023-04-04T10:40:40.000Z</time>
      </trkpt>
      <trkpt lat="47.38677" lon="7.17185">
        <ele>796.6</ele>
        <time>2023-04-04T10:40:41.000Z</time>
      </trkpt>
      <trkpt lat="47.38677" lon="7.17183">
        <ele>796.4</ele>
        <time>2023-04-04T10:40:42.000Z</time>
      </trkpt>
      <trkpt lat="47.38678" lon="7.17181">
        <ele>796.2</ele>
        <time>2023-04-04T10:40:43.000Z</time>
      </trkpt>
      <trkpt lat="47.38678" lon="7.17179">
        <ele>796</ele>
        <time>2023-04-04T10:40:44.000Z</time>
      </trkpt>
      <trkpt lat="47.38679" lon="7.17177">
        <ele>795.8</ele>
        <time>2023-04-04T10:40:45.000Z</time>
      </trkpt>
      <trkpt lat="47.3868" lon="7.17175">
        <ele>795.6</ele>
        <time>2023-04-04T10:40:46.000Z</time>
      </trkpt>
      <trkpt lat="47.3868" lon="7.17174">
        <ele>795.4</ele>
        <time>2023-04-04T10:40:47.000Z</time>
      </trkpt>
      <trkpt lat="47.38679" lon="7.17166">
        <ele>794</ele>
        <time>2023-04-04T10:41:01.000Z</time>
      </trkpt>
      <trkpt lat="47.38677" lon="7.17164">
        <ele>794.2</ele>
        <time>2023-04-04T10:41:11.000Z</time>
      </trkpt>
      <trkpt lat="47.38678" lon="7.17158">
        <ele>794</ele>
        <time>2023-04-04T10:41:14.000Z</time>
      </trkpt>
      <trkpt lat="47.38678" lon="7.17156">
        <ele>794</ele>
        <time>2023-04-04T10:41:15.000Z</time>
      </trkpt>
      <trkpt lat="47.38678" lon="7.17154">
        <ele>794</ele>
        <time>2023-04-04T10:41:16.000Z</time>
      </trkpt>
      <trkpt lat="47.38679" lon="7.17152">
        <ele>794</ele>
        <time>2023-04-04T10:41:17.000Z</time>
      </trkpt>
      <trkpt lat="47.38679" lon="7.1715">
        <ele>793.8</ele>
        <time>2023-04-04T10:41:18.000Z</time>
      </trkpt>
      <trkpt lat="47.38681" lon="7.17124">
        <ele>793</ele>
        <time>2023-04-04T10:41:31.000Z</time>
      </trkpt>
      <trkpt lat="47.38681" lon="7.1712">
        <ele>792.8</ele>
        <time>2023-04-04T10:41:33.000Z</time>
      </trkpt>
      <trkpt lat="47.38681" lon="7.17119">
        <ele>792.6</ele>
        <time>2023-04-04T10:41:34.000Z</time>
      </trkpt>
      <trkpt lat="47.38679" lon="7.17106">
        <ele>792</ele>
        <time>2023-04-04T10:41:41.000Z</time>
      </trkpt>
      <trkpt lat="47.38679" lon="7.17104">
        <ele>791.8</ele>
        <time>2023-04-04T10:41:42.000Z</time>
      </trkpt>
      <trkpt lat="47.38678" lon="7.17102">
        <ele>791.6</ele>
        <time>2023-04-04T10:41:43.000Z</time>
      </trkpt>
      <trkpt lat="47.38678" lon="7.171">
        <ele>791.4</ele>
        <time>2023-04-04T10:41:44.000Z</time>
      </trkpt>
      <trkpt lat="47.38678" lon="7.17098">
        <ele>791.4</ele>
        <time>2023-04-04T10:41:45.000Z</time>
      </trkpt>
      <trkpt lat="47.38678" lon="7.17096">
        <ele>791.4</ele>
        <time>2023-04-04T10:41:46.000Z</time>
      </trkpt>
      <trkpt lat="47.38678" lon="7.17094">
        <ele>791.4</ele>
        <time>2023-04-04T10:41:47.000Z</time>
      </trkpt>
      <trkpt lat="47.38679" lon="7.17093">
        <ele>791.4</ele>
        <time>2023-04-04T10:41:48.000Z</time>
      </trkpt>
      <trkpt lat="47.38679" lon="7.1709">
        <ele>791.2</ele>
        <time>2023-04-04T10:41:49.000Z</time>
      </trkpt>
      <trkpt lat="47.38679" lon="7.17088">
        <ele>791.2</ele>
        <time>2023-04-04T10:41:50.000Z</time>
      </trkpt>
      <trkpt lat="47.3868" lon="7.17073">
        <ele>791.2</ele>
        <time>2023-04-04T10:41:58.000Z</time>
      </trkpt>
      <trkpt lat="47.38681" lon="7.17071">
        <ele>791.2</ele>
        <time>2023-04-04T10:41:59.000Z</time>
      </trkpt>
      <trkpt lat="47.38681" lon="7.17069">
        <ele>791.2</ele>
        <time>2023-04-04T10:42:00.000Z</time>
      </trkpt>
      <trkpt lat="47.38681" lon="7.17066">
        <ele>791.2</ele>
        <time>2023-04-04T10:42:01.000Z</time>
      </trkpt>
      <trkpt lat="47.38681" lon="7.17065">
        <ele>791.4</ele>
        <time>2023-04-04T10:42:02.000Z</time>
      </trkpt>
      <trkpt lat="47.38681" lon="7.17063">
        <ele>791.6</ele>
        <time>2023-04-04T10:42:03.000Z</time>
      </trkpt>
      <trkpt lat="47.38681" lon="7.17061">
        <ele>791.8</ele>
        <time>2023-04-04T10:42:04.000Z</time>
      </trkpt>
      <trkpt lat="47.38681" lon="7.17059">
        <ele>792</ele>
        <time>2023-04-04T10:42:05.000Z</time>
      </trkpt>
      <trkpt lat="47.38682" lon="7.17057">
        <ele>792</ele>
        <time>2023-04-04T10:42:06.000Z</time>
      </trkpt>
      <trkpt lat="47.38682" lon="7.17056">
        <ele>792</ele>
        <time>2023-04-04T10:42:07.000Z</time>
      </trkpt>
      <trkpt lat="47.38682" lon="7.17054">
        <ele>792</ele>
        <time>2023-04-04T10:42:08.000Z</time>
      </trkpt>
      <trkpt lat="47.38682" lon="7.17052">
        <ele>792.2</ele>
        <time>2023-04-04T10:42:09.000Z</time>
      </trkpt>
      <trkpt lat="47.38682" lon="7.1705">
        <ele>792.2</ele>
        <time>2023-04-04T10:42:10.000Z</time>
      </trkpt>
      <trkpt lat="47.38684" lon="7.17039">
        <ele>792.8</ele>
        <time>2023-04-04T10:42:19.000Z</time>
      </trkpt>
      <trkpt lat="47.38685" lon="7.17038">
        <ele>792.6</ele>
        <time>2023-04-04T10:42:20.000Z</time>
      </trkpt>
      <trkpt lat="47.38685" lon="7.17036">
        <ele>792.4</ele>
        <time>2023-04-04T10:42:21.000Z</time>
      </trkpt>
      <trkpt lat="47.38686" lon="7.17034">
        <ele>792.2</ele>
        <time>2023-04-04T10:42:22.000Z</time>
      </trkpt>
      <trkpt lat="47.38686" lon="7.17032">
        <ele>792</ele>
        <time>2023-04-04T10:42:23.000Z</time>
      </trkpt>
      <trkpt lat="47.38687" lon="7.1703">
        <ele>792</ele>
        <time>2023-04-04T10:42:24.000Z</time>
      </trkpt>
      <trkpt lat="47.38688" lon="7.17028">
        <ele>791.8</ele>
        <time>2023-04-04T10:42:25.000Z</time>
      </trkpt>
      <trkpt lat="47.38689" lon="7.17021">
        <ele>791.4</ele>
        <time>2023-04-04T10:42:29.000Z</time>
      </trkpt>
      <trkpt lat="47.38689" lon="7.17019">
        <ele>791.4</ele>
        <time>2023-04-04T10:42:30.000Z</time>
      </trkpt>
      <trkpt lat="47.38691" lon="7.17007">
        <ele>790.6</ele>
        <time>2023-04-04T10:42:38.000Z</time>
      </trkpt>
      <trkpt lat="47.38692" lon="7.16988">
        <ele>789.4</ele>
        <time>2023-04-04T10:42:48.000Z</time>
      </trkpt>
      <trkpt lat="47.38692" lon="7.16986">
        <ele>789.2</ele>
        <time>2023-04-04T10:42:49.000Z</time>
      </trkpt>
      <trkpt lat="47.38692" lon="7.1698">
        <ele>788.8</ele>
        <time>2023-04-04T10:42:52.000Z</time>
      </trkpt>
      <trkpt lat="47.38693" lon="7.16979">
        <ele>788.6</ele>
        <time>2023-04-04T10:42:53.000Z</time>
      </trkpt>
      <trkpt lat="47.38693" lon="7.16977">
        <ele>788.6</ele>
        <time>2023-04-04T10:42:54.000Z</time>
      </trkpt>
      <trkpt lat="47.38693" lon="7.16975">
        <ele>788.4</ele>
        <time>2023-04-04T10:42:55.000Z</time>
      </trkpt>
      <trkpt lat="47.38693" lon="7.16974">
        <ele>788.4</ele>
        <time>2023-04-04T10:42:56.000Z</time>
      </trkpt>
      <trkpt lat="47.38693" lon="7.16972">
        <ele>788.2</ele>
        <time>2023-04-04T10:42:57.000Z</time>
      </trkpt>
      <trkpt lat="47.38695" lon="7.16964">
        <ele>787.4</ele>
        <time>2023-04-04T10:43:02.000Z</time>
      </trkpt>
      <trkpt lat="47.38698" lon="7.16957">
        <ele>786.6</ele>
        <time>2023-04-04T10:43:09.000Z</time>
      </trkpt>
      <trkpt lat="47.38699" lon="7.16956">
        <ele>786.6</ele>
        <time>2023-04-04T10:43:10.000Z</time>
      </trkpt>
      <trkpt lat="47.387" lon="7.16956">
        <ele>786.4</ele>
        <time>2023-04-04T10:43:11.000Z</time>
      </trkpt>
      <trkpt lat="47.38704" lon="7.16952">
        <ele>785.6</ele>
        <time>2023-04-04T10:43:19.000Z</time>
      </trkpt>
      <trkpt lat="47.38705" lon="7.16948">
        <ele>785.2</ele>
        <time>2023-04-04T10:43:21.000Z</time>
      </trkpt>
      <trkpt lat="47.38707" lon="7.16944">
        <ele>785</ele>
        <time>2023-04-04T10:43:23.000Z</time>
      </trkpt>
      <trkpt lat="47.38707" lon="7.16942">
        <ele>784.8</ele>
        <time>2023-04-04T10:43:24.000Z</time>
      </trkpt>
      <trkpt lat="47.38708" lon="7.16938">
        <ele>784.4</ele>
        <time>2023-04-04T10:43:26.000Z</time>
      </trkpt>
      <trkpt lat="47.38711" lon="7.16926">
        <ele>783.8</ele>
        <time>2023-04-04T10:43:40.000Z</time>
      </trkpt>
      <trkpt lat="47.38712" lon="7.16924">
        <ele>783.6</ele>
        <time>2023-04-04T10:43:41.000Z</time>
      </trkpt>
      <trkpt lat="47.38713" lon="7.16922">
        <ele>783.2</ele>
        <time>2023-04-04T10:43:42.000Z</time>
      </trkpt>
      <trkpt lat="47.38713" lon="7.1692">
        <ele>783</ele>
        <time>2023-04-04T10:43:43.000Z</time>
      </trkpt>
      <trkpt lat="47.38714" lon="7.16903">
        <ele>782.8</ele>
        <time>2023-04-04T10:43:57.000Z</time>
      </trkpt>
      <trkpt lat="47.38712" lon="7.16902">
        <ele>782.2</ele>
        <time>2023-04-04T10:44:03.000Z</time>
      </trkpt>
      <trkpt lat="47.38711" lon="7.16895">
        <ele>782.4</ele>
        <time>2023-04-04T10:44:17.000Z</time>
      </trkpt>
      <trkpt lat="47.3871" lon="7.16893">
        <ele>782.2</ele>
        <time>2023-04-04T10:44:18.000Z</time>
      </trkpt>
      <trkpt lat="47.3871" lon="7.16891">
        <ele>782.2</ele>
        <time>2023-04-04T10:44:19.000Z</time>
      </trkpt>
      <trkpt lat="47.3871" lon="7.1689">
        <ele>782.2</ele>
        <time>2023-04-04T10:44:20.000Z</time>
      </trkpt>
      <trkpt lat="47.38709" lon="7.16888">
        <ele>782</ele>
        <time>2023-04-04T10:44:21.000Z</time>
      </trkpt>
      <trkpt lat="47.38709" lon="7.16886">
        <ele>782</ele>
        <time>2023-04-04T10:44:22.000Z</time>
      </trkpt>
      <trkpt lat="47.38708" lon="7.1688">
        <ele>782.2</ele>
        <time>2023-04-04T10:44:26.000Z</time>
      </trkpt>
      <trkpt lat="47.38708" lon="7.16878">
        <ele>782.2</ele>
        <time>2023-04-04T10:44:27.000Z</time>
      </trkpt>
      <trkpt lat="47.38705" lon="7.16865">
        <ele>783.2</ele>
        <time>2023-04-04T10:44:38.000Z</time>
      </trkpt>
      <trkpt lat="47.38704" lon="7.16862">
        <ele>783.2</ele>
        <time>2023-04-04T10:44:40.000Z</time>
      </trkpt>
      <trkpt lat="47.38701" lon="7.16853">
        <ele>783.8</ele>
        <time>2023-04-04T10:44:46.000Z</time>
      </trkpt>
      <trkpt lat="47.38701" lon="7.16851">
        <ele>784</ele>
        <time>2023-04-04T10:44:47.000Z</time>
      </trkpt>
      <trkpt lat="47.38701" lon="7.16849">
        <ele>784</ele>
        <time>2023-04-04T10:44:48.000Z</time>
      </trkpt>
      <trkpt lat="47.387" lon="7.16847">
        <ele>784</ele>
        <time>2023-04-04T10:44:49.000Z</time>
      </trkpt>
      <trkpt lat="47.387" lon="7.16846">
        <ele>784</ele>
        <time>2023-04-04T10:44:50.000Z</time>
      </trkpt>
      <trkpt lat="47.38693" lon="7.16824">
        <ele>786</ele>
        <time>2023-04-04T10:45:06.000Z</time>
      </trkpt>
      <trkpt lat="47.38693" lon="7.16819">
        <ele>786.2</ele>
        <time>2023-04-04T10:45:09.000Z</time>
      </trkpt>
      <trkpt lat="47.38689" lon="7.16805">
        <ele>787.4</ele>
        <time>2023-04-04T10:45:18.000Z</time>
      </trkpt>
      <trkpt lat="47.38689" lon="7.16804">
        <ele>787.4</ele>
        <time>2023-04-04T10:45:19.000Z</time>
      </trkpt>
      <trkpt lat="47.38684" lon="7.16795">
        <ele>788</ele>
        <time>2023-04-04T10:45:25.000Z</time>
      </trkpt>
      <trkpt lat="47.38684" lon="7.16794">
        <ele>788</ele>
        <time>2023-04-04T10:45:26.000Z</time>
      </trkpt>
      <trkpt lat="47.38683" lon="7.16792">
        <ele>788</ele>
        <time>2023-04-04T10:45:27.000Z</time>
      </trkpt>
      <trkpt lat="47.38681" lon="7.16772">
        <ele>788.8</ele>
        <time>2023-04-04T10:45:40.000Z</time>
      </trkpt>
      <trkpt lat="47.38672" lon="7.16741">
        <ele>790.8</ele>
        <time>2023-04-04T10:46:01.000Z</time>
      </trkpt>
      <trkpt lat="47.3867" lon="7.16739">
        <ele>791</ele>
        <time>2023-04-04T10:46:04.000Z</time>
      </trkpt>
      <trkpt lat="47.3867" lon="7.16737">
        <ele>791</ele>
        <time>2023-04-04T10:46:05.000Z</time>
      </trkpt>
      <trkpt lat="47.38668" lon="7.16735">
        <ele>792</ele>
        <time>2023-04-04T10:46:22.000Z</time>
      </trkpt>
      <trkpt lat="47.38667" lon="7.16729">
        <ele>791.8</ele>
        <time>2023-04-04T10:46:36.000Z</time>
      </trkpt>
      <trkpt lat="47.38667" lon="7.16726">
        <ele>791.8</ele>
        <time>2023-04-04T10:46:38.000Z</time>
      </trkpt>
      <trkpt lat="47.38659" lon="7.167">
        <ele>793.8</ele>
        <time>2023-04-04T10:46:55.000Z</time>
      </trkpt>
      <trkpt lat="47.38648" lon="7.16685">
        <ele>796.8</ele>
        <time>2023-04-04T10:47:09.000Z</time>
      </trkpt>
      <trkpt lat="47.3863" lon="7.16665">
        <ele>800</ele>
        <time>2023-04-04T10:47:30.000Z</time>
      </trkpt>
      <trkpt lat="47.38613" lon="7.16653">
        <ele>802.6</ele>
        <time>2023-04-04T10:47:48.000Z</time>
      </trkpt>
      <trkpt lat="47.38612" lon="7.16652">
        <ele>802.8</ele>
        <time>2023-04-04T10:47:49.000Z</time>
      </trkpt>
      <trkpt lat="47.38611" lon="7.16651">
        <ele>803</ele>
        <time>2023-04-04T10:47:50.000Z</time>
      </trkpt>
      <trkpt lat="47.38592" lon="7.16647">
        <ele>806.2</ele>
        <time>2023-04-04T10:48:09.000Z</time>
      </trkpt>
      <trkpt lat="47.38588" lon="7.16646">
        <ele>807.2</ele>
        <time>2023-04-04T10:48:25.000Z</time>
      </trkpt>
      <trkpt lat="47.38584" lon="7.16644">
        <ele>807.8</ele>
        <time>2023-04-04T10:48:51.000Z</time>
      </trkpt>
      <trkpt lat="47.38565" lon="7.16641">
        <ele>810</ele>
        <time>2023-04-04T10:49:08.000Z</time>
      </trkpt>
      <trkpt lat="47.3855" lon="7.16639">
        <ele>813</ele>
        <time>2023-04-04T10:49:22.000Z</time>
      </trkpt>
      <trkpt lat="47.38533" lon="7.16634">
        <ele>815</ele>
        <time>2023-04-04T10:49:39.000Z</time>
      </trkpt>
      <trkpt lat="47.38518" lon="7.16629">
        <ele>817.2</ele>
        <time>2023-04-04T10:49:54.000Z</time>
      </trkpt>
      <trkpt lat="47.38504" lon="7.16622">
        <ele>820.4</ele>
        <time>2023-04-04T10:50:10.000Z</time>
      </trkpt>
      <trkpt lat="47.38489" lon="7.1661">
        <ele>821.8</ele>
        <time>2023-04-04T10:50:25.000Z</time>
      </trkpt>
      <trkpt lat="47.38481" lon="7.16602">
        <ele>823.2</ele>
        <time>2023-04-04T10:50:41.000Z</time>
      </trkpt>
      <trkpt lat="47.38479" lon="7.166">
        <ele>823.2</ele>
        <time>2023-04-04T10:50:43.000Z</time>
      </trkpt>
      <trkpt lat="47.38479" lon="7.16599">
        <ele>823.4</ele>
        <time>2023-04-04T10:50:44.000Z</time>
      </trkpt>
      <trkpt lat="47.38478" lon="7.16598">
        <ele>823.4</ele>
        <time>2023-04-04T10:50:45.000Z</time>
      </trkpt>
      <trkpt lat="47.3846" lon="7.16579">
        <ele>824.2</ele>
        <time>2023-04-04T10:51:02.000Z</time>
      </trkpt>
      <trkpt lat="47.38452" lon="7.16569">
        <ele>823.6</ele>
        <time>2023-04-04T10:51:11.000Z</time>
      </trkpt>
      <trkpt lat="47.38451" lon="7.16567">
        <ele>823.4</ele>
        <time>2023-04-04T10:51:12.000Z</time>
      </trkpt>
      <trkpt lat="47.38442" lon="7.1655">
        <ele>822.2</ele>
        <time>2023-04-04T10:51:24.000Z</time>
      </trkpt>
      <trkpt lat="47.38427" lon="7.16529">
        <ele>822.2</ele>
        <time>2023-04-04T10:51:39.000Z</time>
      </trkpt>
      <trkpt lat="47.38424" lon="7.16522">
        <ele>822.6</ele>
        <time>2023-04-04T10:51:44.000Z</time>
      </trkpt>
      <trkpt lat="47.38423" lon="7.16521">
        <ele>822.6</ele>
        <time>2023-04-04T10:51:45.000Z</time>
      </trkpt>
      <trkpt lat="47.38422" lon="7.16519">
        <ele>822.8</ele>
        <time>2023-04-04T10:51:46.000Z</time>
      </trkpt>
      <trkpt lat="47.3842" lon="7.16518">
        <ele>822.8</ele>
        <time>2023-04-04T10:51:47.000Z</time>
      </trkpt>
      <trkpt lat="47.38419" lon="7.16517">
        <ele>822.8</ele>
        <time>2023-04-04T10:51:48.000Z</time>
      </trkpt>
      <trkpt lat="47.38404" lon="7.165">
        <ele>823.6</ele>
        <time>2023-04-04T10:52:02.000Z</time>
      </trkpt>
      <trkpt lat="47.3839" lon="7.16477">
        <ele>824.4</ele>
        <time>2023-04-04T10:52:19.000Z</time>
      </trkpt>
      <trkpt lat="47.38374" lon="7.16456">
        <ele>825.4</ele>
        <time>2023-04-04T10:52:35.000Z</time>
      </trkpt>
      <trkpt lat="47.38369" lon="7.16449">
        <ele>825.4</ele>
        <time>2023-04-04T10:52:41.000Z</time>
      </trkpt>
      <trkpt lat="47.38368" lon="7.16447">
        <ele>825.6</ele>
        <time>2023-04-04T10:52:42.000Z</time>
      </trkpt>
      <trkpt lat="47.38368" lon="7.16446">
        <ele>825.8</ele>
        <time>2023-04-04T10:52:43.000Z</time>
      </trkpt>
      <trkpt lat="47.3836" lon="7.16432">
        <ele>826.8</ele>
        <time>2023-04-04T10:52:58.000Z</time>
      </trkpt>
      <trkpt lat="47.38358" lon="7.16425">
        <ele>827.4</ele>
        <time>2023-04-04T10:53:03.000Z</time>
      </trkpt>
      <trkpt lat="47.38357" lon="7.16424">
        <ele>827.4</ele>
        <time>2023-04-04T10:53:04.000Z</time>
      </trkpt>
      <trkpt lat="47.38337" lon="7.16401">
        <ele>828.2</ele>
        <time>2023-04-04T10:53:21.000Z</time>
      </trkpt>
      <trkpt lat="47.38324" lon="7.16388">
        <ele>828.4</ele>
        <time>2023-04-04T10:53:31.000Z</time>
      </trkpt>
      <trkpt lat="47.38314" lon="7.16382">
        <ele>828.4</ele>
        <time>2023-04-04T10:53:40.000Z</time>
      </trkpt>
      <trkpt lat="47.38313" lon="7.1638">
        <ele>828.4</ele>
        <time>2023-04-04T10:53:41.000Z</time>
      </trkpt>
      <trkpt lat="47.38298" lon="7.1635">
        <ele>828</ele>
        <time>2023-04-04T10:54:04.000Z</time>
      </trkpt>
      <trkpt lat="47.38295" lon="7.16342">
        <ele>828</ele>
        <time>2023-04-04T10:54:09.000Z</time>
      </trkpt>
      <trkpt lat="47.38294" lon="7.16339">
        <ele>828</ele>
        <time>2023-04-04T10:54:12.000Z</time>
      </trkpt>
      <trkpt lat="47.38293" lon="7.16337">
        <ele>828</ele>
        <time>2023-04-04T10:54:13.000Z</time>
      </trkpt>
      <trkpt lat="47.38285" lon="7.1632">
        <ele>828.6</ele>
        <time>2023-04-04T10:54:24.000Z</time>
      </trkpt>
      <trkpt lat="47.38279" lon="7.16307">
        <ele>828.6</ele>
        <time>2023-04-04T10:54:32.000Z</time>
      </trkpt>
      <trkpt lat="47.38278" lon="7.16302">
        <ele>828.6</ele>
        <time>2023-04-04T10:54:35.000Z</time>
      </trkpt>
      <trkpt lat="47.38264" lon="7.16283">
        <ele>828.2</ele>
        <time>2023-04-04T10:54:49.000Z</time>
      </trkpt>
      <trkpt lat="47.3825" lon="7.16266">
        <ele>827.8</ele>
        <time>2023-04-04T10:55:01.000Z</time>
      </trkpt>
      <trkpt lat="47.3824" lon="7.16249">
        <ele>827</ele>
        <time>2023-04-04T10:55:11.000Z</time>
      </trkpt>
      <trkpt lat="47.38236" lon="7.16245">
        <ele>826.4</ele>
        <time>2023-04-04T10:55:14.000Z</time>
      </trkpt>
      <trkpt lat="47.38232" lon="7.16239">
        <ele>825.6</ele>
        <time>2023-04-04T10:55:18.000Z</time>
      </trkpt>
      <trkpt lat="47.38219" lon="7.16221">
        <ele>823.8</ele>
        <time>2023-04-04T10:55:31.000Z</time>
      </trkpt>
      <trkpt lat="47.38218" lon="7.1622">
        <ele>823.6</ele>
        <time>2023-04-04T10:55:32.000Z</time>
      </trkpt>
      <trkpt lat="47.38217" lon="7.16218">
        <ele>823.4</ele>
        <time>2023-04-04T10:55:33.000Z</time>
      </trkpt>
      <trkpt lat="47.38216" lon="7.16217">
        <ele>823.2</ele>
        <time>2023-04-04T10:55:34.000Z</time>
      </trkpt>
      <trkpt lat="47.38215" lon="7.16213">
        <ele>822.8</ele>
        <time>2023-04-04T10:55:36.000Z</time>
      </trkpt>
      <trkpt lat="47.38204" lon="7.16201">
        <ele>822.2</ele>
        <time>2023-04-04T10:55:48.000Z</time>
      </trkpt>
      <trkpt lat="47.38189" lon="7.16188">
        <ele>823.4</ele>
        <time>2023-04-04T10:56:02.000Z</time>
      </trkpt>
      <trkpt lat="47.38155" lon="7.1616">
        <ele>828.6</ele>
        <time>2023-04-04T10:56:47.000Z</time>
      </trkpt>
      <trkpt lat="47.38156" lon="7.16153">
        <ele>831.6</ele>
        <time>2023-04-04T10:57:03.000Z</time>
      </trkpt>
      <trkpt lat="47.3815" lon="7.16151">
        <ele>834.6</ele>
        <time>2023-04-04T10:57:22.000Z</time>
      </trkpt>
      <trkpt lat="47.38125" lon="7.16137">
        <ele>841.2</ele>
        <time>2023-04-04T10:58:04.000Z</time>
      </trkpt>
      <trkpt lat="47.38057" lon="7.16114">
        <ele>860.2</ele>
        <time>2023-04-04T11:00:05.000Z</time>
      </trkpt>
      <trkpt lat="47.38048" lon="7.16116">
        <ele>862.8</ele>
        <time>2023-04-04T11:00:28.000Z</time>
      </trkpt>
      <trkpt lat="47.38046" lon="7.16116">
        <ele>863.4</ele>
        <time>2023-04-04T11:00:53.000Z</time>
      </trkpt>
      <trkpt lat="47.38042" lon="7.16104">
        <ele>862.8</ele>
        <time>2023-04-04T11:01:20.000Z</time>
      </trkpt>
      <trkpt lat="47.38043" lon="7.16105">
        <ele>862.8</ele>
        <time>2023-04-04T11:01:47.000Z</time>
      </trkpt>
      <trkpt lat="47.38045" lon="7.16109">
        <ele>862.4</ele>
        <time>2023-04-04T11:02:17.000Z</time>
      </trkpt>
      <trkpt lat="47.38045" lon="7.16109">
        <ele>862.8</ele>
        <time>2023-04-04T11:02:47.000Z</time>
      </trkpt>
      <trkpt lat="47.38047" lon="7.16123">
        <ele>862.4</ele>
        <time>2023-04-04T11:03:06.000Z</time>
      </trkpt>
      <trkpt lat="47.38032" lon="7.16141">
        <ele>858.6</ele>
        <time>2023-04-04T11:03:51.000Z</time>
      </trkpt>
      <trkpt lat="47.38032" lon="7.16143">
        <ele>858.4</ele>
        <time>2023-04-04T11:03:52.000Z</time>
      </trkpt>
      <trkpt lat="47.38031" lon="7.16144">
        <ele>858.2</ele>
        <time>2023-04-04T11:03:53.000Z</time>
      </trkpt>
      <trkpt lat="47.38018" lon="7.16163">
        <ele>855.4</ele>
        <time>2023-04-04T11:04:09.000Z</time>
      </trkpt>
      <trkpt lat="47.38008" lon="7.16172">
        <ele>853.6</ele>
        <time>2023-04-04T11:04:23.000Z</time>
      </trkpt>
      <trkpt lat="47.38007" lon="7.16173">
        <ele>853</ele>
        <time>2023-04-04T11:04:45.000Z</time>
      </trkpt>
      <trkpt lat="47.37996" lon="7.16181">
        <ele>851.4</ele>
        <time>2023-04-04T11:05:01.000Z</time>
      </trkpt>
      <trkpt lat="47.37986" lon="7.16177">
        <ele>848.2</ele>
        <time>2023-04-04T11:05:12.000Z</time>
      </trkpt>
      <trkpt lat="47.37977" lon="7.16169">
        <ele>845.2</ele>
        <time>2023-04-04T11:05:21.000Z</time>
      </trkpt>
      <trkpt lat="47.3797" lon="7.1618">
        <ele>843</ele>
        <time>2023-04-04T11:05:33.000Z</time>
      </trkpt>
      <trkpt lat="47.37966" lon="7.16194">
        <ele>839.8</ele>
        <time>2023-04-04T11:05:44.000Z</time>
      </trkpt>
      <trkpt lat="47.37956" lon="7.1621">
        <ele>836.8</ele>
        <time>2023-04-04T11:05:57.000Z</time>
      </trkpt>
      <trkpt lat="47.37952" lon="7.1621">
        <ele>835.6</ele>
        <time>2023-04-04T11:06:16.000Z</time>
      </trkpt>
      <trkpt lat="47.3795" lon="7.16216">
        <ele>835.6</ele>
        <time>2023-04-04T11:06:38.000Z</time>
      </trkpt>
      <trkpt lat="47.37941" lon="7.16232">
        <ele>832.6</ele>
        <time>2023-04-04T11:06:50.000Z</time>
      </trkpt>
      <trkpt lat="47.37941" lon="7.1624">
        <ele>829.6</ele>
        <time>2023-04-04T11:06:59.000Z</time>
      </trkpt>
      <trkpt lat="47.37938" lon="7.16266">
        <ele>826.8</ele>
        <time>2023-04-04T11:07:15.000Z</time>
      </trkpt>
      <trkpt lat="47.37937" lon="7.16268">
        <ele>826.6</ele>
        <time>2023-04-04T11:07:16.000Z</time>
      </trkpt>
      <trkpt lat="47.37934" lon="7.16268">
        <ele>824.8</ele>
        <time>2023-04-04T11:07:20.000Z</time>
      </trkpt>
      <trkpt lat="47.37927" lon="7.1625">
        <ele>821.6</ele>
        <time>2023-04-04T11:07:35.000Z</time>
      </trkpt>
      <trkpt lat="47.3792" lon="7.16235">
        <ele>819.8</ele>
        <time>2023-04-04T11:07:53.000Z</time>
      </trkpt>
      <trkpt lat="47.37912" lon="7.16218">
        <ele>818.2</ele>
        <time>2023-04-04T11:08:08.000Z</time>
      </trkpt>
      <trkpt lat="47.37904" lon="7.162">
        <ele>815.2</ele>
        <time>2023-04-04T11:08:22.000Z</time>
      </trkpt>
      <trkpt lat="47.37895" lon="7.16182">
        <ele>812.2</ele>
        <time>2023-04-04T11:08:35.000Z</time>
      </trkpt>
      <trkpt lat="47.37895" lon="7.16179">
        <ele>811.6</ele>
        <time>2023-04-04T11:08:37.000Z</time>
      </trkpt>
      <trkpt lat="47.37887" lon="7.16165">
        <ele>808.4</ele>
        <time>2023-04-04T11:08:48.000Z</time>
      </trkpt>
      <trkpt lat="47.37884" lon="7.16164">
        <ele>807.6</ele>
        <time>2023-04-04T11:08:50.000Z</time>
      </trkpt>
      <trkpt lat="47.37875" lon="7.16167">
        <ele>805.4</ele>
        <time>2023-04-04T11:08:56.000Z</time>
      </trkpt>
      <trkpt lat="47.37861" lon="7.16171">
        <ele>802.2</ele>
        <time>2023-04-04T11:09:06.000Z</time>
      </trkpt>
      <trkpt lat="47.37851" lon="7.16171">
        <ele>799.2</ele>
        <time>2023-04-04T11:09:20.000Z</time>
      </trkpt>
      <trkpt lat="47.37835" lon="7.16177">
        <ele>796.6</ele>
        <time>2023-04-04T11:09:39.000Z</time>
      </trkpt>
      <trkpt lat="47.3782" lon="7.16185">
        <ele>793.8</ele>
        <time>2023-04-04T11:09:52.000Z</time>
      </trkpt>
      <trkpt lat="47.37814" lon="7.16188">
        <ele>792.6</ele>
        <time>2023-04-04T11:09:57.000Z</time>
      </trkpt>
      <trkpt lat="47.37812" lon="7.1619">
        <ele>792</ele>
        <time>2023-04-04T11:09:59.000Z</time>
      </trkpt>
      <trkpt lat="47.37811" lon="7.1619">
        <ele>791.8</ele>
        <time>2023-04-04T11:10:00.000Z</time>
      </trkpt>
      <trkpt lat="47.37795" lon="7.16199">
        <ele>788.8</ele>
        <time>2023-04-04T11:10:12.000Z</time>
      </trkpt>
      <trkpt lat="47.37788" lon="7.16219">
        <ele>786.6</ele>
        <time>2023-04-04T11:10:26.000Z</time>
      </trkpt>
      <trkpt lat="47.37782" lon="7.16241">
        <ele>784.2</ele>
        <time>2023-04-04T11:10:40.000Z</time>
      </trkpt>
      <trkpt lat="47.37778" lon="7.16251">
        <ele>782.2</ele>
        <time>2023-04-04T11:10:51.000Z</time>
      </trkpt>
      <trkpt lat="47.37777" lon="7.16255">
        <ele>782</ele>
        <time>2023-04-04T11:10:53.000Z</time>
      </trkpt>
      <trkpt lat="47.37776" lon="7.16257">
        <ele>781.8</ele>
        <time>2023-04-04T11:10:54.000Z</time>
      </trkpt>
      <trkpt lat="47.37776" lon="7.16259">
        <ele>781.6</ele>
        <time>2023-04-04T11:10:55.000Z</time>
      </trkpt>
      <trkpt lat="47.37773" lon="7.16284">
        <ele>780.6</ele>
        <time>2023-04-04T11:11:08.000Z</time>
      </trkpt>
      <trkpt lat="47.3777" lon="7.16292">
        <ele>778.8</ele>
        <time>2023-04-04T11:11:20.000Z</time>
      </trkpt>
      <trkpt lat="47.37755" lon="7.16282">
        <ele>776.4</ele>
        <time>2023-04-04T11:11:39.000Z</time>
      </trkpt>
      <trkpt lat="47.37754" lon="7.16282">
        <ele>776.4</ele>
        <time>2023-04-04T11:11:40.000Z</time>
      </trkpt>
      <trkpt lat="47.37737" lon="7.16281">
        <ele>774.8</ele>
        <time>2023-04-04T11:11:56.000Z</time>
      </trkpt>
      <trkpt lat="47.37734" lon="7.16273">
        <ele>773.8</ele>
        <time>2023-04-04T11:12:13.000Z</time>
      </trkpt>
      <trkpt lat="47.37734" lon="7.16267">
        <ele>773.2</ele>
        <time>2023-04-04T11:12:16.000Z</time>
      </trkpt>
      <trkpt lat="47.37734" lon="7.16265">
        <ele>773</ele>
        <time>2023-04-04T11:12:17.000Z</time>
      </trkpt>
      <trkpt lat="47.37735" lon="7.16264">
        <ele>773</ele>
        <time>2023-04-04T11:12:18.000Z</time>
      </trkpt>
      <trkpt lat="47.37735" lon="7.16262">
        <ele>772.8</ele>
        <time>2023-04-04T11:12:19.000Z</time>
      </trkpt>
      <trkpt lat="47.37742" lon="7.16236">
        <ele>771.4</ele>
        <time>2023-04-04T11:12:34.000Z</time>
      </trkpt>
      <trkpt lat="47.37743" lon="7.16232">
        <ele>771.2</ele>
        <time>2023-04-04T11:12:36.000Z</time>
      </trkpt>
      <trkpt lat="47.37743" lon="7.1623">
        <ele>771.2</ele>
        <time>2023-04-04T11:12:37.000Z</time>
      </trkpt>
      <trkpt lat="47.37743" lon="7.16228">
        <ele>771.2</ele>
        <time>2023-04-04T11:12:38.000Z</time>
      </trkpt>
      <trkpt lat="47.37743" lon="7.16226">
        <ele>771.2</ele>
        <time>2023-04-04T11:12:39.000Z</time>
      </trkpt>
      <trkpt lat="47.37743" lon="7.16224">
        <ele>771</ele>
        <time>2023-04-04T11:12:40.000Z</time>
      </trkpt>
      <trkpt lat="47.37742" lon="7.16215">
        <ele>770.2</ele>
        <time>2023-04-04T11:12:45.000Z</time>
      </trkpt>
      <trkpt lat="47.37742" lon="7.16214">
        <ele>770.2</ele>
        <time>2023-04-04T11:12:46.000Z</time>
      </trkpt>
      <trkpt lat="47.37741" lon="7.16212">
        <ele>770</ele>
        <time>2023-04-04T11:12:47.000Z</time>
      </trkpt>
      <trkpt lat="47.37741" lon="7.1621">
        <ele>769.8</ele>
        <time>2023-04-04T11:12:48.000Z</time>
      </trkpt>
      <trkpt lat="47.3774" lon="7.16208">
        <ele>769.6</ele>
        <time>2023-04-04T11:12:49.000Z</time>
      </trkpt>
      <trkpt lat="47.37741" lon="7.16181">
        <ele>767.4</ele>
        <time>2023-04-04T11:13:03.000Z</time>
      </trkpt>
      <trkpt lat="47.37747" lon="7.16154">
        <ele>764.8</ele>
        <time>2023-04-04T11:13:19.000Z</time>
      </trkpt>
      <trkpt lat="47.37745" lon="7.16148">
        <ele>764.2</ele>
        <time>2023-04-04T11:13:23.000Z</time>
      </trkpt>
      <trkpt lat="47.37743" lon="7.16146">
        <ele>763.4</ele>
        <time>2023-04-04T11:13:25.000Z</time>
      </trkpt>
      <trkpt lat="47.37741" lon="7.16145">
        <ele>763.2</ele>
        <time>2023-04-04T11:13:26.000Z</time>
      </trkpt>
      <trkpt lat="47.37738" lon="7.1614">
        <ele>762.4</ele>
        <time>2023-04-04T11:13:42.000Z</time>
      </trkpt>
      <trkpt lat="47.37731" lon="7.16135">
        <ele>761.4</ele>
        <time>2023-04-04T11:13:53.000Z</time>
      </trkpt>
      <trkpt lat="47.37731" lon="7.16132">
        <ele>761.2</ele>
        <time>2023-04-04T11:13:54.000Z</time>
      </trkpt>
      <trkpt lat="47.37731" lon="7.16129">
        <ele>760.4</ele>
        <time>2023-04-04T11:13:56.000Z</time>
      </trkpt>
      <trkpt lat="47.37732" lon="7.16127">
        <ele>760</ele>
        <time>2023-04-04T11:13:57.000Z</time>
      </trkpt>
      <trkpt lat="47.37732" lon="7.16125">
        <ele>759.6</ele>
        <time>2023-04-04T11:13:58.000Z</time>
      </trkpt>
      <trkpt lat="47.37732" lon="7.16123">
        <ele>759.4</ele>
        <time>2023-04-04T11:13:59.000Z</time>
      </trkpt>
      <trkpt lat="47.37732" lon="7.16121">
        <ele>759.2</ele>
        <time>2023-04-04T11:14:00.000Z</time>
      </trkpt>
      <trkpt lat="47.37735" lon="7.16103">
        <ele>755.4</ele>
        <time>2023-04-04T11:14:11.000Z</time>
      </trkpt>
      <trkpt lat="47.37732" lon="7.16084">
        <ele>752.2</ele>
        <time>2023-04-04T11:14:22.000Z</time>
      </trkpt>
      <trkpt lat="47.37721" lon="7.16068">
        <ele>749.2</ele>
        <time>2023-04-04T11:14:33.000Z</time>
      </trkpt>
      <trkpt lat="47.3772" lon="7.16067">
        <ele>749</ele>
        <time>2023-04-04T11:14:34.000Z</time>
      </trkpt>
      <trkpt lat="47.37719" lon="7.16066">
        <ele>748.6</ele>
        <time>2023-04-04T11:14:35.000Z</time>
      </trkpt>
      <trkpt lat="47.37714" lon="7.16057">
        <ele>746.4</ele>
        <time>2023-04-04T11:14:41.000Z</time>
      </trkpt>
      <trkpt lat="47.37713" lon="7.16055">
        <ele>746.2</ele>
        <time>2023-04-04T11:14:42.000Z</time>
      </trkpt>
      <trkpt lat="47.37712" lon="7.16054">
        <ele>746</ele>
        <time>2023-04-04T11:14:43.000Z</time>
      </trkpt>
      <trkpt lat="47.3771" lon="7.16054">
        <ele>745.6</ele>
        <time>2023-04-04T11:14:44.000Z</time>
      </trkpt>
      <trkpt lat="47.377" lon="7.16048">
        <ele>742.4</ele>
        <time>2023-04-04T11:14:57.000Z</time>
      </trkpt>
      <trkpt lat="47.37698" lon="7.16047">
        <ele>742.2</ele>
        <time>2023-04-04T11:14:58.000Z</time>
      </trkpt>
      <trkpt lat="47.37696" lon="7.16047">
        <ele>741.6</ele>
        <time>2023-04-04T11:14:59.000Z</time>
      </trkpt>
      <trkpt lat="47.37695" lon="7.16047">
        <ele>741.6</ele>
        <time>2023-04-04T11:15:00.000Z</time>
      </trkpt>
      <trkpt lat="47.37693" lon="7.16046">
        <ele>741.2</ele>
        <time>2023-04-04T11:15:01.000Z</time>
      </trkpt>
      <trkpt lat="47.37691" lon="7.16046">
        <ele>741</ele>
        <time>2023-04-04T11:15:02.000Z</time>
      </trkpt>
      <trkpt lat="47.3769" lon="7.16046">
        <ele>740.6</ele>
        <time>2023-04-04T11:15:03.000Z</time>
      </trkpt>
      <trkpt lat="47.37688" lon="7.16045">
        <ele>740.2</ele>
        <time>2023-04-04T11:15:04.000Z</time>
      </trkpt>
      <trkpt lat="47.37677" lon="7.16047">
        <ele>737.2</ele>
        <time>2023-04-04T11:15:11.000Z</time>
      </trkpt>
      <trkpt lat="47.37673" lon="7.1605">
        <ele>735.4</ele>
        <time>2023-04-04T11:15:15.000Z</time>
      </trkpt>
      <trkpt lat="47.37671" lon="7.1605">
        <ele>734.8</ele>
        <time>2023-04-04T11:15:16.000Z</time>
      </trkpt>
      <trkpt lat="47.37669" lon="7.16049">
        <ele>734.2</ele>
        <time>2023-04-04T11:15:17.000Z</time>
      </trkpt>
      <trkpt lat="47.37668" lon="7.16049">
        <ele>733.8</ele>
        <time>2023-04-04T11:15:18.000Z</time>
      </trkpt>
      <trkpt lat="47.37667" lon="7.16049">
        <ele>733.4</ele>
        <time>2023-04-04T11:15:19.000Z</time>
      </trkpt>
      <trkpt lat="47.37657" lon="7.1605">
        <ele>730.4</ele>
        <time>2023-04-04T11:15:28.000Z</time>
      </trkpt>
      <trkpt lat="47.37638" lon="7.16046">
        <ele>726.2</ele>
        <time>2023-04-04T11:15:40.000Z</time>
      </trkpt>
      <trkpt lat="47.37636" lon="7.16046">
        <ele>725.8</ele>
        <time>2023-04-04T11:15:41.000Z</time>
      </trkpt>
      <trkpt lat="47.37627" lon="7.16049">
        <ele>722.4</ele>
        <time>2023-04-04T11:15:49.000Z</time>
      </trkpt>
      <trkpt lat="47.37619" lon="7.16052">
        <ele>719.4</ele>
        <time>2023-04-04T11:15:58.000Z</time>
      </trkpt>
      <trkpt lat="47.37608" lon="7.16048">
        <ele>716.4</ele>
        <time>2023-04-04T11:16:09.000Z</time>
      </trkpt>
      <trkpt lat="47.376" lon="7.16056">
        <ele>713.2</ele>
        <time>2023-04-04T11:16:24.000Z</time>
      </trkpt>
      <trkpt lat="47.3759" lon="7.16055">
        <ele>710</ele>
        <time>2023-04-04T11:16:34.000Z</time>
      </trkpt>
      <trkpt lat="47.37588" lon="7.16052">
        <ele>708.4</ele>
        <time>2023-04-04T11:16:38.000Z</time>
      </trkpt>
      <trkpt lat="47.37584" lon="7.16037">
        <ele>705.4</ele>
        <time>2023-04-04T11:16:50.000Z</time>
      </trkpt>
      <trkpt lat="47.37585" lon="7.1603">
        <ele>704</ele>
        <time>2023-04-04T11:16:54.000Z</time>
      </trkpt>
      <trkpt lat="47.37585" lon="7.16028">
        <ele>703.8</ele>
        <time>2023-04-04T11:16:55.000Z</time>
      </trkpt>
      <trkpt lat="47.37585" lon="7.16027">
        <ele>703.2</ele>
        <time>2023-04-04T11:16:57.000Z</time>
      </trkpt>
      <trkpt lat="47.37583" lon="7.16016">
        <ele>700.2</ele>
        <time>2023-04-04T11:17:06.000Z</time>
      </trkpt>
      <trkpt lat="47.37581" lon="7.16007">
        <ele>697</ele>
        <time>2023-04-04T11:17:16.000Z</time>
      </trkpt>
      <trkpt lat="47.3757" lon="7.16004">
        <ele>693.6</ele>
        <time>2023-04-04T11:17:24.000Z</time>
      </trkpt>
      <trkpt lat="47.37569" lon="7.16004">
        <ele>693.4</ele>
        <time>2023-04-04T11:17:25.000Z</time>
      </trkpt>
      <trkpt lat="47.37561" lon="7.16006">
        <ele>691.8</ele>
        <time>2023-04-04T11:17:31.000Z</time>
      </trkpt>
      <trkpt lat="47.37549" lon="7.16008">
        <ele>688.4</ele>
        <time>2023-04-04T11:17:42.000Z</time>
      </trkpt>
      <trkpt lat="47.37545" lon="7.1601">
        <ele>687.4</ele>
        <time>2023-04-04T11:17:45.000Z</time>
      </trkpt>
      <trkpt lat="47.37534" lon="7.16011">
        <ele>684.2</ele>
        <time>2023-04-04T11:17:54.000Z</time>
      </trkpt>
      <trkpt lat="47.37524" lon="7.16024">
        <ele>681.6</ele>
        <time>2023-04-04T11:18:13.000Z</time>
      </trkpt>
      <trkpt lat="47.37525" lon="7.16046">
        <ele>678.6</ele>
        <time>2023-04-04T11:18:24.000Z</time>
      </trkpt>
      <trkpt lat="47.37529" lon="7.16058">
        <ele>675.8</ele>
        <time>2023-04-04T11:18:44.000Z</time>
      </trkpt>
      <trkpt lat="47.3752" lon="7.16056">
        <ele>672.6</ele>
        <time>2023-04-04T11:18:59.000Z</time>
      </trkpt>
      <trkpt lat="47.37512" lon="7.16046">
        <ele>669.4</ele>
        <time>2023-04-04T11:19:11.000Z</time>
      </trkpt>
      <trkpt lat="47.3751" lon="7.16043">
        <ele>668.8</ele>
        <time>2023-04-04T11:19:13.000Z</time>
      </trkpt>
      <trkpt lat="47.37503" lon="7.16036">
        <ele>665.6</ele>
        <time>2023-04-04T11:19:22.000Z</time>
      </trkpt>
      <trkpt lat="47.37499" lon="7.16023">
        <ele>662.2</ele>
        <time>2023-04-04T11:19:30.000Z</time>
      </trkpt>
      <trkpt lat="47.37498" lon="7.16012">
        <ele>660</ele>
        <time>2023-04-04T11:19:37.000Z</time>
      </trkpt>
      <trkpt lat="47.37497" lon="7.16001">
        <ele>657.4</ele>
        <time>2023-04-04T11:19:45.000Z</time>
      </trkpt>
      <trkpt lat="47.37484" lon="7.15997">
        <ele>654.4</ele>
        <time>2023-04-04T11:19:55.000Z</time>
      </trkpt>
      <trkpt lat="47.37471" lon="7.16012">
        <ele>651.2</ele>
        <time>2023-04-04T11:20:10.000Z</time>
      </trkpt>
      <trkpt lat="47.3747" lon="7.16019">
        <ele>648.8</ele>
        <time>2023-04-04T11:20:16.000Z</time>
      </trkpt>
      <trkpt lat="47.37469" lon="7.16027">
        <ele>647.6</ele>
        <time>2023-04-04T11:20:21.000Z</time>
      </trkpt>
      <trkpt lat="47.37471" lon="7.16048">
        <ele>644.6</ele>
        <time>2023-04-04T11:20:33.000Z</time>
      </trkpt>
      <trkpt lat="47.37471" lon="7.16064">
        <ele>641.4</ele>
        <time>2023-04-04T11:20:44.000Z</time>
      </trkpt>
      <trkpt lat="47.37471" lon="7.16084">
        <ele>638.4</ele>
        <time>2023-04-04T11:20:55.000Z</time>
      </trkpt>
      <trkpt lat="47.37471" lon="7.16101">
        <ele>635.4</ele>
        <time>2023-04-04T11:21:06.000Z</time>
      </trkpt>
      <trkpt lat="47.37473" lon="7.16119">
        <ele>633.4</ele>
        <time>2023-04-04T11:21:20.000Z</time>
      </trkpt>
      <trkpt lat="47.37468" lon="7.16124">
        <ele>630</ele>
        <time>2023-04-04T11:21:32.000Z</time>
      </trkpt>
      <trkpt lat="47.37464" lon="7.16113">
        <ele>627</ele>
        <time>2023-04-04T11:21:45.000Z</time>
      </trkpt>
      <trkpt lat="47.37463" lon="7.16113">
        <ele>627</ele>
        <time>2023-04-04T11:21:46.000Z</time>
      </trkpt>
      <trkpt lat="47.37455" lon="7.16098">
        <ele>624.2</ele>
        <time>2023-04-04T11:22:01.000Z</time>
      </trkpt>
      <trkpt lat="47.37449" lon="7.16082">
        <ele>621.6</ele>
        <time>2023-04-04T11:22:11.000Z</time>
      </trkpt>
      <trkpt lat="47.37448" lon="7.16068">
        <ele>618.4</ele>
        <time>2023-04-04T11:22:27.000Z</time>
      </trkpt>
      <trkpt lat="47.37438" lon="7.16055">
        <ele>615.6</ele>
        <time>2023-04-04T11:22:39.000Z</time>
      </trkpt>
      <trkpt lat="47.37432" lon="7.16046">
        <ele>614</ele>
        <time>2023-04-04T11:22:46.000Z</time>
      </trkpt>
      <trkpt lat="47.37427" lon="7.16039">
        <ele>612.2</ele>
        <time>2023-04-04T11:22:54.000Z</time>
      </trkpt>
      <trkpt lat="47.37421" lon="7.16028">
        <ele>610.4</ele>
        <time>2023-04-04T11:23:02.000Z</time>
      </trkpt>
      <trkpt lat="47.37418" lon="7.16014">
        <ele>607.4</ele>
        <time>2023-04-04T11:23:14.000Z</time>
      </trkpt>
      <trkpt lat="47.3741" lon="7.16001">
        <ele>604.2</ele>
        <time>2023-04-04T11:23:28.000Z</time>
      </trkpt>
      <trkpt lat="47.37399" lon="7.15989">
        <ele>601.8</ele>
        <time>2023-04-04T11:23:37.000Z</time>
      </trkpt>
      <trkpt lat="47.37395" lon="7.15982">
        <ele>600.2</ele>
        <time>2023-04-04T11:23:44.000Z</time>
      </trkpt>
      <trkpt lat="47.37378" lon="7.15958">
        <ele>597.2</ele>
        <time>2023-04-04T11:23:59.000Z</time>
      </trkpt>
      <trkpt lat="47.37363" lon="7.15938">
        <ele>594.2</ele>
        <time>2023-04-04T11:24:14.000Z</time>
      </trkpt>
      <trkpt lat="47.37361" lon="7.15934">
        <ele>593.4</ele>
        <time>2023-04-04T11:24:17.000Z</time>
      </trkpt>
      <trkpt lat="47.3736" lon="7.15933">
        <ele>593</ele>
        <time>2023-04-04T11:24:18.000Z</time>
      </trkpt>
      <trkpt lat="47.37352" lon="7.15924">
        <ele>590</ele>
        <time>2023-04-04T11:24:29.000Z</time>
      </trkpt>
      <trkpt lat="47.37353" lon="7.15925">
        <ele>589.8</ele>
        <time>2023-04-04T11:24:30.000Z</time>
      </trkpt>
      <trkpt lat="47.37353" lon="7.15919">
        <ele>588.2</ele>
        <time>2023-04-04T11:24:50.000Z</time>
      </trkpt>
      <trkpt lat="47.3735" lon="7.15912">
        <ele>586.8</ele>
        <time>2023-04-04T11:24:56.000Z</time>
      </trkpt>
      <trkpt lat="47.37337" lon="7.15896">
        <ele>583.6</ele>
        <time>2023-04-04T11:25:08.000Z</time>
      </trkpt>
      <trkpt lat="47.37314" lon="7.15876">
        <ele>579.4</ele>
        <time>2023-04-04T11:25:26.000Z</time>
      </trkpt>
      <trkpt lat="47.37307" lon="7.15868">
        <ele>578</ele>
        <time>2023-04-04T11:25:32.000Z</time>
      </trkpt>
      <trkpt lat="47.3727" lon="7.1584">
        <ele>572.2</ele>
        <time>2023-04-04T11:25:56.000Z</time>
      </trkpt>
      <trkpt lat="47.37251" lon="7.1583">
        <ele>569.8</ele>
        <time>2023-04-04T11:26:09.000Z</time>
      </trkpt>
      <trkpt lat="47.37248" lon="7.15826">
        <ele>567</ele>
        <time>2023-04-04T11:26:27.000Z</time>
      </trkpt>
      <trkpt lat="47.37241" lon="7.1582">
        <ele>563.8</ele>
        <time>2023-04-04T11:26:42.000Z</time>
      </trkpt>
      <trkpt lat="47.37238" lon="7.15821">
        <ele>563.2</ele>
        <time>2023-04-04T11:26:44.000Z</time>
      </trkpt>
      <trkpt lat="47.37227" lon="7.15813">
        <ele>560.2</ele>
        <time>2023-04-04T11:26:58.000Z</time>
      </trkpt>
      <trkpt lat="47.37219" lon="7.15805">
        <ele>558.2</ele>
        <time>2023-04-04T11:27:07.000Z</time>
      </trkpt>
      <trkpt lat="47.37217" lon="7.15802">
        <ele>557.8</ele>
        <time>2023-04-04T11:27:10.000Z</time>
      </trkpt>
      <trkpt lat="47.37206" lon="7.15786">
        <ele>556.2</ele>
        <time>2023-04-04T11:27:20.000Z</time>
      </trkpt>
      <trkpt lat="47.37203" lon="7.15783">
        <ele>555.8</ele>
        <time>2023-04-04T11:27:23.000Z</time>
      </trkpt>
      <trkpt lat="47.37188" lon="7.1578">
        <ele>554.6</ele>
        <time>2023-04-04T11:27:33.000Z</time>
      </trkpt>
      <trkpt lat="47.3717" lon="7.15772">
        <ele>553.2</ele>
        <time>2023-04-04T11:27:44.000Z</time>
      </trkpt>
      <trkpt lat="47.37168" lon="7.1577">
        <ele>553.2</ele>
        <time>2023-04-04T11:27:47.000Z</time>
      </trkpt>
      <trkpt lat="47.37162" lon="7.1577">
        <ele>552.8</ele>
        <time>2023-04-04T11:27:54.000Z</time>
      </trkpt>
      <trkpt lat="47.37149" lon="7.15767">
        <ele>550.6</ele>
        <time>2023-04-04T11:28:05.000Z</time>
      </trkpt>
      <trkpt lat="47.37132" lon="7.15757">
        <ele>547.8</ele>
        <time>2023-04-04T11:28:19.000Z</time>
      </trkpt>
      <trkpt lat="47.37103" lon="7.15752">
        <ele>544.6</ele>
        <time>2023-04-04T11:28:50.000Z</time>
      </trkpt>
      <trkpt lat="47.37089" lon="7.15747">
        <ele>543.2</ele>
        <time>2023-04-04T11:29:02.000Z</time>
      </trkpt>
      <trkpt lat="47.37085" lon="7.15748">
        <ele>542.4</ele>
        <time>2023-04-04T11:29:05.000Z</time>
      </trkpt>
      <trkpt lat="47.37075" lon="7.15742">
        <ele>539.6</ele>
        <time>2023-04-04T11:29:20.000Z</time>
      </trkpt>
      <trkpt lat="47.37065" lon="7.15738">
        <ele>537.6</ele>
        <time>2023-04-04T11:29:36.000Z</time>
      </trkpt>
      <trkpt lat="47.37063" lon="7.15737">
        <ele>537.2</ele>
        <time>2023-04-04T11:29:38.000Z</time>
      </trkpt>
      <trkpt lat="47.3706" lon="7.15733">
        <ele>536.6</ele>
        <time>2023-04-04T11:29:41.000Z</time>
      </trkpt>
      <trkpt lat="47.37039" lon="7.15721">
        <ele>533.6</ele>
        <time>2023-04-04T11:29:56.000Z</time>
      </trkpt>
      <trkpt lat="47.37016" lon="7.15714">
        <ele>531.4</ele>
        <time>2023-04-04T11:30:12.000Z</time>
      </trkpt>
      <trkpt lat="47.37006" lon="7.15713">
        <ele>530</ele>
        <time>2023-04-04T11:30:24.000Z</time>
      </trkpt>
      <trkpt lat="47.36999" lon="7.15704">
        <ele>527.8</ele>
        <time>2023-04-04T11:30:42.000Z</time>
      </trkpt>
      <trkpt lat="47.36999" lon="7.15705">
        <ele>527.8</ele>
        <time>2023-04-04T11:30:44.000Z</time>
      </trkpt>
      <trkpt lat="47.3699" lon="7.15706">
        <ele>527.6</ele>
        <time>2023-04-04T11:31:00.000Z</time>
      </trkpt>
      <trkpt lat="47.36986" lon="7.15708">
        <ele>527.2</ele>
        <time>2023-04-04T11:31:05.000Z</time>
      </trkpt>
      <trkpt lat="47.36979" lon="7.15707">
        <ele>525.2</ele>
        <time>2023-04-04T11:31:15.000Z</time>
      </trkpt>
      <trkpt lat="47.36967" lon="7.15695">
        <ele>522.8</ele>
        <time>2023-04-04T11:31:32.000Z</time>
      </trkpt>
      <trkpt lat="47.36957" lon="7.15696">
        <ele>522.2</ele>
        <time>2023-04-04T11:31:54.000Z</time>
      </trkpt>
      <trkpt lat="47.36953" lon="7.15692">
        <ele>521.8</ele>
        <time>2023-04-04T11:31:58.000Z</time>
      </trkpt>
      <trkpt lat="47.36953" lon="7.15691">
        <ele>521.6</ele>
        <time>2023-04-04T11:31:59.000Z</time>
      </trkpt>
      <trkpt lat="47.36934" lon="7.15672">
        <ele>519.6</ele>
        <time>2023-04-04T11:32:21.000Z</time>
      </trkpt>
      <trkpt lat="47.36933" lon="7.1567">
        <ele>519.4</ele>
        <time>2023-04-04T11:32:22.000Z</time>
      </trkpt>
      <trkpt lat="47.36927" lon="7.15665">
        <ele>519.2</ele>
        <time>2023-04-04T11:32:25.000Z</time>
      </trkpt>
      <trkpt lat="47.36926" lon="7.15663">
        <ele>519</ele>
        <time>2023-04-04T11:32:26.000Z</time>
      </trkpt>
      <trkpt lat="47.36919" lon="7.15655">
        <ele>518.6</ele>
        <time>2023-04-04T11:32:30.000Z</time>
      </trkpt>
      <trkpt lat="47.36918" lon="7.15654">
        <ele>518.4</ele>
        <time>2023-04-04T11:32:31.000Z</time>
      </trkpt>
      <trkpt lat="47.36916" lon="7.15652">
        <ele>518.4</ele>
        <time>2023-04-04T11:32:32.000Z</time>
      </trkpt>
      <trkpt lat="47.36915" lon="7.1565">
        <ele>518.2</ele>
        <time>2023-04-04T11:32:33.000Z</time>
      </trkpt>
      <trkpt lat="47.36914" lon="7.15649">
        <ele>518</ele>
        <time>2023-04-04T11:32:34.000Z</time>
      </trkpt>
      <trkpt lat="47.36909" lon="7.15641">
        <ele>516.6</ele>
        <time>2023-04-04T11:32:47.000Z</time>
      </trkpt>
      <trkpt lat="47.36902" lon="7.15638">
        <ele>516</ele>
        <time>2023-04-04T11:32:52.000Z</time>
      </trkpt>
      <trkpt lat="47.36898" lon="7.15636">
        <ele>515.8</ele>
        <time>2023-04-04T11:32:54.000Z</time>
      </trkpt>
      <trkpt lat="47.36884" lon="7.15618">
        <ele>514.6</ele>
        <time>2023-04-04T11:33:10.000Z</time>
      </trkpt>
      <trkpt lat="47.36883" lon="7.15613">
        <ele>514.4</ele>
        <time>2023-04-04T11:33:22.000Z</time>
      </trkpt>
      <trkpt lat="47.36877" lon="7.15597">
        <ele>512.8</ele>
        <time>2023-04-04T11:33:37.000Z</time>
      </trkpt>
      <trkpt lat="47.36869" lon="7.15584">
        <ele>511.4</ele>
        <time>2023-04-04T11:33:51.000Z</time>
      </trkpt>
      <trkpt lat="47.36863" lon="7.15581">
        <ele>510.6</ele>
        <time>2023-04-04T11:33:57.000Z</time>
      </trkpt>
      <trkpt lat="47.36849" lon="7.15566">
        <ele>510.4</ele>
        <time>2023-04-04T11:34:10.000Z</time>
      </trkpt>
      <trkpt lat="47.36846" lon="7.15562">
        <ele>510.4</ele>
        <time>2023-04-04T11:34:13.000Z</time>
      </trkpt>
      <trkpt lat="47.36824" lon="7.15543">
        <ele>510</ele>
        <time>2023-04-04T11:34:30.000Z</time>
      </trkpt>
      <trkpt lat="47.36814" lon="7.15519">
        <ele>506.6</ele>
        <time>2023-04-04T11:34:51.000Z</time>
      </trkpt>
      <trkpt lat="47.36805" lon="7.15499">
        <ele>503.6</ele>
        <time>2023-04-04T11:35:06.000Z</time>
      </trkpt>
      <trkpt lat="47.36792" lon="7.15483">
        <ele>502.2</ele>
        <time>2023-04-04T11:35:19.000Z</time>
      </trkpt>
      <trkpt lat="47.36783" lon="7.15471">
        <ele>501</ele>
        <time>2023-04-04T11:35:29.000Z</time>
      </trkpt>
      <trkpt lat="47.36772" lon="7.15453">
        <ele>498</ele>
        <time>2023-04-04T11:35:41.000Z</time>
      </trkpt>
      <trkpt lat="47.36763" lon="7.15432">
        <ele>494.8</ele>
        <time>2023-04-04T11:35:53.000Z</time>
      </trkpt>
      <trkpt lat="47.36755" lon="7.15411">
        <ele>491.6</ele>
        <time>2023-04-04T11:36:06.000Z</time>
      </trkpt>
      <trkpt lat="47.36746" lon="7.15386">
        <ele>488.6</ele>
        <time>2023-04-04T11:36:21.000Z</time>
      </trkpt>
      <trkpt lat="47.36746" lon="7.15384">
        <ele>488.4</ele>
        <time>2023-04-04T11:36:22.000Z</time>
      </trkpt>
      <trkpt lat="47.36745" lon="7.15377">
        <ele>487.8</ele>
        <time>2023-04-04T11:36:25.000Z</time>
      </trkpt>
      <trkpt lat="47.36745" lon="7.15375">
        <ele>487.6</ele>
        <time>2023-04-04T11:36:26.000Z</time>
      </trkpt>
      <trkpt lat="47.3674" lon="7.15358">
        <ele>485.4</ele>
        <time>2023-04-04T11:36:35.000Z</time>
      </trkpt>
      <trkpt lat="47.36739" lon="7.15357">
        <ele>485.2</ele>
        <time>2023-04-04T11:36:36.000Z</time>
      </trkpt>
      <trkpt lat="47.36739" lon="7.15356">
        <ele>484.8</ele>
        <time>2023-04-04T11:36:37.000Z</time>
      </trkpt>
      <trkpt lat="47.36738" lon="7.15354">
        <ele>484.6</ele>
        <time>2023-04-04T11:36:38.000Z</time>
      </trkpt>
      <trkpt lat="47.36734" lon="7.15332">
        <ele>481.4</ele>
        <time>2023-04-04T11:36:51.000Z</time>
      </trkpt>
      <trkpt lat="47.3673" lon="7.15321">
        <ele>480</ele>
        <time>2023-04-04T11:36:57.000Z</time>
      </trkpt>
      <trkpt lat="47.36729" lon="7.15319">
        <ele>479.8</ele>
        <time>2023-04-04T11:36:58.000Z</time>
      </trkpt>
      <trkpt lat="47.36728" lon="7.15318">
        <ele>479.6</ele>
        <time>2023-04-04T11:36:59.000Z</time>
      </trkpt>
      <trkpt lat="47.36723" lon="7.1531">
        <ele>478.2</ele>
        <time>2023-04-04T11:37:21.000Z</time>
      </trkpt>
      <trkpt lat="47.36713" lon="7.15302">
        <ele>477.8</ele>
        <time>2023-04-04T11:37:46.000Z</time>
      </trkpt>
      <trkpt lat="47.36703" lon="7.15289">
        <ele>476.8</ele>
        <time>2023-04-04T11:37:54.000Z</time>
      </trkpt>
      <trkpt lat="47.36695" lon="7.15279">
        <ele>476.2</ele>
        <time>2023-04-04T11:38:01.000Z</time>
      </trkpt>
      <trkpt lat="47.36685" lon="7.15273">
        <ele>475.8</ele>
        <time>2023-04-04T11:38:20.000Z</time>
      </trkpt>
      <trkpt lat="47.36673" lon="7.15257">
        <ele>474.6</ele>
        <time>2023-04-04T11:38:46.000Z</time>
      </trkpt>
      <trkpt lat="47.36657" lon="7.15253">
        <ele>471.4</ele>
        <time>2023-04-04T11:39:05.000Z</time>
      </trkpt>
      <trkpt lat="47.36636" lon="7.15243">
        <ele>468.4</ele>
        <time>2023-04-04T11:39:24.000Z</time>
      </trkpt>
      <trkpt lat="47.36611" lon="7.15237">
        <ele>466.4</ele>
        <time>2023-04-04T11:39:41.000Z</time>
      </trkpt>
      <trkpt lat="47.36601" lon="7.15244">
        <ele>464.8</ele>
        <time>2023-04-04T11:39:59.000Z</time>
      </trkpt>
      <trkpt lat="47.36587" lon="7.15253">
        <ele>463.6</ele>
        <time>2023-04-04T11:40:15.000Z</time>
      </trkpt>
      <trkpt lat="47.36569" lon="7.15261">
        <ele>461.6</ele>
        <time>2023-04-04T11:40:29.000Z</time>
      </trkpt>
      <trkpt lat="47.36566" lon="7.15263">
        <ele>461.2</ele>
        <time>2023-04-04T11:40:32.000Z</time>
      </trkpt>
      <trkpt lat="47.36563" lon="7.15264">
        <ele>460.8</ele>
        <time>2023-04-04T11:40:34.000Z</time>
      </trkpt>
      <trkpt lat="47.36562" lon="7.15264">
        <ele>460.8</ele>
        <time>2023-04-04T11:40:35.000Z</time>
      </trkpt>
      <trkpt lat="47.3656" lon="7.15264">
        <ele>460.6</ele>
        <time>2023-04-04T11:40:36.000Z</time>
      </trkpt>
      <trkpt lat="47.36555" lon="7.15264">
        <ele>460.4</ele>
        <time>2023-04-04T11:40:39.000Z</time>
      </trkpt>
      <trkpt lat="47.36553" lon="7.15264">
        <ele>460.4</ele>
        <time>2023-04-04T11:40:40.000Z</time>
      </trkpt>
      <trkpt lat="47.3654" lon="7.15267">
        <ele>459</ele>
        <time>2023-04-04T11:40:48.000Z</time>
      </trkpt>
      <trkpt lat="47.36533" lon="7.1527">
        <ele>458</ele>
        <time>2023-04-04T11:40:53.000Z</time>
      </trkpt>
      <trkpt lat="47.36532" lon="7.1527">
        <ele>458</ele>
        <time>2023-04-04T11:40:54.000Z</time>
      </trkpt>
      <trkpt lat="47.36516" lon="7.15264">
        <ele>456.8</ele>
        <time>2023-04-04T11:41:04.000Z</time>
      </trkpt>
      <trkpt lat="47.36512" lon="7.1527">
        <ele>456.4</ele>
        <time>2023-04-04T11:41:08.000Z</time>
      </trkpt>
      <trkpt lat="47.36509" lon="7.1527">
        <ele>456.2</ele>
        <time>2023-04-04T11:41:11.000Z</time>
      </trkpt>
      <trkpt lat="47.36508" lon="7.15269">
        <ele>456</ele>
        <time>2023-04-04T11:41:12.000Z</time>
      </trkpt>
      <trkpt lat="47.36507" lon="7.15268">
        <ele>455.6</ele>
        <time>2023-04-04T11:41:14.000Z</time>
      </trkpt>
      <trkpt lat="47.36506" lon="7.15268">
        <ele>455</ele>
        <time>2023-04-04T11:41:15.000Z</time>
      </trkpt>
      <trkpt lat="47.36487" lon="7.15266">
        <ele>452.8</ele>
        <time>2023-04-04T11:41:31.000Z</time>
      </trkpt>
      <trkpt lat="47.36481" lon="7.15266">
        <ele>452.6</ele>
        <time>2023-04-04T11:41:36.000Z</time>
      </trkpt>
      <trkpt lat="47.36478" lon="7.15265">
        <ele>452.6</ele>
        <time>2023-04-04T11:41:38.000Z</time>
      </trkpt>
      <trkpt lat="47.36477" lon="7.15264">
        <ele>452.6</ele>
        <time>2023-04-04T11:41:39.000Z</time>
      </trkpt>
      <trkpt lat="47.36457" lon="7.15272">
        <ele>452</ele>
        <time>2023-04-04T11:41:55.000Z</time>
      </trkpt>
      <trkpt lat="47.36449" lon="7.15278">
        <ele>451.4</ele>
        <time>2023-04-04T11:42:03.000Z</time>
      </trkpt>
      <trkpt lat="47.36448" lon="7.15279">
        <ele>451.4</ele>
        <time>2023-04-04T11:42:04.000Z</time>
      </trkpt>
      <trkpt lat="47.36446" lon="7.1528">
        <ele>451.2</ele>
        <time>2023-04-04T11:42:06.000Z</time>
      </trkpt>
      <trkpt lat="47.36434" lon="7.15281">
        <ele>450.8</ele>
        <time>2023-04-04T11:42:17.000Z</time>
      </trkpt>
      <trkpt lat="47.36433" lon="7.15294">
        <ele>450</ele>
        <time>2023-04-04T11:42:32.000Z</time>
      </trkpt>
      <trkpt lat="47.36434" lon="7.15297">
        <ele>449.8</ele>
        <time>2023-04-04T11:42:33.000Z</time>
      </trkpt>
      <trkpt lat="47.36435" lon="7.15298">
        <ele>449.8</ele>
        <time>2023-04-04T11:42:34.000Z</time>
      </trkpt>
      <trkpt lat="47.36436" lon="7.153">
        <ele>449.8</ele>
        <time>2023-04-04T11:42:35.000Z</time>
      </trkpt>
      <trkpt lat="47.36443" lon="7.15308">
        <ele>449.2</ele>
        <time>2023-04-04T11:42:44.000Z</time>
      </trkpt>
      <trkpt lat="47.36448" lon="7.15333">
        <ele>448.8</ele>
        <time>2023-04-04T11:43:03.000Z</time>
      </trkpt>
      <trkpt lat="47.36448" lon="7.15348">
        <ele>448.6</ele>
        <time>2023-04-04T11:43:15.000Z</time>
      </trkpt>
      <trkpt lat="47.36449" lon="7.15375">
        <ele>448</ele>
        <time>2023-04-04T11:43:32.000Z</time>
      </trkpt>
      <trkpt lat="47.36448" lon="7.15384">
        <ele>447.8</ele>
        <time>2023-04-04T11:43:38.000Z</time>
      </trkpt>
      <trkpt lat="47.36448" lon="7.15403">
        <ele>447.4</ele>
        <time>2023-04-04T11:43:52.000Z</time>
      </trkpt>
      <trkpt lat="47.36431" lon="7.15412">
        <ele>446.6</ele>
        <time>2023-04-04T11:44:06.000Z</time>
      </trkpt>
      <trkpt lat="47.3643" lon="7.15413">
        <ele>446.6</ele>
        <time>2023-04-04T11:44:07.000Z</time>
      </trkpt>
      <trkpt lat="47.36422" lon="7.1543">
        <ele>446.2</ele>
        <time>2023-04-04T11:44:16.000Z</time>
      </trkpt>
      <trkpt lat="47.36422" lon="7.15432">
        <ele>446.2</ele>
        <time>2023-04-04T11:44:17.000Z</time>
      </trkpt>
      <trkpt lat="47.36415" lon="7.15445">
        <ele>447.2</ele>
        <time>2023-04-04T11:44:36.000Z</time>
      </trkpt>
      <trkpt lat="47.36405" lon="7.1546">
        <ele>448.4</ele>
        <time>2023-04-04T11:44:51.000Z</time>
      </trkpt>
      <trkpt lat="47.36406" lon="7.1546">
        <ele>448</ele>
        <time>2023-04-04T11:45:13.000Z</time>
      </trkpt>
      <trkpt lat="47.36421" lon="7.15433">
        <ele>446.4</ele>
        <time>2023-04-04T11:45:28.000Z</time>
      </trkpt>
      <trkpt lat="47.36423" lon="7.15432">
        <ele>446.4</ele>
        <time>2023-04-04T11:45:29.000Z</time>
      </trkpt>
      <trkpt lat="47.36426" lon="7.15424">
        <ele>446.4</ele>
        <time>2023-04-04T11:45:33.000Z</time>
      </trkpt>
      <trkpt lat="47.36437" lon="7.15415">
        <ele>445.6</ele>
        <time>2023-04-04T11:45:49.000Z</time>
      </trkpt>
      <trkpt lat="47.36438" lon="7.15415">
        <ele>445.6</ele>
        <time>2023-04-04T11:45:50.000Z</time>
      </trkpt>
      <trkpt lat="47.36439" lon="7.15415">
        <ele>445.6</ele>
        <time>2023-04-04T11:45:51.000Z</time>
      </trkpt>
      <trkpt lat="47.3644" lon="7.15415">
        <ele>445.6</ele>
        <time>2023-04-04T11:45:52.000Z</time>
      </trkpt>
      <trkpt lat="47.36441" lon="7.15414">
        <ele>445.6</ele>
        <time>2023-04-04T11:45:53.000Z</time>
      </trkpt>
      <trkpt lat="47.36453" lon="7.15414">
        <ele>446.2</ele>
        <time>2023-04-04T11:46:07.000Z</time>
      </trkpt>
      <trkpt lat="47.36456" lon="7.15415">
        <ele>446.4</ele>
        <time>2023-04-04T11:46:10.000Z</time>
      </trkpt>
      <trkpt lat="47.36457" lon="7.15415">
        <ele>446.4</ele>
        <time>2023-04-04T11:46:11.000Z</time>
      </trkpt>
      <trkpt lat="47.36458" lon="7.15415">
        <ele>446.4</ele>
        <time>2023-04-04T11:46:12.000Z</time>
      </trkpt>
      <trkpt lat="47.36459" lon="7.15415">
        <ele>446.4</ele>
        <time>2023-04-04T11:46:13.000Z</time>
      </trkpt>
      <trkpt lat="47.36462" lon="7.15416">
        <ele>446.6</ele>
        <time>2023-04-04T11:46:15.000Z</time>
      </trkpt>
      <trkpt lat="47.36466" lon="7.1542">
        <ele>447.2</ele>
        <time>2023-04-04T11:46:20.000Z</time>
      </trkpt>
      <trkpt lat="47.36467" lon="7.15421">
        <ele>447.4</ele>
        <time>2023-04-04T11:46:21.000Z</time>
      </trkpt>
      <trkpt lat="47.36469" lon="7.15424">
        <ele>447.4</ele>
        <time>2023-04-04T11:46:23.000Z</time>
      </trkpt>
      <trkpt lat="47.36471" lon="7.15426">
        <ele>447.8</ele>
        <time>2023-04-04T11:46:25.000Z</time>
      </trkpt>
      <trkpt lat="47.36472" lon="7.15427">
        <ele>448</ele>
        <time>2023-04-04T11:46:26.000Z</time>
      </trkpt>
      <trkpt lat="47.36474" lon="7.1543">
        <ele>448</ele>
        <time>2023-04-04T11:46:28.000Z</time>
      </trkpt>
      <trkpt lat="47.36481" lon="7.15439">
        <ele>448.6</ele>
        <time>2023-04-04T11:46:37.000Z</time>
      </trkpt>
      <trkpt lat="47.36487" lon="7.15442">
        <ele>448.4</ele>
        <time>2023-04-04T11:46:46.000Z</time>
      </trkpt>
      <trkpt lat="47.36491" lon="7.15446">
        <ele>448.6</ele>
        <time>2023-04-04T11:46:52.000Z</time>
      </trkpt>
      <trkpt lat="47.36505" lon="7.15453">
        <ele>448.2</ele>
        <time>2023-04-04T11:47:05.000Z</time>
      </trkpt>
      <trkpt lat="47.36517" lon="7.15461">
        <ele>447.8</ele>
        <time>2023-04-04T11:47:14.000Z</time>
      </trkpt>
      <trkpt lat="47.36518" lon="7.15462">
        <ele>448</ele>
        <time>2023-04-04T11:47:15.000Z</time>
      </trkpt>
      <trkpt lat="47.36519" lon="7.15473">
        <ele>448.2</ele>
        <time>2023-04-04T11:47:25.000Z</time>
      </trkpt>
      <trkpt lat="47.36521" lon="7.1548">
        <ele>447.6</ele>
        <time>2023-04-04T11:47:31.000Z</time>
      </trkpt>
      <trkpt lat="47.36523" lon="7.15483">
        <ele>447.6</ele>
        <time>2023-04-04T11:47:33.000Z</time>
      </trkpt>
      <trkpt lat="47.36526" lon="7.15485">
        <ele>447.6</ele>
        <time>2023-04-04T11:47:36.000Z</time>
      </trkpt>
      <trkpt lat="47.36533" lon="7.15491">
        <ele>447.4</ele>
        <time>2023-04-04T11:47:43.000Z</time>
      </trkpt>
      <trkpt lat="47.36543" lon="7.1551">
        <ele>447.4</ele>
        <time>2023-04-04T11:47:58.000Z</time>
      </trkpt>
      <trkpt lat="47.36545" lon="7.15516">
        <ele>447.4</ele>
        <time>2023-04-04T11:48:01.000Z</time>
      </trkpt>
      <trkpt lat="47.36557" lon="7.15538">
        <ele>446.8</ele>
        <time>2023-04-04T11:48:15.000Z</time>
      </trkpt>
      <trkpt lat="47.36557" lon="7.1554">
        <ele>446.8</ele>
        <time>2023-04-04T11:48:16.000Z</time>
      </trkpt>
      <trkpt lat="47.36558" lon="7.15541">
        <ele>446.8</ele>
        <time>2023-04-04T11:48:17.000Z</time>
      </trkpt>
      <trkpt lat="47.36559" lon="7.15542">
        <ele>447</ele>
        <time>2023-04-04T11:48:18.000Z</time>
      </trkpt>
      <trkpt lat="47.36564" lon="7.1555">
        <ele>447.2</ele>
        <time>2023-04-04T11:48:24.000Z</time>
      </trkpt>
      <trkpt lat="47.36567" lon="7.15553">
        <ele>447</ele>
        <time>2023-04-04T11:48:27.000Z</time>
      </trkpt>
      <trkpt lat="47.36572" lon="7.15567">
        <ele>446.6</ele>
        <time>2023-04-04T11:48:37.000Z</time>
      </trkpt>
      <trkpt lat="47.36582" lon="7.15577">
        <ele>447</ele>
        <time>2023-04-04T11:48:46.000Z</time>
      </trkpt>
      <trkpt lat="47.36588" lon="7.15586">
        <ele>446.8</ele>
        <time>2023-04-04T11:48:54.000Z</time>
      </trkpt>
      <trkpt lat="47.36594" lon="7.15594">
        <ele>446.6</ele>
        <time>2023-04-04T11:49:00.000Z</time>
      </trkpt>
      <trkpt lat="47.36594" lon="7.15596">
        <ele>446.6</ele>
        <time>2023-04-04T11:49:01.000Z</time>
      </trkpt>
      <trkpt lat="47.36595" lon="7.15598">
        <ele>446.6</ele>
        <time>2023-04-04T11:49:02.000Z</time>
      </trkpt>
      <trkpt lat="47.36604" lon="7.15617">
        <ele>447.8</ele>
        <time>2023-04-04T11:49:15.000Z</time>
      </trkpt>
      <trkpt lat="47.36606" lon="7.15623">
        <ele>448</ele>
        <time>2023-04-04T11:49:19.000Z</time>
      </trkpt>
      <trkpt lat="47.36609" lon="7.15628">
        <ele>448</ele>
        <time>2023-04-04T11:49:22.000Z</time>
      </trkpt>
      <trkpt lat="47.36618" lon="7.15642">
        <ele>448.4</ele>
        <time>2023-04-04T11:49:34.000Z</time>
      </trkpt>
      <trkpt lat="47.36619" lon="7.15644">
        <ele>448.4</ele>
        <time>2023-04-04T11:49:35.000Z</time>
      </trkpt>
      <trkpt lat="47.36631" lon="7.1566">
        <ele>448.6</ele>
        <time>2023-04-04T11:49:48.000Z</time>
      </trkpt>
      <trkpt lat="47.36631" lon="7.15662">
        <ele>448.6</ele>
        <time>2023-04-04T11:49:49.000Z</time>
      </trkpt>
      <trkpt lat="47.36633" lon="7.15665">
        <ele>448.6</ele>
        <time>2023-04-04T11:49:51.000Z</time>
      </trkpt>
      <trkpt lat="47.36633" lon="7.15667">
        <ele>448.4</ele>
        <time>2023-04-04T11:49:52.000Z</time>
      </trkpt>
      <trkpt lat="47.36635" lon="7.15669">
        <ele>448.2</ele>
        <time>2023-04-04T11:49:59.000Z</time>
      </trkpt>
    </trkseg>
  </trk>
</gpx>